[[{"header":{"parameterUnit":"m.s-1","parameterCategory":1,"la1":30.6,"la2":28.766,"lo1":-90.7593,"lo2":-88.6598,"dy":0.0162,"dx":0.0183,"nx":116,"ny":114,"refTime":"2024-06-19T12:00:00:Z","depth":0,"parameterNumber":2,"parameterNumberName":"U-component_of_WINDS"},"data":[0.0,0.0,0.0,0.0,0.0,0.0,0.0,0.0,0.0,0.0,0.0,0.0,0.0,0.0,0.0,0.0,0.0,0.0,0.0,0.0,0.0,0.0,0.0,0.0,0.0,0.0,0.0,0.0,0.0,0.0,0.0,0.0,0.0,0.0,0.0,0.0,0.0,0.0,0.0,0.0,0.0,0.0,0.0,0.0,0.0,0.0,0.0,0.0,0.0,0.0,0.0,0.0,0.0,0.0,0.0,0.0,0.0,0.0,0.0,0.0,0.0,0.0,0.0,0.0,0.0,0.0,0.0,0.0,0.0,0.0,0.0,0.0,0.0,0.0,0.0,0.0,0.0,0.0,0.0,0.0,0.0,0.0,0.0,0.0,0.0,0.0,0.0,0.0,0.0,0.0,0.0,0.0,0.0,0.0,0.0,0.0,0.0,0.0,0.0,0.0,0.0,0.0,0.0,0.0,0.0,0.0,0.0,0.0,0.0,0.0,0.0,0.0,0.0,0.0,0.0,0.0,0.0,0.0,0.0,0.0,0.0,0.0,0.0,0.0,0.0,0.0,0.0,0.0,0.0,0.0,0.0,0.0,0.0,0.0,0.0,0.0,0.0,0.0,0.0,0.0,0.0,0.0,0.0,0.0,0.0,0.0,0.0,0.0,0.0,0.0,0.0,0.0,0.0,0.0,0.0,0.0,0.0,0.0,0.0,0.0,0.0,0.0,0.0,0.0,0.0,0.0,0.0,0.0,0.0,0.0,0.0,0.0,0.0,0.0,0.0,0.0,0.0,0.0,0.0,0.0,0.0,0.0,0.0,0.0,0.0,0.0,0.0,0.0,0.0,0.0,0.0,0.0,0.0,0.0,0.0,0.0,0.0,0.0,0.0,0.0,0.0,0.0,0.0,0.0,0.0,0.0,0.0,0.0,0.0,0.0,0.0,0.0,0.0,0.0,0.0,0.0,0.0,0.0,0.0,0.0,0.0,0.0,0.0,0.0,0.0,0.0,0.0,0.0,0.0,0.0,0.0,0.0,0.0,0.0,0.0,0.0,0.0,0.0,0.0,0.0,0.0,0.0,0.0,0.0,0.0,0.0,0.0,0.0,0.0,0.0,0.0,0.0,0.0,0.0,0.0,0.0,0.0,0.0,0.0,0.0,0.0,0.0,0.0,0.0,0.0,0.0,0.0,0.0,0.0,0.0,0.0,0.0,0.0,0.0,0.0,0.0,0.0,0.0,0.0,0.0,0.0,0.0,0.0,0.0,0.0,0.0,0.0,0.0,0.0,0.0,0.0,0.0,0.0,0.0,0.0,0.0,0.0,0.0,0.0,0.0,0.0,0.0,0.0,0.0,0.0,0.0,0.0,0.0,0.0,0.0,0.0,0.0,0.0,0.0,0.0,0.0,0.0,0.0,0.0,0.0,0.0,0.0,0.0,0.0,0.0,0.0,0.0,0.0,0.0,0.0,0.0,0.0,0.0,0.0,0.0,0.0,0.0,0.0,0.0,0.0,0.0,0.0,0.0,0.0,0.0,0.0,0.0,0.0,0.0,0.0,0.0,0.0,0.0,0.0,0.0,0.0,0.0,0.0,0.0,0.0,0.0,0.0,0.0,0.0,0.0,0.0,0.0,0.0,0.0,0.0,0.0,0.0,0.0,0.0,0.0,0.0,0.0,0.0,0.0,0.0,0.0,0.0,0.0,0.0,0.0,0.0,0.0,0.0,0.0,0.0,0.0,0.0,0.0,0.0,0.0,0.0,0.0,0.0,0.0,0.0,0.0,0.0,0.0,0.0,0.0,0.0,0.0,0.0,0.0,0.0,0.0,0.0,0.0,0.0,0.0,0.0,0.0,0.0,0.0,0.0,0.0,0.0,0.0,0.0,0.0,0.0,0.0,0.0,0.0,0.0,0.0,0.0,0.0,0.0,0.0,0.0,0.0,0.0,0.0,0.0,0.0,0.0,0.0,0.0,0.0,0.0,0.0,0.0,0.0,0.0,0.0,0.0,0.0,0.0,0.0,0.0,0.0,0.0,0.0,0.0,0.0,0.0,0.0,0.0,0.0,0.0,0.0,0.0,0.0,0.0,0.0,0.0,0.0,0.0,0.0,0.0,0.0,0.0,0.0,0.0,0.0,0.0,0.0,0.0,0.0,0.0,0.0,0.0,0.0,0.0,0.0,0.0,0.0,0.0,0.0,0.0,0.0,0.0,0.0,0.0,0.0,0.0,0.0,0.0,0.0,0.0,0.0,0.0,0.0,0.0,0.0,0.0,0.0,0.0,0.0,0.0,0.0,0.0,0.0,0.0,0.0,0.0,0.0,0.0,0.0,0.0,0.0,0.0,0.0,0.0,0.0,0.0,0.0,0.0,0.0,0.0,0.0,0.0,0.0,0.0,0.0,0.0,0.0,0.0,0.0,0.0,0.0,0.0,0.0,0.0,0.0,0.0,0.0,0.0,0.0,0.0,0.0,0.0,0.0,0.0,0.0,0.0,0.0,0.0,0.0,0.0,0.0,0.0,0.0,0.0,0.0,0.0,0.0,0.0,0.0,0.0,0.0,0.0,0.0,0.0,0.0,0.0,0.0,0.0,0.0,0.0,0.0,0.0,0.0,0.0,0.0,0.0,0.0,0.0,0.0,0.0,0.0,0.0,0.0,0.0,0.0,0.0,0.0,0.0,0.0,0.0,0.0,0.0,0.0,0.0,0.0,0.0,0.0,0.0,0.0,0.0,0.0,0.0,0.0,0.0,0.0,0.0,0.0,0.0,0.0,0.0,0.0,0.0,0.0,0.0,0.0,0.0,0.0,0.0,0.0,0.0,0.0,0.0,0.0,0.0,0.0,0.0,0.0,0.0,0.0,0.0,0.0,0.0,0.0,0.0,0.0,0.0,0.0,0.0,0.0,0.0,0.0,0.0,0.0,0.0,0.0,0.0,0.0,0.0,0.0,0.0,0.0,0.0,0.0,0.0,0.0,0.0,0.0,0.0,0.0,0.0,0.0,0.0,0.0,0.0,0.0,0.0,0.0,0.0,0.0,0.0,0.0,0.0,0.0,0.0,0.0,0.0,0.0,0.0,0.0,0.0,0.0,0.0,0.0,0.0,0.0,0.0,0.0,0.0,0.0,0.0,0.0,0.0,0.0,0.0,0.0,0.0,0.0,0.0,0.0,0.0,0.0,0.0,0.0,0.0,0.0,0.0,0.0,0.0,0.0,0.0,0.0,0.0,0.0,0.0,0.0,0.0,0.0,0.0,0.0,0.0,0.0,0.0,0.0,0.0,0.0,0.0,0.0,0.0,0.0,0.0,0.0,0.0,0.0,0.0,0.0,0.0,0.0,0.0,0.0,0.0,0.0,0.0,0.0,0.0,0.0,0.0,0.0,0.0,0.0,0.0,0.0,0.0,0.0,0.0,0.0,0.0,0.0,0.0,0.0,0.0,0.0,0.0,0.0,0.0,0.0,0.0,0.0,0.0,0.0,0.0,0.0,0.0,0.0,0.0,0.0,0.0,0.0,0.0,0.0,0.0,0.0,0.0,0.0,0.0,0.0,0.0,0.0,0.0,0.0,0.0,0.0,0.0,0.0,0.0,0.0,0.0,0.0,0.0,0.0,0.0,0.0,0.0,0.0,0.0,0.0,0.0,0.0,0.0,0.0,0.0,0.0,0.0,0.0,0.0,0.0,0.0,0.0,0.0,0.0,0.0,0.0,0.0,0.0,0.0,0.0,0.0,0.0,0.0,0.0,0.0,0.0,0.0,0.0,0.0,0.0,0.0,0.0,0.0,0.0,0.0,0.0,0.0,0.0,0.0,0.0,0.0,0.0,0.0,0.0,0.0,0.0,0.0,0.0,0.0,0.0,0.0,0.0,0.0,0.0,0.0,0.0,0.0,0.0,0.0,0.0,0.0,0.0,0.0,0.0,0.0,0.0,0.0,0.0,0.0,0.0,0.0,0.0,0.0,0.0,0.0,0.0,0.0,0.0,0.0,0.0,0.0,0.0,0.0,0.0,0.0,0.0,0.0,0.0,0.0,0.0,0.0,0.0,0.0,0.0,0.0,0.0,0.0,0.0,0.0,0.0,0.0,0.0,0.0,0.0,0.0,0.0,0.0,0.0,0.0,0.0,0.0,0.0,0.0,0.0,0.0,0.0,0.0,0.0,0.0,0.0,0.0,0.0,0.0,0.0,0.0,0.0,0.0,0.0,0.0,0.0,0.0,0.0,0.0,0.0,0.0,0.0,0.0,0.0,0.0,0.0,0.0,0.0,0.0,0.0,0.0,0.0,0.0,0.0,0.0,0.0,0.0,0.0,0.0,0.0,0.0,0.0,0.0,0.0,0.0,0.0,0.0,0.0,0.0,0.0,0.0,0.0,0.0,0.0,0.0,0.0,0.0,0.0,0.0,0.0,0.0,0.0,0.0,0.0,0.0,0.0,0.0,0.0,0.0,0.0,0.0,0.0,0.0,0.0,0.0,0.0,0.0,0.0,0.0,0.0,0.0,0.0,0.0,0.0,0.0,0.0,0.0,0.0,0.0,0.0,0.0,0.0,0.0,0.0,0.0,0.0,0.0,0.0,0.0,0.0,0.0,0.0,0.0,0.0,0.0,0.0,0.0,0.0,0.0,0.0,0.0,0.0,0.0,0.0,0.0,0.0,0.0,0.0,0.0,0.0,0.0,0.0,0.0,0.0,0.0,0.0,0.0,0.0,0.0,0.0,0.0,0.0,0.0,0.0,0.0,0.0,0.0,0.0,0.0,0.0,0.0,0.0,0.0,0.0,0.0,0.0,0.0,0.0,0.0,0.0,0.0,0.0,0.0,0.0,0.0,0.0,0.0,0.0,0.0,0.0,0.0,0.0,0.0,0.0,0.0,0.0,0.0,0.0,0.0,0.0,0.0,0.0,0.0,0.0,0.0,0.0,0.0,0.0,0.0,0.0,0.0,0.0,0.0,0.0,0.0,0.0,0.0,0.0,0.0,0.0,0.0,0.0,0.0,0.0,0.0,0.0,0.0,0.0,0.0,0.0,0.0,0.0,0.0,0.0,0.0,0.0,0.0,0.0,0.0,0.0,0.0,0.0,0.0,0.0,0.0,0.0,0.0,0.0,0.0,0.0,0.0,0.0,0.0,0.0,0.0,0.0,0.0,0.0,0.0,0.0,0.0,0.0,0.0,0.0,0.0,0.0,0.0,0.0,0.0,0.0,0.0,0.0,0.0,0.0,0.0,0.0,0.0,0.0,0.0,0.0,0.0,0.0,0.0,0.0,0.0,0.0,0.0,0.0,0.0,0.0,0.0,0.0,0.0,0.0,0.0,0.0,0.0,0.0,0.0,0.0,0.0,0.0,0.0,0.0,0.0,0.0,0.0,0.0,0.0,0.0,0.0,0.0,0.0,0.0,0.0,0.0,0.0,0.0,0.0,0.0,0.0,0.0,0.0,0.0,0.0,0.0,0.0,0.0,0.0,0.0,0.0,0.0,0.0,0.0,0.0,0.0,0.0,0.0,0.0,0.0,0.0,0.0,0.0,0.0,0.0,0.0,0.0,0.0,0.0,0.0,0.0,0.0,0.0,0.0,0.0,0.0,0.0,0.0,0.0,0.0,0.0,0.0,0.0,0.0,0.0,0.0,0.0,0.0,0.0,0.0,0.0,0.0,0.0,0.0,0.0,0.0,0.0,0.0,0.0,0.0,0.0,0.0,0.0,0.0,0.0,0.0,0.0,0.0,0.0,0.0,0.0,0.0,0.0,0.0,0.0,0.0,0.0,0.0,0.0,0.0,0.0,0.0,0.0,0.0,0.0,0.0,0.0,0.0,0.0,0.0,0.0,0.0,0.0,0.0,0.0,0.0,0.0,0.0,0.0,0.0,0.0,0.0,0.0,0.0,0.0,0.0,0.0,0.0,0.0,0.0,0.0,0.0,0.0,0.0,0.0,0.0,0.0,0.0,0.0,0.0,0.0,0.0,0.0,0.0,0.0,0.0,0.0,0.0,0.0,0.0,0.0,0.0,0.0,0.0,0.0,0.0,0.0,0.0,0.0,0.0,0.0,0.0,0.0,0.0,0.0,0.0,0.0,0.0,0.0,0.0,0.0,0.0,0.0,0.0,0.0,1.2745,1.2291,0.0,0.0,0.0,0.0,0.0,0.0,0.0,0.0,0.0,0.0,0.0,0.0,0.0,0.0,0.0,0.0,0.0,0.0,0.0,0.0,0.0,0.0,0.0,1.9452,1.9973,2.0401,2.0441,2.0508,2.061,2.0624,2.0557,2.0454,2.0307,2.008,1.9786,1.9492,1.9412,1.9575,1.9412,1.9412,1.9562,1.9052,1.837,1.7555,0.0,0.0,0.0,0.0,0.0,0.0,0.0,0.0,0.0,0.0,0.0,0.0,0.0,0.0,0.0,0.0,0.0,0.0,0.0,0.0,0.0,0.0,0.0,0.0,0.0,0.0,0.0,0.0,0.0,0.0,0.0,0.0,0.0,0.0,0.0,0.0,0.0,0.0,0.0,0.0,0.0,0.0,0.0,0.0,0.0,0.0,0.0,0.0,0.0,0.0,0.0,0.0,0.0,0.0,0.0,0.0,0.0,0.0,0.0,0.0,0.0,0.0,0.0,0.0,0.0,0.0,0.0,0.0,0.0,0.0,1.2736,1.3492,0.0,0.0,0.0,0.0,0.0,0.0,0.0,0.0,0.0,0.0,0.0,0.0,0.0,0.0,0.0,0.0,0.0,0.0,0.0,0.0,0.0,1.7996,1.8905,1.9533,2.0134,2.0806,2.0806,2.0882,2.1162,2.1136,2.1002,2.0793,2.0779,2.0615,2.029,2.012,2.0267,2.0779,2.0468,2.0641,2.1261,2.1456,2.0802,1.9386,1.8689,0.0,0.0,0.0,0.0,0.0,0.0,0.0,0.0,0.0,0.0,0.0,0.0,0.0,0.0,0.0,0.0,0.0,0.0,0.0,0.0,0.0,0.0,0.0,0.0,0.0,0.0,0.0,0.0,0.0,0.0,0.0,0.0,0.0,0.0,0.0,0.0,0.0,0.0,0.0,0.0,0.0,0.0,0.0,0.0,0.0,0.0,0.0,0.0,0.0,0.0,0.0,0.0,0.0,0.0,0.0,0.0,0.0,0.0,0.0,0.0,0.0,0.0,0.0,0.6475,0.6653,0.7307,0.6733,0.6838,0.7788,1.1616,1.342,1.3562,1.2617,0.0,0.0,0.0,0.0,0.0,0.0,0.0,0.0,0.0,0.0,0.0,0.0,0.0,0.0,0.0,0.0,0.0,0.0,0.0,1.8303,1.9241,1.9826,2.0521,2.1395,2.1234,2.1176,2.1502,2.1256,2.1096,2.1056,2.1056,2.0922,2.0628,2.0828,2.0975,2.1056,2.2037,2.28,2.3402,2.3442,2.3335,2.3014,2.0851,2.017,2.0521,0.0,0.0,0.0,0.0,0.0,0.0,0.0,0.0,0.0,0.0,0.0,0.0,0.0,0.0,0.0,0.0,0.0,0.0,0.0,0.0,0.0,0.0,0.0,0.0,0.0,0.0,0.0,0.0,0.0,0.0,0.0,0.0,0.0,0.0,0.0,0.0,0.0,0.0,0.0,0.0,0.0,1.2101,1.034,0.0,0.0,0.0,0.0,0.0,0.0,0.0,0.0,0.0,0.0,0.0,0.0,0.0,0.6704,0.6933,0.7379,0.7596,0.7686,0.7996,0.8213,0.8331,0.8228,0.8234,0.8397,0.9006,0.0,0.8135,0.7735,0.0,0.0,0.0,0.0,0.0,0.0,0.0,0.0,0.0,0.0,0.0,0.0,0.0,0.0,0.0,0.0,0.0,0.0,0.0,0.0,0.0,2.0521,2.1256,2.1977,2.2231,2.2191,2.185,2.183,2.163,2.1136,2.1109,2.1122,2.1194,2.1617,2.2258,2.3052,2.4102,2.478,2.5034,2.5208,2.5237,2.517,2.3634,2.2458,2.1496,1.9903,0.0,0.0,0.0,0.0,0.0,0.0,0.0,0.0,0.0,0.0,0.0,0.0,0.0,0.0,0.0,0.0,0.0,0.0,0.0,0.0,0.0,0.0,0.0,0.0,0.0,0.0,0.0,0.0,0.0,0.0,0.0,0.0,0.0,0.0,0.0,0.0,0.0,0.0,0.0,0.9657,0.9149,0.8283,0.8867,0.8497,0.0,0.0,0.0,0.0,0.0,0.0,0.0,0.0,0.0,-0.0969,-0.2309,-0.3029,-0.2918,-0.2614,-0.2528,-0.261,-0.2336,-0.2239,-0.2318,-0.2186,-0.2182,-0.218,-0.2032,-0.215,-0.2003,0.4528,0.699,0.6591,0.0,0.0,0.0,0.0,0.5423,0.426,0.0,0.0,0.0,0.0,0.0,0.0,0.0,0.0,0.0,0.0,0.0,0.0,2.0441,2.1229,2.2024,2.2806,2.2654,2.2289,2.1739,2.1188,2.058,1.9978,2.0247,2.0631,2.1013,2.2289,2.3639,2.5053,2.5892,2.6372,2.6453,2.6627,2.668,2.6587,2.5932,2.474,2.3006,2.1456,2.0264,1.9399,0.0,0.0,0.0,0.0,0.0,0.0,0.0,0.0,0.0,0.0,0.0,0.0,0.0,0.0,0.0,0.0,0.0,0.0,0.0,0.0,0.0,0.0,0.0,0.0,0.0,0.0,0.0,0.0,0.0,0.0,0.0,0.0,0.0,0.0,0.0,0.0,0.0,0.6813,0.553,0.5258,0.4673,0.3875,0.0,0.0,0.0,0.0,0.0,0.0,-0.1397,-0.5441,-0.7838,-0.799,-0.9847,-1.0817,-1.0848,-1.0699,-1.0655,-1.0767,-1.0623,-1.0606,-1.0723,-1.0596,-1.0557,-1.0469,-1.0297,-1.0135,-0.9331,-0.0502,0.2989,0.2821,0.3372,0.3499,0.3581,0.4698,0.3933,0.2261,0.0,0.0,0.0,0.0,0.0,0.0,0.0,0.0,0.0,0.0,0.0,1.991,2.1355,2.181,2.2539,2.3995,2.1877,2.0603,2.0927,1.8282,1.6739,1.6819,1.8004,1.8909,1.9518,2.2769,2.5104,2.6306,2.6948,2.7335,2.7615,2.7629,2.7482,2.7255,2.7215,2.6827,2.5999,2.3407,2.2271,2.2011,2.0084,0.0,0.0,0.0,0.0,0.0,0.0,0.0,0.0,0.0,0.0,0.0,0.0,0.0,0.0,0.0,0.0,0.0,0.0,0.0,0.0,0.0,0.0,0.0,0.0,0.0,0.0,0.0,0.0,0.0,0.0,0.0,0.0,0.0,0.0,0.0,0.0,0.0,0.0,0.0886,-0.0765,0.0,0.0,0.0,0.0,-0.8832,-0.9411,-0.9824,-1.0055,-1.049,-1.0775,-1.0963,-1.1129,-1.1149,-1.1168,-1.0973,-1.088,-1.0887,-1.0752,-1.0712,-1.0723,-1.0659,-1.0613,-1.0476,-1.0469,-1.0315,-1.0003,-0.9226,-0.8928,-0.8657,-0.5549,-0.4311,-0.3974,-0.0818,0.0276,-0.0276,0.0,0.0,0.0,0.0,0.0,1.6246,1.6647,1.6253,1.6609,1.8511,1.8886,1.977,2.1892,2.306,2.4062,2.497,2.3065,2.1758,2.1493,1.8913,1.7317,1.7184,1.7301,1.872,2.1606,2.4508,2.6627,2.7816,2.8217,2.8457,2.8521,2.8521,2.8511,2.839,2.8045,2.7871,2.7655,2.5184,2.3688,2.2825,2.1162,2.0,0.0,0.0,0.0,0.0,0.0,0.0,0.0,0.0,0.0,0.0,0.0,0.0,0.0,0.0,0.0,0.0,0.0,0.0,0.0,0.0,0.0,0.0,0.0,0.0,0.0,0.0,0.0,0.0,0.0,0.0,0.0,0.0,0.0,0.0,0.0,0.0,0.0,-0.6252,-0.6958,0.0,-0.9455,-0.9219,-0.9343,-1.0197,-1.2524,-1.3973,-1.4187,-1.6376,-1.7736,-1.7917,-1.8055,-1.8074,-1.812,-1.7933,-1.7916,-1.799,-1.7859,-1.7842,-1.7916,-1.7842,-1.7674,-1.7527,-1.7224,-1.7021,-1.6766,-1.6549,-1.3808,-0.9711,-0.8536,-0.8064,-0.7885,-0.6753,-0.6285,-0.6484,0.0,0.0,0.0,0.0,1.6072,1.6219,1.6022,1.5668,1.6168,1.8189,1.8747,1.9993,2.2728,2.4075,2.4752,2.4777,2.2882,2.1248,2.0274,1.7597,1.6066,1.5998,1.635,1.8126,2.1589,2.3769,2.5373,2.6402,2.6714,2.6848,2.6848,2.675,2.6709,2.6599,2.6191,2.6032,2.6075,2.5344,2.4777,2.4235,2.2859,2.1918,2.1219,0.0,0.0,0.0,0.0,0.0,0.0,0.0,0.0,0.0,0.0,0.0,0.0,0.0,0.0,0.0,0.0,0.0,0.0,0.0,0.0,0.0,0.0,0.0,0.0,0.0,0.0,0.0,0.0,0.0,0.0,0.0,0.0,0.0,0.0,-0.9364,-1.124,-1.1416,-1.2747,-1.3533,-1.328,-1.3595,-1.3916,-1.3986,-1.632,-1.7843,-1.807,-2.0332,-2.174,-2.1903,-2.1991,-2.2038,-2.2038,-2.1903,-2.1862,-2.195,-2.1815,-2.1794,-2.1882,-2.174,-2.1584,-2.1355,-2.1068,-2.077,-2.0462,-2.0329,-1.7485,-1.309,-1.2001,-1.1517,-1.1314,-1.0186,-0.9784,-0.9903,0.0,0.0,0.0,1.5821,1.6037,1.5888,1.4788,1.5283,1.6218,1.747,1.8576,2.05,2.3773,2.4608,2.4483,2.3405,2.1045,1.8894,1.7222,1.4233,1.2651,1.3009,1.4978,1.7066,1.9153,2.0396,2.1383,2.2116,2.2473,2.263,2.262,2.239,2.218,2.1925,2.1786,2.1565,2.1409,2.3806,2.5383,2.6175,2.5095,2.4306,2.339,0.0,0.0,0.0,0.0,0.0,0.0,0.0,0.0,0.0,0.0,0.0,0.0,0.0,0.0,0.0,0.0,0.0,0.0,0.0,0.0,0.0,0.0,0.0,0.0,0.0,0.0,0.0,0.0,0.0,0.0,0.0,0.0,0.0,-1.0174,-1.2604,-1.4746,-1.4352,-1.7777,-1.9854,-1.9128,-1.9976,-2.0627,-2.079,-2.1211,-2.1584,-2.1882,-2.2038,-2.2181,-2.2268,-2.2268,-2.2268,-2.2268,-2.2201,-2.2113,-2.2113,-2.1971,-2.1903,-2.1903,-2.176,-2.1597,-2.1441,-2.1299,-2.0967,-2.0496,-2.0496,-2.0295,-1.9574,-1.6401,-1.5027,-1.4481,-1.1299,-1.0079,-1.0527,0.0,0.0,1.5875,1.6112,1.5505,1.5011,1.5048,1.3849,1.4232,1.7906,1.7151,1.7852,2.1997,2.1779,2.1282,2.1144,1.8868,1.7407,1.7264,1.4345,1.2901,1.3424,1.5996,1.7993,1.9083,2.1132,2.2364,2.2749,2.3016,2.3094,2.2886,2.2826,2.2766,2.2696,2.2476,2.2346,2.2393,2.2622,2.2924,2.3455,2.52,2.474,2.2782,0.0,0.0,0.0,0.0,0.0,0.0,0.0,0.0,0.0,0.0,0.0,0.0,0.0,0.0,0.0,0.0,0.0,0.0,0.0,0.0,0.0,0.0,0.0,0.0,0.0,0.0,0.0,0.0,0.0,0.0,0.0,-1.673,-1.7402,-1.6113,-1.7412,-1.8565,-1.8914,-2.0121,-2.0878,-2.077,-2.1123,-2.1374,-2.1421,-2.174,-2.1971,-2.2038,-2.2201,-2.2234,-2.2268,-2.2268,-2.2268,-2.2268,-2.2234,-2.2269,-2.2269,-2.2235,-2.2215,-2.2215,-2.2181,-2.2004,-2.176,-2.1597,-2.1353,-2.1014,-2.079,-2.058,-2.0203,-1.8993,-1.8474,-1.8239,-1.7319,-1.6865,-1.6857,0.0,1.6019,1.6112,1.6406,1.553,1.4679,1.4335,1.2964,1.3083,1.6237,1.5775,1.6582,2.0216,2.0199,1.9631,1.8941,1.749,1.6369,1.5781,1.4199,1.3505,1.398,1.5793,1.7049,1.7553,1.9025,1.9902,2.0101,2.0253,2.0253,2.0092,2.0062,2.0019,2.0019,1.9781,1.9695,1.9819,2.0518,2.0834,2.1079,2.3671,2.3679,2.1897,1.9818,1.9354,1.9511,1.7068,1.7104,1.8117,1.7117,0.0,0.0,0.0,0.0,0.0,0.0,0.0,0.0,0.0,0.0,0.0,0.0,0.0,0.0,0.0,0.0,0.0,0.0,0.0,0.0,0.0,0.0,0.0,0.0,-1.8301,-1.9081,-1.9434,-1.982,-2.0315,-2.0967,-2.1211,-2.1387,-2.1597,-2.176,-2.1848,-2.1848,-2.2072,-2.2201,-2.2201,-2.2344,-2.2391,-2.2268,-2.2391,-2.2391,-2.2268,-2.2268,-2.2268,-2.2268,-2.2268,-2.2268,-2.2268,-2.2269,-2.2113,-2.1882,-2.1794,-2.1462,-2.1109,-2.0933,-2.0702,-2.0374,0.0,0.0,0.0,0.0,-1.961,-1.9522,0.0,1.6297,1.6404,1.67,1.577,1.4535,1.3284,1.2457,1.2437,1.3754,1.452,1.5898,1.8427,1.8954,1.8428,1.6651,1.6361,1.5539,1.38,1.4021,1.4319,1.4604,1.5025,1.533,1.5486,1.5813,1.601,1.6083,1.6117,1.6123,1.6103,1.6037,1.5969,1.5949,1.5771,1.5648,1.5759,1.7991,1.8837,1.8892,2.076,2.1361,2.0798,1.8047,1.7951,1.8783,1.4664,1.4849,1.6805,1.524,0.0,0.0,0.0,0.0,0.0,0.0,0.0,0.0,0.0,0.0,0.0,0.0,0.0,0.0,0.0,0.0,0.0,0.0,0.0,0.0,0.0,0.0,0.0,0.0,-1.9488,-2.0173,-2.077,-2.0614,-2.0702,-2.1321,-2.1496,-2.1564,-2.1903,-2.2059,-2.2127,-2.2127,-2.22,-2.2268,-2.2268,-2.2466,0.0,0.0,0.0,-2.2466,-2.2268,-2.2268,-2.2268,-2.2268,-2.2268,-2.2268,-2.2268,-2.2201,-2.2059,-2.1903,-2.176,-2.1462,-2.1068,-2.1034,-2.077,-2.032,-2.0329,-2.0119,-1.9916,-1.9793,-1.9739,-1.9644,0.0,1.6297,1.6471,1.7018,1.5065,1.3501,1.3697,1.1853,1.1436,1.4328,1.3551,1.3748,1.6446,1.5472,1.4463,1.3958,1.4181,1.4342,1.4312,1.4733,1.5045,1.5228,1.5547,1.5847,1.5947,1.613,1.6178,1.6083,1.632,1.6374,1.6266,1.6354,1.6334,1.6218,1.6191,1.6042,1.586,1.6342,1.6445,1.6303,1.6748,1.7788,1.9029,1.8133,1.7945,1.7947,1.6684,1.6683,1.717,1.6718,1.5322,1.3433,1.1491,1.0586,0.0,0.0,0.0,0.0,0.0,0.0,0.0,0.0,0.0,0.0,0.0,0.0,0.0,0.0,0.0,0.0,0.0,0.0,0.0,-1.9203,-2.0031,-2.077,-2.1245,-2.1199,-2.1319,-2.1597,-2.1828,-2.2059,-2.2235,-2.2269,-2.2289,-2.2289,-2.2323,-2.2268,-2.2268,-2.2357,-2.2308,-2.2268,-2.2308,-2.2308,-2.2268,-2.2268,-2.2268,-2.2268,-2.2268,0.0,-2.2268,-2.2303,-2.2215,-2.2059,-2.1903,-2.1726,-2.153,-2.1265,-2.098,-2.0648,-2.0295,-2.0031,-1.9875,-1.9902,-1.9766,-1.9664,1.6672,1.6764,1.6926,1.7488,1.5228,1.3527,1.4073,1.1876,1.0869,1.2877,1.2438,1.2527,1.406,1.3479,1.2861,1.2676,1.3098,1.3688,1.436,1.4828,1.5242,1.5615,1.5845,1.6042,1.6191,1.6273,1.6307,1.63,1.6449,1.6483,1.6364,1.5041,1.4365,1.4255,1.2767,1.209,1.1929,1.1924,1.1838,1.1683,1.1677,1.2315,1.3305,1.4314,1.4631,1.4309,1.2654,1.2117,1.2102,1.2014,1.1036,0.9648,0.8412,0.7738,0.7103,0.0,0.0,0.0,0.0,0.0,0.0,0.0,0.0,0.0,0.0,0.0,0.0,0.0,0.0,-1.7073,-1.7738,0.0,-1.9522,-2.0119,-2.0716,-2.1211,-2.1509,-2.1686,-2.1808,-2.1882,-2.2025,-2.216,-2.2323,-2.2268,-2.2268,-2.2268,-2.2268,-2.2308,-2.2445,-2.252,-2.2534,-2.2445,-2.252,-2.2479,-2.2268,-2.2268,-2.2268,-2.2268,-2.2268,-2.2268,-2.2268,-2.2268,-2.2249,-2.2113,-2.2025,-2.1828,-2.153,-2.1143,-2.0912,-2.08,-2.0438,-2.0227,-2.0085,-1.9929,-1.9882,-1.9814,1.7166,1.7314,1.7396,1.7525,1.5428,1.3768,1.3925,1.1883,1.0574,1.1253,1.1579,1.185,1.2128,1.2311,1.2213,1.1706,1.1798,1.241,1.3738,1.4224,1.4901,1.592,1.609,1.5968,1.5525,1.5557,1.5354,1.4867,1.4916,1.4928,1.4853,1.2621,1.1541,1.1414,0.9084,0.8041,0.8022,0.7987,0.7914,0.7854,0.7828,0.7847,0.7985,0.9419,1.0224,1.0253,0.8004,0.7095,0.701,0.6977,0.6835,0.6523,0.5955,0.5271,0.454,0.395,0.0885,0.0,0.0,0.0,0.0,0.0,0.0,0.0,0.0,-1.4509,-1.6117,-1.7167,-1.7772,-1.8366,-1.9271,-1.982,-2.0349,-2.098,-2.1333,-2.1584,-2.174,-2.195,-2.2127,-2.2147,-2.216,-2.2201,-2.2323,-2.2268,-2.2288,-2.2378,-2.2378,-2.2445,-2.2658,-2.271,-2.273,-2.2608,-2.2696,-2.2622,-2.2378,-2.2288,-2.2268,-2.2268,-2.2268,-2.2268,-2.2268,-2.2268,-2.2269,-2.2147,-2.2093,-2.1828,-2.1341,-2.098,-2.0824,-2.079,-2.0614,-2.0408,-2.0329,-2.0031,-1.9888,-1.9854,0.0,1.7756,1.7498,1.6193,1.4703,1.3413,1.2582,1.122,1.0533,1.1145,1.1335,1.1504,1.1674,1.1945,1.1574,1.0197,0.8664,0.9004,1.1897,1.2293,1.3566,1.6145,1.6395,1.529,1.2779,1.2885,1.1597,0.8936,0.9233,0.9319,0.9195,0.9027,0.8844,0.8724,0.8407,0.8163,0.7993,0.801,0.7995,0.7981,0.7958,0.7978,0.7724,0.5609,0.6214,0.8103,0.768,0.7447,0.7364,0.7339,0.7222,0.6656,0.4553,0.2326,0.0044,-0.2115,-0.4609,-0.6763,-0.7092,-0.9095,-1.1709,-1.4488,-1.5191,-1.5734,0.0,-1.8232,-1.8375,-1.9228,-1.9712,-2.0002,-2.0124,-2.0682,-2.1143,-2.1353,-2.1638,-2.1882,-2.2038,-2.2093,-2.216,-2.2234,-2.2254,-2.2254,-2.2268,-2.2268,-2.2391,-2.252,-2.2534,-2.2658,-2.2744,-2.2764,-2.2784,-2.2764,-2.2712,-2.2567,-2.2534,-2.2411,-2.2268,-2.2268,-2.2268,-2.2268,-2.2268,-2.2268,-2.2323,-2.2234,-2.2025,-2.1726,-2.1355,-2.1109,-2.098,-2.0946,-2.0648,-2.0462,-2.0422,-2.0187,-1.9997,-1.9854,0.0,1.6984,1.6198,1.4776,1.4218,1.3635,1.2625,1.1232,1.0466,1.0968,1.1165,1.1253,1.1198,1.0306,0.9102,0.7612,0.705,0.7399,0.8976,0.9413,1.0181,1.1397,1.15,1.1064,0.9987,1.0024,0.9479,0.8287,0.8457,0.847,0.8387,0.6738,0.5961,0.5832,0.4177,0.3422,0.3354,0.3347,0.3322,0.337,0.332,0.3352,0.3246,0.2109,0.1534,0.1509,0.2757,0.2232,0.0,0.1105,0.0091,-0.1316,-0.2222,-0.324,-0.4325,-0.5523,-0.7714,-1.0201,-1.2262,-1.3758,-1.5068,-1.6292,-1.71,-1.7806,-1.862,-1.8938,-1.9237,-1.9908,-2.0329,-2.0668,-2.0926,-2.1102,-2.1319,-2.1652,-2.1794,-2.1903,-2.1971,-2.1971,-2.1937,-2.1761,-2.1896,-2.2059,-2.2254,-2.2268,-2.2391,-2.2603,-2.2624,-2.2656,-2.2907,-2.292,-2.292,-2.292,-2.2764,-2.2712,-2.2624,-2.2411,-2.2268,-2.2268,-2.2268,-2.2268,-2.2268,-2.2268,-2.2289,-2.2201,-2.1971,-2.176,-2.155,-2.1245,-2.1068,-2.098,-2.0756,-2.0614,-2.0442,-2.0207,-2.0064,-1.9976,0.0,1.5618,1.4765,1.3403,1.3442,1.3253,1.2125,1.1002,1.0412,1.0738,1.0948,1.0825,1.0179,0.7981,0.6119,0.5036,0.4797,0.514,0.6177,0.6603,0.7169,0.8062,0.813,0.7851,0.7171,0.7191,0.6855,0.6157,0.6172,0.6179,0.6129,0.3994,0.304,0.2932,0.0924,0.0,0.0,0.0,-0.0421,-0.1098,-0.1081,-0.1532,-0.2134,-0.1393,-0.2099,-0.317,-0.0864,-0.1883,-0.4304,-0.3519,-0.4913,-0.6974,-0.6848,-0.7325,-0.8012,-0.8442,-1.0478,-1.3138,-1.5556,-1.6619,-1.7114,-1.7304,-1.8179,-1.8993,-1.9027,-1.9434,-1.9942,-2.0471,-2.0736,-2.1001,-2.1367,-2.1353,-2.1408,-2.1815,-2.1882,-2.1903,-2.1937,-2.1848,-2.1686,-2.1455,-2.1496,-2.1686,-2.199,-2.2201,-2.2357,-2.2603,-2.2624,-2.2676,-2.294,-2.2995,-2.2995,-2.294,-2.2832,-2.271,-2.2624,-2.2411,-2.2268,-2.2268,-2.2268,-2.2268,-2.2268,-2.2268,-2.2249,-2.2113,-2.195,-2.1794,-2.1652,-2.1333,-2.1123,-2.098,-2.0824,-2.0682,-2.0442,-2.0261,-2.0139,-2.0064,0.0,0.0,1.3508,1.21,1.2082,1.1762,1.0304,1.0213,1.0337,1.0487,1.0636,1.0027,0.8268,0.4958,0.2834,0.2812,0.1188,0.131,0.3934,0.4219,0.5476,0.8188,0.8407,0.7171,0.4405,0.4338,0.2977,0.0266,0.0269,0.027,0.027,0.0165,0.0111,0.0111,0.0055,0.0,0.0,0.0,-0.1475,-0.3879,-0.3893,-0.5427,-0.7471,-0.4879,-0.3935,-0.3611,-0.0943,-0.2773,-0.6033,-0.3691,-0.4602,-0.6692,-0.6542,-0.8389,-1.069,-1.1306,-1.3487,-1.5783,-1.5908,-1.6357,-1.7065,-1.8023,-1.864,-1.9217,-2.0023,-2.0505,-2.0824,-2.1123,-2.1197,-2.1245,-2.1341,-2.1375,-2.153,-2.1828,-2.1882,-2.1937,-2.2079,-2.172,-2.1389,-2.1375,-2.1319,-2.1285,-2.1389,-2.1862,-2.2235,-2.2603,-2.2624,-2.2692,-2.2784,-2.292,-2.294,-2.2798,-2.2784,-2.271,-2.2624,-2.2411,-2.2268,-2.2268,-2.2268,-2.2268,-2.2268,-2.2268,-2.2249,-2.2113,-2.195,-2.1794,-2.1652,-2.1333,-2.1123,-2.098,-2.0824,-2.0682,-2.0462,-2.032,-2.0227,-2.0064,0.0,0.0,0.0,1.1846,1.1144,1.0472,1.0056,1.0181,1.0363,1.0473,1.0677,0.0,0.0,0.0,0.0,0.0,0.0344,0.0365,0.1285,0.1378,0.1837,0.2742,0.2855,0.2431,0.1459,0.141,0.0945,0.0,0.0,0.0,-0.0054,-0.1894,-0.2774,-0.2882,-0.4779,-0.5636,-0.5616,-0.5656,-0.6137,-0.6982,-0.6734,-0.6157,-0.5367,-0.4264,-0.3723,-0.3244,0.0,-0.2797,-0.6361,-0.5552,-0.7821,-1.1029,-1.1073,-1.1719,-1.2687,-1.3594,-1.4837,-1.603,-1.6629,-1.7453,-1.8255,-1.8654,-1.9468,-2.0207,-2.0246,-2.0627,-2.0892,-2.079,-2.0845,-2.0933,-2.098,-2.0912,-2.1034,-2.1638,-2.1652,-2.1672,-2.1916,-2.1828,-2.1509,-2.0912,-2.1055,-2.1157,-2.1021,-2.1496,-2.1991,-2.2378,-2.2411,-2.252,-2.2764,-2.2832,-2.2886,-2.294,-2.273,-2.2656,-2.271,-2.2466,-2.2268,-2.2268,-2.2268,-2.2268,-2.2268,-2.2268,-2.2201,-2.1971,-2.2004,-2.1828,-2.1509,-2.1509,-2.1374,-2.1123,-2.098,-2.0824,-2.0668,-2.0417,-2.0227,-2.0064,0.0,0.0,0.0,0.0,0.0,0.0,0.0,0.0,0.0,0.0,0.0,0.0,0.0,0.0,0.0,0.0,0.0,0.0,0.0,0.0,0.0,0.0,0.0,0.0,0.0,0.0,0.0,0.0,0.0,-0.0469,-0.1424,-0.2295,-0.3699,-0.5623,-0.6479,-0.7426,-0.8306,-0.8309,-0.8888,-0.9752,-0.9424,-0.8858,-0.8054,-0.596,-0.5027,0.0,-0.1999,-0.3401,-0.6407,-0.6351,-0.9332,-1.3166,-1.3275,-1.3688,-1.4265,-1.4997,-1.5669,-1.6395,-1.7399,-1.8199,-1.8943,-1.9413,-2.0119,-2.0668,-2.0594,-2.0702,-2.077,-2.0462,-2.0417,-2.0363,-2.0295,-2.0173,-2.0329,-2.1143,-2.1231,-2.1353,-2.1815,-2.174,-2.1421,-2.0845,-2.098,-2.1089,-2.0946,-2.1333,-2.1774,-2.2215,-2.2303,-2.2356,-2.2608,-2.2676,-2.273,-2.2764,-2.2622,-2.2644,-2.2622,-2.2425,-2.2268,-2.2268,-2.2268,-2.2268,-2.2268,-2.2268,-2.2235,-2.2038,-2.2038,-2.1862,-2.1597,-2.1597,-2.1441,-2.1197,-2.1055,-2.0912,-2.08,-2.0492,-2.0275,-2.0085,0.0,0.0,0.0,0.0,0.0,0.0,0.0,0.0,0.0,0.0,0.0,0.0,0.0,0.0,0.0,0.0,0.0,0.0,0.0,0.0,0.0,0.0,0.0,0.0,0.0,0.0,0.0,0.0,-0.01,-0.1473,-0.3922,-0.163,-0.3282,-0.8081,-0.5659,-0.6,-0.8403,-0.8403,-0.9914,-1.2266,-1.1892,-1.3214,-1.478,-0.9562,-0.7547,-0.7156,-0.4196,-0.4545,-0.6441,-0.6273,-0.9287,-1.3132,-1.3275,-1.4272,-1.5479,-1.5607,-1.6182,-1.702,-1.8233,-1.8708,-1.9115,-2.0241,-2.0539,-2.0627,-2.0912,-2.0716,-2.0388,-2.0275,-1.9908,-1.9535,-1.9345,-1.9237,-1.9468,-2.0286,-2.0648,-2.11,-2.1774,-2.153,-2.1265,-2.1231,-2.1123,-2.1089,-2.1211,-2.1367,-2.1631,-2.2079,-2.2235,-2.2323,-2.2268,-2.2466,-2.2479,-2.2288,-2.2479,-2.2479,-2.2288,-2.2337,-2.2268,-2.2268,-2.2268,-2.2268,-2.2268,-2.2268,-2.2268,-2.2303,-2.2025,-2.1882,-2.1848,-2.1564,-2.1353,-2.1197,-2.1055,-2.0912,-2.0756,-2.0594,-2.0349,-2.0085,0.0,0.0,0.0,0.0,0.0,0.0,0.0,0.0,0.0,0.0,0.0,0.0,0.0,0.0,0.0,0.0,0.0,0.0,0.0,0.0,0.0,0.0,0.0,0.0,0.0,0.0,0.0,0.0,-0.1805,-0.3044,-0.3775,-0.6973,-0.9227,-1.0573,-1.2026,-1.3007,-1.3676,-1.3676,-1.403,-1.4532,-1.426,-1.341,-1.1939,-0.8551,-0.7173,-0.6748,-0.4183,-0.5691,-0.8939,-0.914,-1.1571,-1.4527,-1.467,-1.5242,-1.6008,-1.6497,-1.7168,-1.7914,-1.8674,-1.9468,-2.0139,-2.0329,-2.0627,-2.0824,-2.056,-2.0187,-1.9752,-1.9257,-1.8905,-1.8477,-1.788,-1.8375,-1.9061,-1.9624,-2.0404,-2.1157,-2.1794,-2.1984,-2.1882,-2.1375,-2.155,-2.1584,-2.1341,-2.1618,-2.1862,-2.2093,-2.2038,-2.2093,-2.2323,-2.2378,-2.2432,-2.25,-2.2432,-2.2432,-2.25,-2.2391,-2.2268,-2.2268,-2.2268,-2.2268,-2.2268,-2.2268,-2.2269,-2.216,-2.2093,-2.1937,-2.1726,-2.1638,-2.1462,-2.1197,-2.1055,-2.0912,-2.0756,-2.0594,-2.0349,-2.0098,0.0,0.0,0.0,0.0,0.0,0.0,0.0,0.0,0.0,0.0,0.0,0.0,0.0,0.0,0.0,0.0,0.0,0.0,0.0,0.0,0.0,0.0,0.0,0.0,0.0,0.0,0.0,0.0,-0.1336,-0.2603,-0.3816,-0.6518,-0.9034,-1.1392,-1.2713,-1.3946,-1.51,-1.51,-1.5086,0.0,0.0,-1.3931,-1.2255,-0.8539,-0.7666,-0.8168,-0.5604,-0.782,-1.2026,-1.2563,-1.3879,-1.5323,-1.5662,-1.6185,-1.6802,-1.7467,-1.8091,-1.8728,-1.9393,-2.0153,-2.0716,-2.0648,-2.077,-2.0736,-2.0085,-1.9644,-1.9154,-1.8179,-1.7846,-1.75,-1.6748,-1.7467,-1.8342,-1.8864,-1.9997,-2.1034,-2.1686,-2.2038,-2.2113,-2.1774,-2.1882,-2.1916,-2.176,-2.1882,-2.2038,-2.2201,-2.2127,-2.216,-2.2323,-2.2268,-2.2378,-2.2466,-2.2378,-2.2378,-2.2466,-2.2378,-2.2268,-2.2268,-2.2268,-2.2268,-2.2268,-2.2268,-2.2289,-2.2201,-2.2072,-2.1916,-2.176,-2.1618,-2.1421,-2.1197,-2.1055,-2.0912,-2.0756,-2.0594,-2.0349,-2.0098,0.0,0.0,0.0,0.0,0.0,0.0,0.0,0.0,0.0,0.0,0.0,0.0,0.0,0.0,0.0,0.0,0.0,0.0,0.0,0.0,0.0,0.0,0.0,0.0,0.0,0.0,0.0,0.0,-0.0302,-0.1659,-0.3952,-0.4031,-0.6556,-1.1075,-1.0799,-1.2058,-1.4367,-1.4387,-1.4462,-1.4505,-1.4462,-1.4242,-1.3445,0.0,-0.83,-0.9769,-0.7765,-1.0329,-1.4789,-1.5642,-1.5913,-1.5959,-1.6605,-1.7188,-1.7792,-1.8498,-1.9006,-1.9501,-2.0207,-2.0682,-2.098,-2.0946,-2.079,-2.0404,-1.9535,-1.9027,-1.8375,-1.7121,-1.6815,-1.6544,-1.586,-1.6564,-1.7507,-1.8124,-1.9468,-2.0716,-2.155,-2.1903,-2.2093,-2.2127,-2.2147,-2.2147,-2.2147,-2.2147,-2.2201,-2.2323,-2.2268,-2.2268,-2.2268,-2.2268,-2.2268,-2.2268,-2.2268,-2.2268,-2.2268,-2.2268,-2.2268,-2.2268,-2.2268,-2.2268,-2.2268,-2.2254,-2.2303,-2.2289,-2.1991,-2.1848,-2.1828,-2.155,-2.1333,-2.1177,-2.1055,-2.0892,-2.0716,-2.053,-2.0349,-2.0098,0.0,0.0,0.0,0.0,0.0,0.0,0.0,0.0,0.0,0.0,0.9527,0.7539,0.0,0.0,0.0,0.0,0.0,0.0,0.0,0.0,0.0,0.0,0.0,0.0,0.0,0.0,0.0,0.0,-0.1984,-0.3215,-0.3735,-0.7342,-0.9554,-1.053,-1.2119,-1.314,-1.36,-1.3729,-1.3722,-1.3654,-1.3829,-1.2774,-1.0728,-0.7982,-0.7199,0.0,-0.9252,-1.1853,-1.4726,-1.5852,-1.6707,-1.7352,-1.7947,-1.8511,-1.8993,-1.9488,-1.9875,-2.0227,-2.0594,-2.0845,-2.0946,-2.0682,-2.0241,-1.9739,-1.9027,-1.8077,-1.7121,-1.6388,-1.594,-1.5493,-1.4862,-1.5805,-1.6917,-1.7595,-1.8918,-2.0241,-2.1496,-2.1815,-2.2025,-2.2269,-2.2303,-2.2303,-2.2303,-2.2303,-2.2303,-2.2268,-2.2268,-2.2268,-2.2268,-2.2268,-2.2268,-2.2268,-2.2268,-2.2268,-2.2268,-2.2268,-2.2268,-2.2268,-2.2268,-2.2268,-2.2268,-2.2215,-2.2147,-2.2127,-2.1828,-2.1706,-2.1692,-2.1509,-2.1279,-2.1034,-2.1021,-2.0824,-2.0573,-2.0496,-2.0349,-2.0098,0.0,0.0,0.0,0.0,0.0,0.0,0.0,0.8649,0.8271,0.8545,0.6627,0.5416,0.5927,0.3174,0.0963,0.0,0.0,0.0,0.0,0.0,0.0,0.0,0.0,0.0,0.0,0.0,0.0,0.0,0.0,-0.1745,-0.1817,-0.5026,-0.6564,-0.6686,-0.9884,-1.135,-1.1508,-1.2764,-1.3329,-1.3299,-1.2344,-1.1365,-1.0039,-0.6536,-0.5127,0.0,-0.9184,-1.1526,-1.3192,-1.5246,-1.6608,-1.7684,-1.8599,-1.9128,-1.9535,-2.0064,-2.0329,-2.0462,-2.0892,-2.1055,-2.1034,-2.0736,-2.0098,-1.9291,-1.8287,-1.7378,-1.6463,-1.5472,-1.5221,-1.4997,-1.4394,-1.5384,-1.6435,-1.6831,-1.8091,-1.9468,-2.0878,-2.1211,-2.1564,-2.2249,-2.2268,-2.2268,-2.2268,-2.2268,-2.2268,-2.2268,-2.2268,-2.2268,-2.2268,-2.2268,-2.2268,-2.2268,-2.2268,-2.2268,-2.2268,-2.2268,-2.2268,-2.2268,-2.2268,-2.2234,-2.2215,-2.2147,-2.2072,-2.1991,-2.176,-2.1672,-2.1652,-2.1421,-2.1197,-2.1001,-2.0912,-2.0736,-2.0462,-2.0388,-2.0295,-2.0085,0.0,0.0,0.0,0.0,0.0,0.0,0.0,0.6356,0.555,0.5768,0.4035,0.3522,0.5492,0.2313,0.0,0.0,0.0,0.0,0.0,0.0,0.0,0.0,0.0,0.0,0.0,0.0,0.0,0.0,0.0,0.0,0.0,0.0,0.0,0.0,-0.7043,-0.9061,-0.971,-1.1521,-1.2454,0.0,0.0,-0.9745,-0.8492,0.0,0.0,0.0,0.0,-0.9639,-1.094,-1.3854,-1.5517,-1.6575,-1.8232,-1.9183,-1.9752,-2.0227,-2.0485,-2.0716,-2.1109,-2.1197,-2.1089,-2.079,-1.9976,-1.8905,-1.765,-1.6809,-1.5947,-1.4753,-1.4679,-1.4724,-1.4255,-1.5038,-1.5906,-1.6252,-1.7331,-1.8674,-2.0227,-2.0668,-2.1197,-2.2112,-2.2254,-2.2268,-2.2268,-2.2268,-2.2268,-2.2268,-2.2268,-2.2268,-2.2268,-2.2268,-2.2268,-2.2268,-2.2268,-2.2268,-2.2268,-2.2268,-2.2268,-2.2268,-2.2303,-2.2235,-2.2113,-2.2038,-2.195,-2.1828,-2.1686,-2.1618,-2.1597,-2.1319,-2.1123,-2.098,-2.0824,-2.0682,-2.0462,-2.032,-2.0227,-2.0085,0.0,0.0,0.0,0.0,0.0,0.0,0.0,0.5779,0.5919,0.6369,0.4451,0.3256,0.3791,0.1525,0.0,0.0,0.0,0.0,0.0,0.0,0.0,0.0,0.0,0.0,0.0,0.0,0.0,0.0,0.0,0.0,0.0,0.0,0.0,0.0,0.0,-0.771,-0.9622,-0.9937,0.0,0.0,0.0,0.0,0.0,0.0,0.0,0.0,0.0,-0.5638,-0.8012,-1.1312,-1.258,-1.3323,-1.6386,-1.843,-1.9739,-1.9732,-2.0315,-2.1001,-2.1157,-2.1123,-2.0946,-2.0584,-1.9569,-1.8319,-1.7426,-1.6334,-1.5323,-1.4652,-1.4434,-1.4346,-1.4292,-1.4597,-1.5134,-1.6151,-1.6985,-1.8124,-1.9888,-2.0627,-2.1265,-2.2038,-2.2249,-2.2268,-2.2268,-2.2268,-2.2268,-2.2268,-2.2268,-2.2268,-2.2268,-2.2268,-2.2268,-2.2268,-2.2268,-2.2268,-2.2268,-2.2268,-2.2268,-2.2268,-2.2201,-2.2127,-2.2093,-2.1828,-2.1706,-2.1686,-2.153,-2.1455,-2.1441,-2.1279,-2.1123,-2.098,-2.0824,-2.0682,-2.0462,-2.032,-2.0227,-2.0085,0.0,0.0,0.0,0.0,0.0,0.0,0.4112,0.2992,0.2364,0.2555,0.1795,0.128,0.1426,0.0587,0.0,0.0,0.0,0.0,0.0,0.0,0.0,0.0,0.0,0.0,0.0,0.0,0.0,0.0,0.0,0.0,0.0,0.0,0.0,0.0,0.0,-0.4852,-0.5798,-0.7222,0.0,0.0,0.0,0.0,0.0,0.0,0.0,0.0,0.0,0.0,-0.5522,-0.8198,-1.0375,-1.2191,-1.3369,-1.5701,-1.8213,-1.9027,-1.9698,-2.0315,-2.0804,-2.0845,-2.0648,-2.0349,-1.9257,-1.8036,-1.7187,-1.6069,-1.5106,-1.4509,-1.434,-1.4299,-1.4299,-1.4468,-1.4862,-1.5642,-1.6015,-1.6809,-1.8518,-1.9115,-1.9875,-2.1157,-2.1597,-2.1869,-2.2234,-2.2268,-2.2268,-2.2268,-2.2268,-2.2268,-2.2268,-2.2268,-2.2268,-2.2268,-2.2268,-2.2268,-2.2268,-2.2249,-2.2201,-2.2201,-2.2038,-2.1937,-2.1848,-2.1726,-2.1618,-2.153,-2.1409,-2.1321,-2.1299,-2.1143,-2.1001,-2.0845,-2.0702,-2.0594,-2.0442,-2.0275,-2.0153,-2.0064,0.0,0.0,0.0,0.0,0.0,0.4615,0.2267,0.0827,0.0,0.0,0.0,0.0,0.0,0.0,0.0,0.0,0.0,0.0,0.0,0.0,0.0,0.0,0.0,0.0,0.0,0.0,0.0,0.0,0.0,0.0,0.0,0.0,0.0,-0.0084,0.0,0.0,0.0,0.0,0.0,0.0,0.0,0.0,0.0,0.0,0.0,0.0,0.0,0.0,0.0,0.0,0.0,-0.9539,-1.0055,-1.2598,-1.5815,-1.7829,-1.8938,-1.9644,-2.0227,-2.0417,-2.0397,-2.0051,-1.9027,-1.7846,-1.6897,-1.5906,-1.5018,-1.4421,-1.4299,-1.4299,-1.4299,-1.438,-1.4618,-1.5126,-1.5398,-1.6083,-1.7704,-1.8287,-1.9128,-2.0594,-2.1089,-2.153,-2.2093,-2.22,-2.2268,-2.2268,-2.2268,-2.2268,-2.2268,-2.2268,-2.2268,-2.2268,-2.2268,-2.2254,-2.2269,-2.216,-2.2093,-2.2038,-2.1903,-2.176,-2.1672,-2.1618,-2.155,-2.1375,-2.1375,-2.1353,-2.1197,-2.1055,-2.0912,-2.0756,-2.0594,-2.0476,-2.0442,-2.0207,-2.0098,-2.0064,0.0,0.0,0.0,0.0,0.0,0.0,0.0589,0.0,0.0,0.0,0.0,0.0,0.0,0.0,0.0,0.0,0.0,0.0,0.0,0.0,0.0,0.0,0.0,0.0,0.0,0.0,0.0,0.0,0.0,0.0,0.0,0.0,0.0,0.0,0.0,0.0,0.0,0.0,0.0,0.0,0.0,0.0,0.0,0.0,0.0,0.0,0.0,0.0,0.0,0.0,0.0,0.0,0.0,-0.9362,-1.2341,-1.5982,-1.8057,-1.9237,-1.9393,-1.9875,-2.0227,-1.9786,-1.8929,-1.7812,-1.6761,-1.5825,-1.5018,-1.4421,-1.4299,-1.4299,-1.4299,-1.4299,-1.4401,-1.4654,-1.5371,-1.6371,-1.7725,-1.864,-1.959,-2.0648,-2.0912,-2.1177,-2.1638,-2.2079,-2.2268,-2.2268,-2.2268,-2.2268,-2.2268,-2.2268,-2.2268,-2.2268,-2.2268,-2.2269,-2.2113,-2.2113,-2.2038,-2.1882,-2.174,-2.1672,-2.1672,-2.1509,-2.1375,-2.1375,-2.1375,-2.1353,-2.1197,-2.1055,-2.0912,-2.0756,-2.0594,-2.0476,-2.0442,-2.0207,-2.0098,-2.0085,0.0,0.0,0.0,0.0,0.0,0.0,0.0,0.0,0.0,0.0,0.0,0.0,0.0,0.0,0.0,0.0,0.0,0.0,0.0,0.0,0.0,0.0,0.0,0.0,0.0,0.0,0.0,0.0,0.0,0.0,0.0,0.0,0.0,0.0,0.0,-0.0394,0.0,0.0,0.0,0.0,0.0,0.0,0.0,0.0,0.0,0.0,0.0,0.0,0.0,0.0,0.0,0.0,0.0,0.0,0.0,-1.2648,-1.5309,-1.786,-1.8023,-1.8335,-1.8518,-1.7968,-1.7344,-1.668,-1.5934,-1.5384,-1.4942,-1.4401,-1.4299,-1.4299,-1.4299,-1.4299,-1.4563,-1.5371,-1.5784,-1.6408,-1.7555,-1.8616,-1.9644,-2.0383,-2.1408,-2.2079,-2.2127,-2.2249,-2.2268,-2.2268,-2.2268,-2.2268,-2.2268,-2.2268,-2.2268,-2.2268,-2.2268,-2.2269,-2.2113,-2.2004,-2.1882,-2.174,-2.1584,-2.1509,-2.1509,-2.1353,-2.1279,-2.1279,-2.1177,-2.1055,-2.0912,-2.0858,-2.0756,-2.0594,-2.0388,-2.0334,-2.0363,-2.0173,-2.0031,-1.9942,0.0,0.0,0.0,0.0,0.0,0.0,0.0,0.0,0.0,0.0,0.0,0.0,0.0,0.0,0.0,0.0,0.0,0.0,0.0,0.0,0.0,0.0,0.0,0.0,-0.1325,-0.1339,-0.1846,-0.2882,-0.2935,-0.2457,-0.1488,-0.1583,-0.1014,0.0,0.0,0.0,0.0,0.0,0.0,0.0,0.0,0.0,-0.1278,0.0,0.0,0.0,0.0,0.0,0.0,0.0,0.0,0.0,0.0,0.0,0.0,0.0,-1.341,-1.6286,-1.6781,-1.7216,-1.7412,-1.6931,-1.651,-1.6062,-1.5459,-1.5092,-1.4774,-1.438,-1.4299,-1.4299,-1.4299,-1.4299,-1.4509,-1.5207,-1.5581,-1.6151,-1.7311,-1.8409,-1.9407,-2.0471,-2.1597,-2.2255,-2.2093,-2.2235,-2.2268,-2.2268,-2.2268,-2.2268,-2.2268,-2.2268,-2.2268,-2.2268,-2.2268,-2.2269,-2.2113,-2.195,-2.1815,-2.1672,-2.1509,-2.1375,-2.1375,-2.1279,-2.1211,-2.1211,-2.1055,-2.0912,0.0,-2.077,-2.0682,-2.0476,-2.0438,-2.032,-2.0246,-2.0153,-1.9997,-1.9875,0.0,0.0,0.0,0.0,0.0,0.0,0.0,0.0,0.0,0.0,0.0,0.0,0.0,0.0,0.0,0.0,0.0,0.0,0.0,0.0,0.0,0.0,0.0,0.0,-0.3797,-0.3842,-0.5112,-0.7579,-0.772,-0.6571,-0.4271,-0.4209,-0.2793,-0.0274,-0.0091,0.0,0.0,0.0,0.0,0.0,0.0,0.0,0.0,0.0,0.0,0.0,0.0,0.0,0.0,0.0,0.0,0.0,0.0,0.0,0.0,0.0,0.0,0.0,0.0,-1.6354,-1.6734,-1.6422,-1.6151,-1.5811,-1.5248,-1.4909,0.0,-1.434,-1.4285,-1.4292,-1.4326,-1.4326,-1.4346,-1.4441,-1.493,-1.5764,-1.71,-1.8111,-1.9305,-2.0912,-2.1584,-2.1882,-2.1794,-2.2093,-2.2268,-2.2268,-2.2268,-2.2268,-2.2268,-2.2268,-2.2268,-2.2268,-2.2323,-2.2249,-2.2093,-2.1937,-2.1794,-2.1652,-2.1509,-2.1375,-2.1355,-2.1279,-2.1197,-2.1177,-2.1034,-2.0892,-2.0756,-2.0756,-2.0668,-2.0462,-2.0505,-2.0417,-2.0275,-2.0139,-1.9997,-1.9916,0.0,0.0,0.0,0.0,0.0,0.0,0.0,0.0,0.0,0.0,0.0,0.0,0.0,0.0,0.0,0.0,0.0,0.0,0.0,0.0,0.0,0.0,0.0,0.0,-0.6077,-0.637,-0.6819,-0.7432,-0.7701,-0.7473,-0.6845,-0.4957,-0.3715,-0.2977,-0.0925,0.0,0.0,0.0,0.0,0.0,0.0,0.0,0.0,0.0,0.0,0.0,-0.3446,-0.2581,0.0,0.0,0.0,0.0,0.0,0.0,0.0,0.0,-1.1985,-1.3869,-1.4228,0.0,-1.5018,-1.4719,-1.4685,-1.4679,0.0,-1.4455,-1.4353,-1.4163,-1.4173,-1.4231,-1.4525,-1.4543,-1.4801,-1.5832,-1.6218,-1.6861,-1.8036,-1.959,-2.0946,-2.1848,-2.2255,-2.2344,-2.2201,-2.2269,-2.2268,-2.2268,-2.2268,-2.2268,-2.2268,-2.2268,-2.2268,-2.2268,-2.2235,-2.2093,-2.1937,-2.1794,-2.1652,-2.1496,-2.1389,-2.1321,-2.1265,-2.1231,-2.1089,-2.0878,-2.0845,-2.0736,-2.0594,-2.0594,-2.0505,-2.0363,-2.0241,-2.0119,-1.9976,-1.9942,-1.9841,-1.9732,0.0,0.0,0.0,0.0,0.0,0.0,0.0,0.0,0.0,0.0,0.0,0.0,0.0,0.0,0.0,0.0,0.0,0.0,0.0,0.0,0.0,0.0,0.0,-0.6292,-0.8579,-0.8902,-0.9631,-1.0895,-1.1217,-1.0802,-0.9599,-0.7113,-0.5245,-0.393,-0.2343,-0.1631,0.0,0.0,0.0,0.0,-0.7832,0.0,0.0,0.0,0.0,0.0,-0.577,-0.492,0.0,-0.23,-0.3827,-0.6448,0.0,0.0,0.0,0.0,-1.255,-1.3497,-1.362,-1.4072,-1.4577,-1.4421,-1.4441,-1.4523,-1.459,-1.434,-1.4089,-1.4119,-1.4119,-1.4214,-1.4482,-1.4638,-1.5031,-1.5961,-1.6476,-1.7311,-1.8918,-2.0404,-2.1543,-2.216,-2.2357,-2.2432,-2.2337,-2.2268,-2.2303,-2.2235,-2.2235,-2.2201,-2.2127,-2.2201,-2.2235,-2.2235,-2.2093,-2.2004,-2.1991,-2.1774,-2.1638,-2.155,-2.1409,-2.1353,-2.1211,-2.1143,-2.098,-2.077,-2.0702,-2.0614,-2.0476,-2.0408,-2.0397,-2.0315,-2.0153,-2.001,-1.9875,-1.9875,-1.9848,-1.9739,0.0,0.0,0.0,0.0,0.0,0.0,0.0,0.0,0.0,0.0,0.0,0.0,0.0,0.0,0.0,0.0,0.0,0.0,0.0,0.0,0.0,0.0,-0.6599,-0.8757,-1.1188,-1.14,-1.2621,-1.4936,-1.5411,-1.4509,-1.231,-0.999,-0.7359,-0.4546,-0.4325,-0.4173,-0.4427,0.0,0.0,0.0,-1.0298,0.0,0.0,0.0,0.0,0.0,0.0,0.0,0.0,-0.4643,-0.6779,-0.9956,-0.7831,0.0,0.0,0.0,0.0,0.0,-1.3478,-1.4156,-1.4755,-1.4599,-1.4626,-1.4714,-1.4848,-1.4353,-1.3869,-1.4048,-1.4119,-1.4193,-1.4421,-1.4821,-1.5282,-1.5776,-1.6527,-1.7758,-1.9644,-2.0756,-2.1477,-2.1991,-2.2181,-2.222,-2.2303,-2.222,-2.2235,-2.2113,-2.2093,-2.2025,-2.1882,-2.2004,-2.2079,-2.2079,-2.1937,-2.1916,-2.2038,-2.1774,-2.1618,-2.1597,-2.1475,-2.1319,-2.1143,-2.1055,-2.0912,-2.0736,-2.0627,-2.056,-2.0462,-2.0383,-2.0315,-2.0275,-2.0119,-1.9976,-1.9902,-1.9902,-1.9827,-1.9725,0.0,0.0,0.0,0.0,0.0,0.0,0.0,0.0,0.0,0.0,0.0,0.0,0.0,0.0,0.0,0.0,0.0,0.0,0.0,0.0,0.0,-0.96,-0.9956,-1.1281,-1.3678,-1.3859,-1.4209,-1.4728,-1.5309,-1.5393,-1.4958,-1.273,-1.0048,-0.7049,-0.6992,-0.6812,-0.6745,-0.9513,0.0,0.0,-1.2837,0.0,0.0,0.0,0.0,0.0,0.0,0.0,0.0,-0.6923,-0.8099,-1.0322,-0.9569,0.0,0.0,0.0,0.0,0.0,-1.3831,-1.4624,-1.5092,-1.4153,-1.4315,-1.4633,-1.4455,-1.4211,-1.4041,-1.4112,-1.4119,-1.4312,-1.5092,-1.5499,-1.6078,-1.6992,-1.7982,-1.8972,-1.9922,-2.0648,-2.1231,-2.1686,-2.1862,-2.2004,-2.2127,-2.2025,-2.1991,-2.2113,-2.1991,-2.1903,-2.1882,-2.1903,-2.1916,-2.1916,-2.1774,-2.1706,-2.174,-2.1564,-2.1408,-2.1285,-2.1265,-2.1109,-2.0845,-2.0946,-2.0845,-2.0573,-2.0682,-2.0668,-2.0462,-2.0383,-2.0261,-2.0119,-1.9963,-1.982,-1.9759,-1.9759,-1.9739,-1.9725,0.0,0.0,0.0,0.0,0.0,0.0,0.0,0.0,0.0,0.0,0.0,0.0,0.0,0.0,0.0,0.0,0.0,0.0,0.0,0.0,-1.0768,-1.0981,-1.2134,-1.3261,-1.437,-1.4638,-1.4869,-1.5099,-1.5622,-1.592,-1.5896,-1.3291,-1.0443,-0.7665,-0.8753,-0.9191,-0.9197,-1.161,-1.2672,0.0,0.0,0.0,0.0,0.0,0.0,0.0,0.0,0.0,0.0,0.0,-1.0111,-1.1923,-1.0378,0.0,0.0,0.0,0.0,0.0,-1.3554,-1.4183,-1.4713,-1.4261,-1.4903,-1.5554,-1.5418,-1.5018,-1.4692,-1.478,-1.4794,-1.497,-1.5547,-1.6096,-1.6883,-1.8179,-1.9061,-1.98,-2.0383,-2.0845,-2.1245,-2.1618,-2.1726,-2.1828,-2.1971,-2.1916,-2.1882,-2.1882,-2.1815,-2.1726,-2.1652,-2.1726,-2.1774,-2.1774,-2.1706,-2.1672,-2.1672,-2.1441,-2.1319,-2.1333,-2.1177,-2.1021,-2.0892,-2.0878,-2.0756,-2.0539,-2.0614,-2.056,-2.0354,-2.0261,-2.0119,-1.9963,-1.982,-1.9773,-1.9725,-1.9725,-1.9725,-1.9725,0.0,0.0,0.0,0.0,0.0,0.0,0.0,0.0,0.0,0.0,0.0,0.0,0.0,0.0,0.0,0.0,0.0,0.0,0.0,-1.0209,-1.1659,-1.1959,-1.3642,-1.4631,-1.4774,-1.4936,-1.5181,-1.5513,-1.5934,-1.6212,-1.6297,-1.3932,-1.1566,-0.9462,-1.0977,-1.1615,-1.1655,-1.354,-1.4299,0.0,0.0,0.0,0.0,0.0,0.0,0.0,0.0,0.0,0.0,0.0,0.0,0.0,0.0,0.0,0.0,-1.3336,-1.32,-1.3254,-1.3431,-1.3885,-1.4401,-1.4618,-1.5309,-1.6008,-1.6252,-1.575,-1.533,-1.5655,-1.5723,-1.5805,-1.6119,-1.6788,-1.7772,-1.9094,-1.9786,-2.0295,-2.0716,-2.1021,-2.1319,-2.1584,-2.1618,-2.1672,-2.1815,-2.1794,-2.174,-2.1672,-2.1638,-2.1564,-2.1441,-2.155,-2.1618,-2.1618,-2.1618,-2.1618,-2.1618,-2.1319,-2.1231,-2.1267,-2.1068,-2.0933,-2.0892,-2.077,-2.0648,-2.0476,-2.0476,-2.0388,-2.0315,-2.0173,-2.001,-1.9916,-1.9773,-1.9725,-1.9725,-1.9725,-1.9725,-1.9725,0.0,0.0,0.0,0.0,0.0,0.0,0.0,0.0,0.0,0.0,0.0,0.0,0.0,0.0,0.0,0.0,0.0,0.0,0.0,-1.2614,-1.41,-1.4246,-1.4516,-1.4938,-1.5499,-1.5303,-1.5432,-1.5867,-1.6137,-1.6368,-1.6497,-1.6028,-1.5376,-1.4631,-1.4474,-1.428,-1.4033,-1.421,-1.4299,-1.4299,-1.4299,0.0,0.0,0.0,0.0,0.0,0.0,0.0,0.0,0.0,0.0,0.0,0.0,0.0,-1.3565,-1.3437,-1.3281,-1.337,-1.4027,-1.4353,-1.4597,-1.5025,-1.4991,-1.5059,-1.609,-1.5839,-1.5635,-1.6432,-1.6601,-1.6655,-1.687,-1.7738,-1.8687,-1.9501,-2.001,-2.0417,-2.0736,-2.1021,-2.1265,-2.1375,-2.1389,-2.1509,-2.1672,-2.1564,-2.153,-2.1719,-2.155,-2.1389,-2.1375,-2.1389,-2.1389,-2.1389,-2.1389,-2.1389,-2.1389,-2.1157,-2.1021,-2.1034,-2.0858,-2.0716,-2.051,-2.056,-2.0496,-2.0476,-2.0476,-2.0388,-2.0315,-2.0173,-2.001,-1.9916,-1.9773,-1.9725,-1.9725,-1.9725,-1.9725,-1.9725,0.0,0.0,0.0,0.0,0.0,0.0,0.0,0.0,0.0,0.0,0.0,0.0,0.0,0.0,0.0,0.0,0.0,0.0,0.0,-1.3727,-1.4407,-1.4599,-1.466,-1.4931,-1.5438,-1.5567,-1.5915,-1.6466,-1.6625,-1.6612,-1.6381,-1.5893,-1.5445,-1.5078,-1.4645,-1.4401,-1.4299,-1.4299,-1.4299,-1.4299,-1.4299,-1.4116,0.0,0.0,0.0,0.0,0.0,0.0,0.0,0.0,-1.3247,-1.3376,-1.3254,-1.3532,-1.3804,-1.3281,-1.3193,-1.3275,-1.3519,-1.4048,-1.4597,-1.4964,-1.5242,-1.5635,-1.6358,-1.6625,-1.6863,-1.7527,-1.7663,-1.7751,-1.8092,-1.8477,-1.9027,-1.9739,-2.0098,-2.0438,-2.0736,-2.0946,-2.1109,-2.1157,-2.1245,-2.1285,-2.1265,-2.1367,-2.1421,-2.1387,-2.1421,-2.1341,-2.1299,-2.1321,-2.1341,-2.1299,-2.1387,-2.1387,-2.1299,-2.1109,-2.0946,-2.0858,-2.0702,-2.0648,-2.0682,-2.058,-2.0422,-2.0354,-2.0354,-2.0275,-2.0051,-1.9976,-1.9875,-1.9793,-1.9739,-1.9725,-1.9725,-1.9725,-1.9725,-1.9725,0.0,0.0,0.0,0.0,0.0,0.0,0.0,0.0,0.0,0.0,0.0,0.0,0.0,0.0,0.0,0.0,0.0,0.0,-1.3944,-1.4143,-1.436,-1.4613,-1.4667,-1.4904,-1.5398,-1.575,-1.6201,-1.6663,-1.6809,-1.6653,-1.6157,-1.5696,-1.5323,-1.5018,-1.457,-1.4394,-1.4428,-1.4285,-1.4231,-1.4231,-1.4231,-1.4048,0.0,0.0,0.0,0.0,0.0,0.0,0.0,0.0,-1.3064,-1.3186,-1.3173,-1.3527,-1.377,-1.335,-1.335,-1.3499,-1.3499,-1.3973,-1.4611,-1.5011,-1.5568,-1.618,-1.6924,-1.727,-1.765,-1.8498,-1.8511,-1.8498,-1.883,-1.8905,-1.9135,-1.9827,-2.0139,-2.0438,-2.0736,-2.0912,-2.1001,-2.1001,-2.1089,-2.1109,-2.1021,-2.1177,-2.1265,-2.1157,-2.1245,-2.1199,-2.1157,-2.1245,-2.1279,-2.1211,-2.1265,-2.1265,-2.1211,-2.1021,-2.0878,-2.077,-2.0614,-2.0594,-2.0702,-2.053,-2.0422,-2.0334,-2.0349,-2.0187,-1.9942,-1.9888,-1.9848,-1.9725,-1.9725,-1.9725,-1.9725,-1.9725,-1.9725,-1.9725,0.0,0.0,0.0,0.0,0.0,0.0,0.0,0.0,0.0,0.0,0.0,0.0,0.0,0.0,0.0,0.0,0.0,0.0,-1.3617,-1.3987,-1.4204,-1.4496,-1.4613,-1.4897,-1.5391,-1.5839,-1.6151,-1.6307,-1.6554,-1.6435,-1.5894,-1.5703,-1.5472,-1.5153,-1.4713,-1.4552,-1.466,-1.4258,-1.4119,-1.4112,-1.4119,-1.3892,-1.3605,0.0,0.0,0.0,0.0,0.0,0.0,0.0,-1.2854,-1.2794,-1.3389,-1.3526,-1.3437,-1.358,-1.3838,-1.4112,-1.4112,-1.4285,-1.4658,-1.5262,-1.5757,-1.6408,-1.765,-1.765,-1.7806,-1.9149,-1.8952,-1.8674,-1.9115,-1.8972,-1.9065,-1.9752,-2.0139,-2.0438,-2.0736,-2.0892,-2.1001,-2.1001,-2.1001,-2.1001,-2.1001,-2.1001,-2.1001,-2.1001,-2.1001,-2.1001,-2.1001,-2.1001,-2.1068,-2.1211,-2.1068,-2.1068,-2.1211,-2.0912,-2.077,-2.077,-2.0614,-2.0476,-2.0476,-2.0476,-2.0476,-2.0462,-2.0383,-2.0241,-2.0085,-1.9929,-1.9848,-1.9725,-1.9725,-1.9725,-1.9725,-1.9725,-1.9725,-1.9725,0.0,0.0,0.0,0.0,0.0,0.0,0.0,0.0,0.0,0.0,0.0,0.0,0.0,0.0,0.0,0.0,0.0,0.0,-1.1278,-1.3065,-1.4153,-1.4197,-1.455,-1.466,-1.4631,-1.5072,-1.5635,-1.6307,-1.6395,-1.6076,-1.5425,-1.5337,-1.5099,-1.4713,-1.464,-1.4523,-1.4265,-1.4173,-1.4007,-1.3919,-1.4027,-1.3892,-1.3592,0.0,0.0,0.0,0.0,0.0,0.0,0.0,0.0,0.0,-1.2976,-1.3471,-1.3919,-1.3329,-1.3635,-1.4044,-1.3688,-1.4204,-1.495,-1.5445,-1.6331,-1.7385,-1.8158,-1.8267,-1.8464,-1.94,-1.9447,-1.9325,-1.9359,-1.9379,-1.9562,-1.982,-2.0139,-2.0397,-2.058,-2.0648,-2.0618,-2.0618,-2.077,-2.079,-2.0682,-2.0878,-2.0946,-2.0845,-2.0946,-2.0946,-2.0845,-2.0946,-2.0967,-2.0912,-2.0967,-2.0967,-2.0899,-2.0875,-2.0716,-2.0614,-2.0451,-2.0388,-2.0476,-2.0374,-2.0329,-2.0227,-2.0187,-2.0031,-1.9848,-1.9752,-1.9759,-1.9725,-1.9725,-1.9725,-1.9725,-1.9725,-1.9725,-1.9725,0.0,0.0,0.0,0.0,0.0,0.0,0.0,0.0,0.0,0.0,0.0,0.0,0.0,0.0,0.0,0.0,0.0,0.0,-1.0242,-1.2619,-1.4007,-1.4112,-1.4441,-1.4652,-1.4652,-1.5038,-1.5418,-1.5778,-1.5893,-1.5628,-1.5011,-1.5187,-1.5065,-1.4699,-1.4848,-1.4665,-1.4238,-1.4166,-1.3946,-1.3727,-1.3919,-1.3838,-1.3585,0.0,0.0,0.0,0.0,0.0,0.0,0.0,0.0,0.0,-1.2671,-1.3071,-1.3526,-1.3227,-1.3622,-1.4119,-1.4102,-1.4746,-1.5574,-1.6216,-1.7041,-1.7935,-1.8708,-1.8938,-1.9115,-1.9576,-1.9671,-1.9569,-1.961,-1.959,-1.9657,-1.9922,-2.0064,-2.0227,-2.0374,-2.0388,-2.0471,-2.0476,-2.0627,-2.0627,-2.0471,-2.0618,-2.0756,-2.0614,-2.0736,-2.077,-2.0682,-2.077,-2.0804,-2.077,-2.0756,-2.0716,-2.0682,-2.056,-2.0451,-2.0363,-2.0275,-2.0275,-2.0363,-2.0286,-2.0241,-2.0098,-2.0031,-1.9875,-1.9725,-1.9725,-1.9725,-1.9725,-1.9725,-1.9725,-1.9725,-1.9725,-1.9725,-1.9725,0.0,0.0,0.0,0.0,0.0,0.0,0.0,0.0,0.0,0.0,0.0,0.0,0.0,0.0,0.0,0.0,0.0,0.0,0.0,-1.2497,-1.3912,-1.4105,-1.4353,-1.4719,-1.5153,-1.5411,-1.5337,-1.493,-1.5228,-1.514,-1.4667,-1.5174,-1.5221,-1.4983,-1.5092,-1.4896,-1.4428,-1.4122,-1.3824,-1.358,-1.368,-1.3653,-1.3566,-1.3545,0.0,0.0,0.0,0.0,0.0,0.0,0.0,0.0,-1.2501,-1.2528,-1.2664,-1.3173,-1.3675,-1.4268,-1.4916,-1.5574,-1.6313,-1.7331,-1.7826,-1.8267,-1.9237,-1.9556,-1.9725,-1.9725,-1.9556,-1.9556,-1.98,-1.9644,-1.961,-2.001,-1.9976,-1.9997,-2.0275,-2.0246,-2.03,-2.0422,-2.0442,-2.0388,-2.0266,-2.0417,-2.0388,-2.0329,-2.0374,-2.0442,-2.0462,-2.0442,-2.056,-2.0702,-2.0451,-2.0363,-2.0442,-2.0241,-2.0098,-2.0098,-2.0085,-2.0085,-2.0085,-2.0227,-2.0207,-2.0064,-1.9922,-1.9848,-1.9739,-1.9725,-1.9725,-1.9725,-1.9725,-1.9725,-1.9725,-1.9725,-1.9725,-1.9725,0.0,0.0,0.0,0.0,0.0,0.0,0.0,0.0,0.0,0.0,0.0,0.0,0.0,0.0,0.0,0.0,0.0,0.0,0.0,-1.2497,-1.3912,-1.4105,-1.4353,-1.4672,-1.5057,-1.4841,-1.4706,-1.4611,-1.4916,-1.4835,-1.4407,-1.497,-1.5011,-1.4624,-1.4896,-1.4631,-1.3916,-1.3539,-1.3302,-1.3159,-1.3302,-1.3234,-1.3159,-1.3268,-1.3064,0.0,0.0,0.0,0.0,0.0,0.0,0.0,-1.2501,-1.2745,-1.2983,-1.2759,-1.3349,-1.418,-1.4414,-1.5181,-1.6235,-1.7304,-1.8319,-1.9183,-1.9535,-1.9644,-1.9725,-1.9725,-1.9732,-1.9766,-1.9773,-1.9752,-1.98,-1.9908,-1.9997,-2.0085,-2.0139,-2.0153,-2.0153,-2.0187,-2.0187,-2.0187,-2.0153,-2.0173,-2.0227,-2.0266,-2.0241,-2.0241,-2.0363,-2.0261,-2.0207,-2.0241,-2.0187,-2.0173,-2.0187,-2.0139,-2.0098,-2.0098,-1.9976,-1.9922,-1.9922,-1.9963,-1.9963,-1.997,-1.9827,-1.9814,-1.982,-1.9712,-1.9725,-1.9725,-1.9725,-1.9725,-1.9725,-1.9725,-1.9725,-1.9725,0.0,0.0,0.0,0.0,0.0,0.0,0.0,0.0,0.0,0.0,0.0,0.0,0.0,0.0,0.0,0.0,0.0,0.0,0.0,-1.189,-1.3964,-1.4373,-1.4536,-1.4699,-1.4855,-1.4631,-1.4475,-1.4414,-1.4496,-1.4529,-1.4523,-1.5045,-1.5208,-1.5012,-1.514,-1.4726,-1.3926,-1.3553,-1.318,-1.2868,-1.3125,-1.3125,-1.2989,-1.2921,-1.2712,-1.2501,-1.2345,0.0,0.0,0.0,0.0,0.0,0.0,0.0,-1.2676,-1.2617,-1.3098,-1.3826,-1.4441,-1.5384,-1.651,-1.7935,-1.8918,-1.9556,-1.9705,-1.9725,-1.9725,-1.9725,-1.9827,-1.9854,-1.9786,-1.982,-1.9875,-1.9875,-1.9888,-1.9908,-1.9976,-1.9997,-2.001,-2.0098,-2.0098,-2.0064,-1.9997,-2.0064,-2.0098,-2.0119,-2.0098,-2.0139,-2.0227,-2.0139,-2.0098,-2.0098,-2.0031,-1.9997,-1.9997,-1.9922,-1.9888,-1.9888,-1.9861,-1.9827,-1.9827,-1.9827,-1.9861,-1.9875,-1.9773,-1.9759,-1.9827,-1.9759,-1.9725,-1.9725,-1.9725,-1.9725,-1.9725,-1.9725,-1.9725,-1.9725,0.0,0.0,0.0,0.0,0.0,0.0,0.0,0.0,0.0,0.0,0.0,0.0,0.0,0.0,0.0,0.0,0.0,0.0,0.0,-1.167,-1.4072,-1.4593,-1.464,-1.4654,-1.4654,-1.4529,-1.4394,-1.4299,-1.4122,-1.4353,-1.4931,-1.5276,-1.5479,-1.5546,-1.5438,-1.4862,-1.3973,-1.362,-1.3098,-1.263,-1.2854,-1.2868,-1.2771,-1.2454,-1.2277,-1.2155,-1.2036,-1.2098,-1.223,-1.2345,0.0,0.0,0.0,0.0,-1.2094,-1.2467,-1.282,-1.3329,-1.4418,-1.5588,-1.6944,-1.8552,-1.9291,-1.9684,-1.9664,-1.9725,-1.9725,-1.9725,-1.9814,-1.9902,-1.9902,-1.9902,-1.9902,-1.9902,-1.9793,-1.9759,-1.982,-1.9902,-1.9888,-2.001,-2.0031,-1.9976,-1.9854,-1.9942,-1.9976,-1.9936,-1.9963,-2.0031,-2.0064,-2.0031,-2.0031,-2.0031,-1.9908,-1.9902,-1.9902,-1.9773,-1.9725,-1.9725,-1.9725,-1.9725,-1.9725,-1.9725,-1.9732,-1.9841,-1.9773,-1.9725,-1.9725,-1.9725,-1.9725,-1.9725,-1.9725,-1.9725,-1.9725,-1.9725,-1.9725,-1.9725,0.0,0.0,0.0,0.0,0.0,0.0,0.0,0.0,0.0,0.0,0.0,0.0,0.0,0.0,0.0,0.0,0.0,0.0,-1.2266,0.0,0.0,-1.4346,-1.4475,-1.4543,-1.4543,-1.4272,-1.4183,-1.4299,-1.3971,-1.457,-1.5893,-1.5567,-1.5418,-1.5438,-1.5282,-1.4645,-1.3612,-1.3044,-1.2576,-1.2179,-1.2047,-1.1999,-1.1928,-1.1759,-1.1728,-1.1687,-1.1538,-1.166,-1.1861,-1.1874,-1.2013,0.0,0.0,0.0,-1.1834,-1.1895,-1.2314,-1.2881,-1.3343,-1.5031,-1.7,-1.8443,-1.9128,-1.9501,-1.9684,-1.9725,-1.9725,-1.9725,-1.9739,-1.9759,-1.9759,-1.9759,-1.9759,-1.9759,-1.9739,-1.9725,-1.9739,-1.9759,-1.9759,-1.9773,-1.9773,-1.9773,-1.9759,-1.9712,-1.9766,-1.9875,-1.9786,-1.9827,-1.9888,-1.9848,-1.9773,-1.9773,-1.9759,-1.9759,-1.9759,-1.9739,-1.9725,-1.9725,-1.9725,-1.9725,-1.9725,-1.9725,-1.9739,-1.9759,-1.9725,-1.9725,-1.9725,-1.9725,-1.9725,-1.9725,-1.9725,-1.9725,-1.9725,-1.9725,-1.9725,-1.9725,0.0,0.0,0.0,0.0,0.0,0.0,0.0,0.0,0.0,0.0,0.0,0.0,0.0,0.0,0.0,0.0,0.0,0.0,-1.3008,-1.362,0.0,-1.4163,-1.4231,-1.4265,-1.4265,-1.3973,-1.3899,-1.3998,-1.3654,-1.4407,-1.6198,-1.5832,-1.6022,-1.6581,-1.5886,-1.5072,-1.414,-1.3125,-1.2381,-1.1918,-1.1732,-1.2013,-1.2386,-1.1647,-1.1728,-1.2104,-1.1374,-1.1335,-1.1599,-1.1644,-1.1809,-1.1904,-1.1726,0.0,0.0,0.0,-1.1884,-1.2657,-1.4048,-1.5384,-1.6741,-1.8247,-1.885,-1.9135,-1.9468,-1.9535,-1.9556,-1.9705,-1.9725,-1.9725,-1.9725,-1.9725,-1.9725,-1.9725,-1.9725,-1.9725,-1.9725,-1.9725,-1.9725,-1.9725,-1.9725,-1.9725,-1.9725,-1.9725,-1.9739,-1.9752,-1.9759,-1.9759,-1.9752,-1.9759,-1.9725,-1.9725,-1.9725,-1.9725,-1.9725,-1.9725,-1.9725,-1.9725,-1.9725,-1.9725,-1.9725,-1.9725,-1.9725,-1.9725,-1.9725,-1.9725,-1.9725,-1.9725,-1.9725,-1.9725,-1.9725,-1.9725,-1.9725,-1.9725,-1.9725,-1.9725,0.0,0.0,0.0,0.0,0.0,0.0,0.0,0.0,0.0,0.0,0.0,0.0,0.0,0.0,0.0,0.0,0.0,0.0,-1.2896,0.0,0.0,0.0,-1.3939,-1.3939,-1.3905,-1.3648,-1.3566,-1.3668,-1.3376,-1.4285,-1.6307,-1.611,-1.6707,-1.7825,-1.6673,-1.5615,-1.462,-1.3463,-1.2645,-1.2125,-1.202,-1.2338,-1.2867,-1.2193,-1.2366,-1.2828,-1.1753,-1.1509,-1.1714,-1.1599,-1.1633,-1.1665,-1.1592,-1.1538,0.0,0.0,0.0,-1.2302,-1.4251,-1.514,-1.5906,-1.7555,-1.8199,-1.8552,-1.9081,-1.9237,-1.9305,-1.9468,-1.9556,-1.961,-1.961,-1.9644,-1.9725,-1.9725,-1.9725,-1.9725,-1.9725,-1.9725,-1.9725,-1.9725,-1.9725,-1.9725,-1.9725,-1.9725,-1.9725,-1.9725,-1.9725,-1.9725,-1.9725,-1.9725,-1.9725,-1.9725,-1.9725,-1.9725,-1.9725,-1.9725,-1.9725,-1.9725,-1.9725,-1.9725,-1.9725,-1.9725,-1.9725,-1.9725,-1.9725,-1.9725,-1.9725,-1.9725,-1.9725,-1.9725,-1.9725,-1.9725,-1.9725,-1.9725,-1.9725,-1.9725,0.0,0.0,0.0,0.0,0.0,0.0,0.0,0.0,0.0,0.0,0.0,0.0,0.0,-0.177,-0.3793,-0.5942,-0.8159,0.0,0.0,0.0,0.0,0.0,-1.3573,0.0,-1.3437,-1.3275,-1.32,-1.3248,-1.3329,-1.4394,-1.6313,-1.6429,-1.7283,-1.8711,-1.7453,-1.611,-1.4654,-1.4011,-1.3519,-1.3132,-1.2989,-1.2834,-1.2827,-1.362,-1.3865,-1.3639,-1.2875,-1.2605,-1.249,-1.1687,-1.1409,-1.1409,-1.1402,-1.1301,-1.122,0.0,0.0,0.0,-1.2785,-1.3512,-1.4309,-1.6015,-1.6965,-1.7684,-1.8409,-1.8687,-1.8888,-1.8993,-1.9257,-1.9447,-1.9447,-1.9556,-1.9725,-1.9725,-1.9725,-1.9725,-1.9725,-1.9725,-1.9725,-1.9725,-1.9725,-1.9725,-1.9725,-1.9725,-1.9725,-1.9725,-1.9725,-1.9725,-1.9725,-1.9725,-1.9725,-1.9725,-1.9725,-1.9725,-1.9725,-1.9725,-1.9725,-1.9725,-1.9725,-1.9725,-1.9725,-1.9725,-1.9725,-1.9725,-1.9725,-1.9725,-1.9725,-1.9725,-1.9725,-1.9725,-1.9725,-1.9725,-1.9725,-1.9725,-1.9725,-1.9725,0.0,0.0,0.0,0.0,0.0,0.0,0.0,0.0,0.0,0.0,0.0,0.0,0.0,-0.0664,-0.2491,-0.6,-0.9475,0.0,0.0,0.0,0.0,0.0,-1.3498,-1.3558,-1.3546,-1.3492,-1.3417,-1.3315,-1.3186,-1.3966,-1.5588,-1.5737,-1.63,-1.7175,-1.6836,-1.6279,-1.5513,-1.4136,-1.341,-1.3207,-1.3159,-1.3567,-1.4143,-1.3885,-1.4292,-1.4802,-1.3673,-1.318,-1.2963,-1.2644,-1.2254,-1.1826,-1.1599,-1.1362,-1.1179,-1.105,-1.109,-1.1438,-1.2515,-1.3105,-1.3783,-1.5343,-1.6293,-1.7012,-1.767,-1.8301,-1.8841,-1.883,-1.9081,-1.9291,-1.9291,-1.9488,-1.9725,-1.9725,-1.9725,-1.9725,-1.9725,-1.9576,-1.9522,-1.9522,-1.9522,-1.9522,-1.9522,-1.961,-1.9725,-1.9725,-1.9725,-1.9725,-1.9725,-1.9725,-1.9725,-1.9725,-1.9725,-1.9725,-1.9725,-1.9725,-1.9725,-1.9725,-1.9725,-1.9725,-1.9725,-1.9725,-1.9725,-1.9725,-1.9725,-1.9725,-1.9725,-1.9725,-1.9725,-1.9725,-1.9725,-1.9725,-1.9725,-1.9725,-1.9725,-1.9725,0.0,0.0,0.0,0.0,0.0,0.0,0.0,0.0,-0.0298,-0.11,0.0,0.0,0.0,0.0,-0.4779,-0.8263,-1.1006,-1.2576,-1.2576,-1.2632,0.0,0.0,-1.339,-1.3511,-1.3511,-1.3505,-1.3403,-1.3254,-1.3098,-1.3663,-1.4889,-1.5092,-1.5588,-1.6293,-1.5988,-1.5934,-1.5995,-1.4699,-1.4007,-1.3833,-1.4037,-1.4506,-1.5052,-1.5106,-1.5527,-1.5918,-1.4971,-1.4414,-1.4071,-1.3722,-1.3159,-1.2508,-1.206,-1.1497,-1.0995,-1.0867,-1.1009,-1.1363,-1.2074,-1.2569,-1.3234,-1.4733,-1.5404,-1.5974,-1.7032,-1.765,-1.8077,-1.8342,-1.8674,-1.8918,-1.8972,-1.9223,-1.9507,-1.9501,-1.9501,-1.9501,-1.9501,-1.9413,-1.9359,-1.9359,-1.9359,-1.9379,-1.9374,-1.9522,-1.961,-1.9664,-1.9725,-1.9725,-1.9725,-1.9725,-1.9725,-1.9725,-1.9725,-1.9725,-1.9725,-1.9725,-1.9725,-1.9725,-1.9725,-1.9725,-1.9725,-1.9725,-1.9725,-1.9725,-1.9725,-1.9725,-1.9725,-1.9725,-1.9725,-1.9725,-1.9725,-1.9725,-1.9725,-1.9725,-1.9725,-1.9725,0.0,0.0,0.0,0.0,0.0,0.0,0.0,0.0,-0.0952,-0.3375,0.0,0.0,0.0,0.0,0.0,-1.2648,-1.2761,-1.2706,-1.2706,-1.2699,0.0,0.0,-1.3247,-1.341,-1.341,-1.3275,-1.3166,-1.3023,-1.3016,-1.3459,-1.4272,-1.4525,-1.5208,-1.6191,-1.5038,-1.5079,-1.6008,-1.5696,-1.5343,-1.5085,-1.5643,-1.5636,-1.5452,-1.7338,-1.7623,-1.7005,-1.679,-1.6408,-1.582,-1.4882,-1.4177,-1.3532,-1.2745,-1.1687,-1.0704,-1.0698,-1.0941,-1.124,0.0,0.0,0.0,-1.4082,-1.4251,-1.4557,-1.6469,-1.6686,-1.6648,-1.7412,-1.7968,-1.8321,-1.8477,-1.8762,-1.9006,-1.9149,-1.9183,-1.9203,-1.9203,-1.9203,-1.9203,-1.9203,-1.9203,-1.9257,-1.9353,-1.9374,-1.9501,-1.9705,-1.9725,-1.9725,-1.9725,-1.9725,-1.9725,-1.9725,-1.9725,-1.9725,-1.9725,-1.9725,-1.9725,-1.9725,-1.9725,-1.9725,-1.9725,-1.9725,-1.9725,-1.9725,-1.9725,-1.9725,-1.9725,-1.9725,-1.9725,-1.9725,-1.9725,-1.9725,-1.9725,-1.9725,-1.9725,-1.9725,0.0,0.0,0.0,0.0,0.0,-0.0578,-0.2321,-0.2611,-0.3464,0.0,0.0,0.0,-0.7058,-0.9074,-0.9876,-0.8548,-1.1357,-1.3166,-1.3057,-1.2956,-1.3003,-1.3146,-1.3403,-1.3572,-1.3673,-1.379,-1.3702,-1.3444,-1.3336,-1.3349,-1.3492,-1.3797,-1.4204,-1.4692,-1.4679,-1.4719,-1.4753,-1.4122,-1.4475,-1.5432,-1.516,-1.575,-1.6822,-1.6986,-1.7473,-1.8057,-1.7684,-1.7385,-1.7066,-1.649,-1.554,-1.4333,-1.2827,-1.1823,-1.1165,-1.0914,-1.1137,-1.1457,-1.1308,0.0,0.0,0.0,0.0,0.0,-1.4848,-1.5309,-1.5825,-1.675,-1.7047,-1.7304,-1.7935,-1.8213,-1.8355,-1.8389,-1.885,-1.9203,-1.9203,-1.9115,-1.9047,-1.9047,-1.9047,-1.9115,-1.9257,-1.9359,-1.9501,-1.9705,-1.9725,-1.9725,-1.9725,-1.9725,-1.9725,-1.9725,-1.9725,-1.9725,-1.9725,-1.9725,-1.9725,-1.9725,-1.9725,-1.9725,-1.9725,-1.9725,-1.9725,-1.9725,-1.9725,-1.9725,-1.9725,-1.9725,-1.9725,-1.9725,-1.9725,-1.9725,-1.9725,-1.9725,-1.9725,-1.9725,0.0,0.0,-0.1927,-0.3038,-0.3311,-0.3804,-0.5235,-0.5406,-0.6219,0.0,0.0,0.0,-1.017,-1.1637,-1.1805,-1.0015,-1.2077,-1.3431,-1.3275,-1.3173,-1.3125,-1.3207,-1.3519,-1.3714,-1.3795,-1.3933,-1.3858,-1.3585,-1.341,-1.3227,-1.3125,-1.3268,-1.3444,-1.3656,-1.3682,-1.3763,-1.3783,-1.3071,-1.3661,-1.5154,-1.5601,-1.6263,-1.7135,-1.7554,-1.8001,-1.8443,-1.843,-1.8247,-1.7913,-1.765,-1.6476,-1.4896,-1.3403,-1.2528,-1.1938,-1.1354,-1.1597,-1.2013,-1.1714,-1.2047,-1.2562,-1.2942,0.0,0.0,-1.455,-1.4787,-1.5126,-1.6246,-1.6473,-1.6682,-1.7297,-1.7575,-1.7758,-1.788,-1.8321,-1.8708,-1.8905,-1.8905,-1.8905,-1.8905,-1.8905,-1.8959,-1.9094,-1.9203,-1.9345,-1.9556,-1.9569,-1.959,-1.9725,-1.9725,-1.9725,-1.9725,-1.9725,-1.9725,-1.9725,-1.9725,-1.9725,-1.9725,-1.9725,-1.9725,-1.9725,-1.9725,-1.9725,-1.9725,-1.9725,-1.9725,-1.9725,-1.9725,-1.9725,-1.9725,-1.9725,-1.9725,-1.9725,-1.9725,-1.9725,-1.9725,0.0,0.0,-0.4638,-0.7353,-0.7942,-0.8087,-0.8426,-0.8359,-0.9105,0.0,-1.1627,-1.226,-1.4283,-1.5066,-1.51,-1.4145,-1.3847,-1.3668,-1.3532,-1.3336,-1.3254,-1.3241,-1.3607,-1.3788,-1.3774,-1.3822,-1.3761,-1.3585,-1.3342,-1.3166,-1.3023,-1.2975,-1.2948,-1.2935,-1.2494,-1.2596,-1.3077,-1.2547,-1.3159,-1.4679,-1.6293,-1.6924,-1.7007,-1.8552,-1.883,-1.8531,-1.904,-1.8993,-1.862,-1.8375,-1.71,-1.5418,-1.4288,-1.362,-1.3043,-1.2067,-1.2311,-1.2807,-1.2474,-1.2644,-1.3031,-1.3777,-1.3581,0.0,-1.4835,-1.4665,-1.4543,-1.5655,-1.5988,-1.6191,-1.6486,-1.6856,-1.7154,-1.7352,-1.765,-1.7968,-1.8443,-1.862,-1.8766,-1.8766,-1.8766,-1.8841,-1.8952,-1.8972,-1.9094,-1.9379,-1.9413,-1.9501,-1.9664,-1.9725,-1.9725,-1.9725,-1.9725,-1.9725,-1.9725,-1.9725,-1.9725,-1.9725,-1.9725,-1.9725,-1.9725,-1.9725,-1.9725,-1.9725,-1.9725,-1.9725,-1.9725,-1.9725,-1.9725,-1.9725,-1.9725,-1.9725,-1.9725,-1.9725,-1.9725,-1.9725,-0.3309,-0.3804,-0.4693,-0.7493,-0.8005,-0.8761,-1.0965,-1.1123,-1.19,-1.4473,-1.4977,-1.4626,-1.3452,-1.48,-1.4964,-1.2873,-1.3711,-1.4326,-1.4299,-1.3824,-1.3485,-1.3363,-1.3626,-1.3747,-1.3632,-1.4027,-1.4021,-1.3585,-1.3444,-1.3281,-1.3166,-1.2759,-1.2589,-1.2589,-1.2501,-1.2461,-1.2515,-1.3377,-1.4075,-1.4694,-1.5215,-1.6374,-1.788,-1.8321,-1.8864,-1.94,-1.9393,-1.9413,-1.9312,-1.843,-1.7561,-1.6619,-1.5323,-1.476,-1.4397,-1.3248,-1.3315,-1.3695,-1.3186,-1.3485,-1.3865,-1.3356,-1.3737,0.0,-1.3601,-1.3607,-1.3933,-1.4523,-1.4672,-1.4896,-1.5554,-1.6015,-1.6279,-1.6262,-1.6937,-1.7704,-1.8287,-1.8389,-1.8409,-1.8409,-1.8409,-1.8511,-1.8841,-1.8816,-1.8918,-1.9217,-1.9359,-1.9501,-1.9664,-1.9725,-1.9725,-1.9725,-1.9725,-1.9725,-1.9725,-1.9725,-1.9725,-1.9725,-1.9725,-1.9725,-1.9725,-1.9725,-1.9725,-1.9725,-1.9725,-1.9725,-1.9725,-1.9725,-1.9725,-1.9725,-1.9725,-1.9725,-1.9725,-1.9725,-1.9725,-1.9725,-0.5207,-0.6715,-0.8495,-1.1419,-1.2006,-1.2547,-1.4085,-1.415,-1.4589,-1.6209,-1.687,-1.6604,-1.5041,-1.5892,-1.594,-1.4248,-1.456,-1.4753,-1.4523,-1.4095,-1.3783,-1.3627,-1.3838,-1.3926,-1.3851,-1.4143,-1.415,-1.3851,-1.3627,-1.3397,-1.3207,-1.2793,-1.2739,-1.2935,-1.2637,-1.2712,-1.3085,-1.3431,-1.3946,-1.4681,-1.5852,-1.7073,-1.8267,-1.8796,-1.9271,-1.9705,-1.9576,-1.9535,-1.9379,-1.8342,-1.7684,-1.7114,-1.5988,-1.5635,-1.5432,-1.438,-1.4441,-1.4692,-1.3939,-1.4061,-1.4333,-1.4084,-1.4129,0.0,0.0,-1.379,-1.3844,-1.4584,-1.4448,-1.4414,-1.516,-1.5357,-1.5513,-1.5854,-1.6361,-1.691,-1.7358,-1.788,-1.8179,-1.8111,-1.8091,-1.8179,-1.8409,-1.8498,-1.8694,-1.9061,-1.9305,-1.9468,-1.9535,-1.9624,-1.9725,-1.9725,-1.9725,-1.9725,-1.9725,-1.9725,-1.9725,-1.9725,-1.9725,-1.9725,-1.9725,-1.9725,-1.9725,-1.9725,-1.9725,-1.9725,-1.9725,-1.9725,-1.9725,-1.9725,-1.9725,-1.9725,-1.9725,-1.9725,-1.9725,-1.9725,-0.7872,-0.997,-1.2349,-1.5341,-1.601,-1.6185,-1.6476,-1.6449,-1.6632,-1.7283,-1.7948,-1.8014,-1.725,-1.7446,-1.7297,-1.6616,-1.5852,-1.5309,-1.5004,-1.4523,-1.4177,-1.3977,-1.4055,-1.4132,-1.4159,-1.4211,-1.415,-1.3989,-1.3675,-1.3403,-1.3166,-1.2827,-1.2895,-1.3254,-1.2854,-1.3112,-1.3774,-1.3424,-1.3946,-1.5181,-1.6858,-1.7703,-1.807,-1.9061,-1.9447,-1.9468,-1.9671,-1.959,-1.9359,-1.8375,-1.788,-1.7507,-1.6517,-1.6374,-1.6381,-1.5425,-1.5499,-1.5716,-1.4869,-1.4814,-1.4984,-1.5023,-1.4819,-1.4611,0.0,0.0,0.0,-1.474,-1.4448,-1.4302,-1.4855,-1.4794,-1.4841,-1.5466,-1.5786,-1.5981,-1.6191,-1.7053,-1.765,-1.7609,-1.8141,-1.8567,-1.8718,-1.9171,-1.9516,-1.9682,-1.9697,-1.9821,-2.0144,-1.9831,-1.9684,-1.9725,-1.9725,-1.9725,-1.9725,-1.9725,-1.9725,-1.9725,-1.9725,-1.9725,-1.9725,-1.9725,-1.9725,-1.9725,-1.9725,-1.9725,-1.9725,-1.9725,-1.9725,-1.9725,-1.9725,-1.9725,-1.9725,-1.9725,-1.9725,-1.9725,-1.0704,-1.1139,-1.2321,-1.5118,-1.5893,-1.6185,-1.6476,-1.6574,-1.6959,-1.788,-1.8287,-1.8562,-1.8884,-1.8498,-1.8375,-1.8782,-1.7317,-1.6463,-1.6686,-1.5554,-1.4801,-1.4599,-1.4272,-1.418,-1.4272,-1.42,-1.3892,-1.3478,-1.3308,-1.3186,-1.3016,-1.2671,-1.2623,-1.278,-1.3152,-1.3498,-1.3822,-1.4197,-1.5323,-1.6917,-1.7297,-1.7101,-1.687,-1.8158,-1.8654,-1.8742,-1.9413,-1.9732,-1.9759,-1.8977,-1.8698,-1.8389,-1.7087,-1.7,-1.7216,-1.6096,-1.6316,-1.6686,-1.6049,-1.6279,-1.6422,-1.5309,-1.5716,-1.5925,-1.4146,0.0,-1.4417,-1.3876,0.0,-1.4139,-1.4227,0.0,0.0,-1.4323,-1.4887,-1.5255,-1.516,-1.5751,-1.6296,-1.6632,-1.8968,-2.0734,-2.1078,-2.2618,-2.3205,-2.2281,-2.1286,-2.1422,-2.2978,-2.0727,-1.9522,-1.9664,-1.9725,-1.9725,-1.9725,-1.9725,-1.9725,-1.9725,-1.9725,-1.9725,-1.9725,-1.9725,-1.9725,-1.9725,-1.9725,-1.9725,-1.9725,-1.9725,-1.9725,-1.9725,-1.9725,-1.9725,-1.9725,-1.9725,-1.9725,-1.9725,-1.1027,-1.2339,-1.3921,-1.5261,-1.575,-1.6076,-1.6463,-1.7534,-1.8265,-1.8335,-1.9217,-1.9766,-1.961,-1.9217,-1.9027,-1.9183,-1.8199,-1.7358,-1.6929,-1.6232,-1.5649,-1.5153,-1.4862,-1.4665,-1.4557,-1.4326,-1.4021,-1.3612,-1.3329,-1.3186,-1.3118,-1.2773,-1.3037,-1.3727,-1.396,-1.4597,-1.5513,-1.5269,-1.5649,-1.6435,-1.668,-1.6571,-1.649,-1.8531,-1.9257,-1.9223,-1.9556,-1.9814,-1.9732,-1.8816,-1.8443,-1.8267,-1.7704,-1.7405,-1.7216,-1.6965,-1.6937,-1.6849,-1.6246,-1.6395,-1.6517,-1.5738,-1.5798,-1.5756,-1.4665,-1.4312,-1.4187,-1.4221,0.0,0.0,0.0,0.0,0.0,0.0,-1.4468,-1.4652,-1.459,-1.4943,-1.5438,-1.6062,-1.8328,-2.0694,-2.2898,-2.3791,-2.4263,-2.4372,-2.2173,-2.1374,-2.2669,-2.0525,-1.9359,-1.9522,-1.9671,-1.9725,-1.9725,-1.9725,-1.9725,-1.9725,-1.9725,-1.9725,-1.9725,-1.9725,-1.9725,-1.9725,-1.9725,-1.9725,-1.9725,-1.9725,-1.9725,-1.9725,-1.9725,-1.9725,-1.9725,-1.9725,-1.9725,-1.9725,-1.1871,-1.3553,-1.5065,-1.5357,-1.5689,-1.6137,-1.6788,-1.8124,-1.9006,-1.8864,-1.982,-2.0438,-2.0207,-1.9908,-1.9786,-1.9922,-1.9237,-1.8464,-1.7725,-1.708,-1.6564,-1.6103,-1.5547,-1.5201,-1.5106,-1.4658,-1.4231,-1.3795,-1.3437,-1.3234,-1.3268,-1.2929,-1.3295,-1.4224,-1.459,-1.5452,-1.6663,-1.6273,-1.6402,-1.6836,-1.6897,-1.6998,-1.7297,-1.8905,-1.9576,-1.9725,-1.9725,-1.9814,-1.9732,-1.8816,-1.8423,-1.8301,-1.8145,-1.7758,-1.7378,-1.7487,-1.7446,-1.7134,-1.6449,-1.6544,-1.6653,-1.5913,-1.5744,-1.5581,-1.4882,-1.4455,-1.4241,-1.4518,-1.4265,0.0,0.0,0.0,-1.391,-1.4197,0.0,-1.4238,-1.4238,-1.4387,-1.474,-1.5404,-1.8312,-2.1537,-2.4774,-2.537,-2.5837,-2.639,-2.3814,-2.2513,-2.3292,-2.1248,-1.9845,-1.9413,-1.9576,-1.9725,-1.9725,-1.9725,-1.9725,-1.9725,-1.9725,-1.9725,-1.9725,-1.9725,-1.9725,-1.9725,-1.9725,-1.9725,-1.9725,-1.9725,-1.9725,-1.9725,-1.9725,-1.9725,-1.9725,-1.9725,-1.9725,-1.9725,-1.4374,-1.4714,-1.5065,-1.5357,-1.5778,-1.6469,-1.7691,-1.8002,-1.8498,-1.9501,-1.9848,-2.0173,-2.0892,-2.0682,-2.0858,-2.1726,-2.0716,-1.9963,-1.9786,-1.8287,-1.7507,-1.7827,-1.6252,-1.5601,-1.6029,-1.5174,-1.439,-1.3795,-1.3539,-1.3397,-1.339,-1.3132,-1.3166,-1.3492,-1.4801,-1.573,-1.6368,-1.7066,-1.8124,-1.9211,-1.863,-1.8972,-1.9664,-1.8864,-1.9027,-1.9725,-1.9725,-1.9814,-1.9786,-1.9169,-1.8972,-1.8864,-1.8267,-1.8179,-1.8158,-1.7595,-1.7717,-1.786,-1.6919,-1.7108,-1.721,-1.5791,-1.575,-1.5723,-1.4445,-1.4638,-1.4984,-1.4428,-1.4862,-1.5221,-1.4762,-1.4552,-1.4394,0.0,-1.4125,0.0,0.0,-1.396,-1.3998,-1.4502,-1.9714,-2.4262,-2.6776,-2.8435,-2.907,-2.8351,-2.6873,-2.6075,-2.6142,-2.3695,-2.1406,-1.9473,-1.9576,-1.9725,-1.9725,-1.9725,-1.9725,-1.9725,-1.9725,-1.9725,-1.9725,-1.9725,-1.9725,-1.9725,-1.9725,-1.9725,-1.9725,-1.9725,-1.9725,-1.9725,-1.9725,-1.9725,-1.9725,-1.9725,-1.9725,-1.9725,-1.5086,-1.5269,-1.535,-1.5153,-1.5615,-1.6418,-1.7725,-1.8742,-1.9657,-2.0315,-2.0946,-2.1597,-2.2255,-2.1971,-2.1896,-2.2289,-2.1597,-2.0858,-2.0227,-1.9379,-1.8816,-1.862,-1.7507,-1.6822,-1.668,-1.5886,-1.5133,-1.439,-1.4041,-1.3844,-1.3838,-1.3437,-1.3566,-1.4177,-1.5086,-1.6121,-1.7176,-1.7737,-1.8287,-1.8674,-1.8477,-1.904,-1.9976,-1.9569,-1.9522,-1.9725,-1.9725,-1.9814,-1.9882,-1.9535,-1.9237,-1.8993,-1.8972,-1.8531,-1.8036,-1.8124,-1.8057,-1.788,-1.7568,-1.7846,-1.7859,-1.6567,-1.6334,-1.6049,-1.4801,-1.4787,-1.4921,-1.4272,-1.4821,-1.5242,-1.4692,-1.455,-1.4448,0.0,0.0,-1.3851,0.0,-1.3492,-1.4188,-1.6223,-1.8889,-2.208,-2.5982,-2.5468,-2.6456,-3.028,-2.6834,-2.562,-2.8173,-2.6874,-2.4702,-2.181,-2.2444,-2.1805,-1.9725,-1.9725,-1.9725,-1.9725,-1.9725,-1.9725,-1.9725,-1.9725,-1.9725,-1.9725,-1.9725,-1.9725,-1.9725,-1.9725,-1.9725,-1.9725,-1.9725,-1.9725,-1.9725,-1.9725,-1.9725,-1.9725,-1.5472,-1.5615,-1.5642,-1.5404,-1.5947,-1.6829,-1.8077,-1.9393,-2.0438,-2.0946,-2.1706,-2.2391,-2.2954,-2.2656,-2.252,-2.2764,-2.2358,-2.1597,-2.0702,-2.0275,-1.9875,-1.9481,-1.8654,-1.807,-1.7772,-1.7031,-1.6173,-1.5215,-1.4767,-1.4468,-1.4299,-1.3851,-1.3926,-1.4475,-1.533,-1.6374,-1.7534,-1.8301,-1.8796,-1.9027,-1.8918,-1.9359,-2.0085,-1.9875,-1.9827,-1.9732,-1.9739,-1.9773,-1.9848,-1.9759,-1.9528,-1.9257,-1.9447,-1.9006,-1.8443,-1.8565,-1.8409,-1.8181,-1.786,-1.807,-1.8124,-1.7093,-1.6754,-1.6368,-1.5174,-1.514,-1.5228,-1.4574,-1.4977,-1.5425,-1.5194,-1.4889,-1.4645,0.0,0.0,-1.3783,0.0,-1.337,-1.4075,-1.5908,-1.7632,-2.0226,-2.4307,-2.312,-2.3933,-2.8351,-2.6233,-2.5701,-2.7792,-2.7427,-2.5911,-2.308,-2.2753,-2.1624,-1.9562,-1.9556,-1.9576,-1.9576,-1.9576,-1.961,-1.9725,-1.9725,-1.9725,-1.9725,-1.9725,-1.9725,-1.9725,-1.9725,-1.9725,-1.9725,-1.9725,-1.9725,-1.9725,-1.9725,-1.9725,-1.9725,-1.5634,-1.5832,-1.6064,-1.6185,-1.6883,-1.7792,-1.8864,-1.9888,-2.0706,-2.1321,-2.1936,-2.2498,-2.3008,-2.2798,-2.2784,-2.3205,-2.2832,-2.2221,-2.1353,-2.1001,-2.0716,-2.0374,-1.9698,-1.9271,-1.9257,-1.8355,-1.7317,-1.6151,-1.5655,-1.5194,-1.4714,-1.4299,-1.4163,-1.4353,-1.5418,-1.6384,-1.7283,-1.862,-1.9644,-2.0329,-2.001,-1.9976,-2.0085,-1.9786,-1.9814,-1.9854,-1.9773,-1.9725,-1.9725,-1.9725,-1.9725,-1.9725,-1.9725,-1.9556,-1.9345,-1.8918,-1.8841,-1.862,-1.7859,-1.7914,-1.7968,-1.7229,-1.7026,-1.67,-1.5527,-1.571,-1.5962,-1.5214,-1.5398,-1.579,-1.6198,-1.5574,-1.5037,0.0,0.0,0.0,-1.3309,-1.3553,-1.3727,-1.3605,-1.5945,-1.8784,-2.1756,-2.1453,-2.1634,-2.3071,-2.527,-2.6201,-2.5438,-2.5825,-2.5156,-2.3136,-2.0805,-1.9465,-1.9203,-1.9345,-1.9413,-1.9413,-1.9374,-1.9501,-1.9705,-1.9725,-1.9725,-1.9725,-1.9725,-1.9725,-1.9725,-1.9725,-1.9725,-1.9725,-1.9725,-1.9725,-1.9725,-1.9725,-1.9725,-1.9725,-1.6243,-1.6951,-1.7636,-1.8058,-1.7704,-1.7894,-1.9271,-2.0085,-2.0814,-2.1815,-2.2586,-2.3275,-2.3788,-2.3666,-2.3503,-2.3323,-2.3185,-2.2852,-2.2411,-2.1991,-2.174,-2.1652,-2.0933,-2.0329,-1.9875,-1.8776,-1.7826,-1.708,-1.5961,-1.535,-1.5221,-1.4557,-1.4319,-1.4482,-1.5086,-1.6042,-1.7263,-1.8389,-1.9624,-2.079,-2.0383,-2.0295,-2.0383,-1.9976,-1.9902,-1.9854,-1.9773,-1.9725,-1.9725,-1.9725,-1.9725,-1.9725,-1.9725,-1.9556,-1.9353,-1.9291,-1.9094,-1.8884,-1.8694,-1.8708,-1.864,-1.8111,-1.7629,-1.7141,-1.6497,-1.6558,-1.6537,-1.5833,-1.6341,-1.6693,-1.5805,-1.5547,-1.5282,-1.4719,-1.4217,-1.377,-1.3397,-1.3444,-1.3546,-1.3578,-1.4238,-1.5748,-1.8461,-1.7237,-1.8127,-2.2564,-2.3647,-2.4409,-2.5063,-2.7614,-2.7025,-2.2564,-2.2694,-2.1641,-1.9203,-1.9237,-1.9257,-1.9257,-1.9379,-1.9447,-1.9501,-1.961,-1.9725,-1.9725,-1.9725,-1.9725,-1.9725,-1.9725,-1.9725,-1.9725,-1.9725,-1.9725,-1.9725,-1.9725,-1.9725,-1.9725,-1.6932,-1.7968,-1.8905,-1.9271,-1.9149,-1.9291,-2.0207,-2.0682,-2.1179,-2.2093,-2.2866,-2.3377,-2.37,-2.3944,-2.3999,-2.3695,-2.3612,-2.3314,-2.2818,-2.2656,-2.2479,-2.2215,-2.1808,-2.1367,-2.0892,-1.9786,-1.8776,-1.7859,-1.6625,-1.5798,-1.5398,-1.4713,-1.4434,-1.4536,-1.512,-1.5981,-1.71,-1.8674,-1.9908,-2.077,-2.0462,-2.0374,0.0,-2.001,-1.9841,-1.9827,-1.9759,-1.9725,-1.9725,-1.9725,-1.9725,-1.9725,-1.9725,-1.961,-1.9522,-1.9447,-1.9271,-1.9061,-1.9006,-1.8938,-1.883,-1.8586,-1.8158,-1.7684,-1.7108,-1.7012,-1.6822,-1.6259,-1.651,-1.6686,-1.6191,-1.5683,-1.5099,-1.434,-1.3964,-1.3693,-1.3444,-1.3512,-1.358,-1.3532,-1.3599,-1.4224,-1.5639,-1.4757,-1.5911,-2.0313,-2.2186,-2.3983,-2.5918,-2.7279,-2.674,-2.3992,-2.2424,-2.078,-1.9065,-1.9081,-1.9115,-1.9115,-1.9257,-1.9359,-1.9434,-1.959,-1.9725,-1.9725,-1.9725,-1.9725,-1.9725,-1.9725,-1.9725,-1.9725,-1.9725,-1.9725,-1.9725,-1.9725,-1.9725,-1.9725,-1.7751,-1.8938,-1.997,-2.0153,-2.0756,-2.1265,-2.1441,-2.1584,-2.1862,-2.2342,-2.3029,-2.3415,-2.3395,-2.3978,-2.4235,-2.4141,-2.3999,-2.3626,-2.294,-2.3117,-2.3008,-2.241,-2.2411,-2.2249,-2.1916,-2.0858,-1.9732,-1.8565,-1.7311,-1.6296,-1.5371,-1.4787,-1.4509,-1.4543,-1.5215,-1.604,-1.7041,-1.9169,-2.0241,-2.051,-2.0539,-2.0408,-2.0329,-1.9997,-1.98,-1.9739,-1.9725,-1.9725,-1.9725,-1.9725,-1.9725,-1.9725,-1.9725,-1.9725,-1.9644,-1.9501,-1.9359,-1.9203,-1.9061,-1.8905,-1.8841,-1.8742,-1.8531,-1.8179,-1.7629,-1.7297,-1.7019,-1.6727,-1.6463,-1.6408,-1.6815,-1.5901,-1.4767,-1.4004,-1.3903,-1.3829,-1.3614,-1.3777,-1.3761,-1.3471,-1.3688,0.0,-1.349,-1.3578,-1.4665,-1.7145,-2.067,-2.3616,-2.5655,-2.5159,-2.4869,-2.4963,-2.0742,-1.8552,-1.8786,-1.8884,-1.8959,-1.8959,-1.9128,-1.9271,-1.9353,-1.959,-1.9725,-1.9725,-1.9725,-1.9725,-1.9725,-1.9725,-1.9725,-1.9725,-1.9725,-1.9725,-1.9725,-1.9725,-1.9725,-1.9725,-1.9006,-2.001,-2.0736,-2.0668,-2.1617,-2.2411,-2.2818,-2.2886,-2.2995,-2.3147,-2.3999,-2.4473,-2.4331,-2.444,-2.4419,-2.4141,-2.41,-2.3924,-2.3537,-2.3449,-2.3235,-2.3083,-2.2832,-2.25,-2.2079,-2.0804,-1.9678,-1.8728,-1.7154,-1.5988,-1.5215,-1.4733,-1.4509,-1.4529,-1.5038,-1.63,-1.8124,-1.9257,-2.0119,-2.0716,-2.0594,-2.0462,-2.0388,-2.0031,-1.9916,-1.982,-1.9759,-1.9725,-1.9725,-1.9725,-1.9725,-1.9725,-1.9725,-1.9725,-1.9664,-1.9684,-1.9522,-1.9359,-1.9203,-1.9061,-1.8884,-1.864,-1.8443,-1.8267,-1.8023,-1.7846,-1.7704,-1.7433,-1.7358,-1.7128,-1.6544,-1.5723,-1.4984,-1.4475,-1.4457,-1.4518,-1.4464,-1.4441,-1.4197,-1.3612,-1.3851,-1.3729,-1.2922,-1.3559,-1.4208,-1.4704,-1.8763,-2.0159,-1.776,-2.0912,-2.1618,-1.9002,-1.8427,-1.8301,-1.8565,-1.8728,-1.8854,-1.8854,-1.9081,-1.9217,-1.9257,-1.9535,-1.9725,-1.9725,-1.9725,-1.9725,-1.9725,-1.9725,-1.9725,-1.9725,-1.9725,-1.9725,-1.9725,-1.9725,-1.9725,-1.9725,-2.0492,-2.1055,-2.153,-2.1774,-2.2554,-2.3259,-2.3626,-2.4012,-2.41,-2.3626,-2.3944,-2.4195,-2.4121,-2.4528,-2.4704,-2.4494,-2.4406,-2.4263,-2.4053,-2.3734,-2.3537,-2.347,-2.3029,-2.2642,-2.2344,-2.1177,-2.0085,-1.9115,-1.7534,-1.6307,-1.5404,-1.4794,-1.4509,-1.455,-1.5466,-1.6788,-1.8375,-1.9271,-1.9963,-2.0438,-2.0594,-2.0573,-2.0404,-2.0187,-2.001,-1.9916,-1.98,-1.9732,-1.9725,-1.9725,-1.9725,-1.9725,-1.9725,-1.9725,-1.9725,-1.9725,-1.9501,-1.9291,-1.9217,-1.904,-1.8816,-1.8586,-1.8423,-1.8287,-1.8124,-1.7914,-1.7704,-1.7507,-1.7412,-1.7134,-1.6239,-1.5575,-1.5071,-1.4882,-1.4794,-1.4748,-1.495,-1.4841,-1.4529,-1.3933,-1.3987,-1.381,-1.3146,-1.4651,-1.5508,-1.5199,-1.7755,-1.919,-1.8904,-2.1424,-2.1778,-1.9372,-1.9651,-1.9444,-1.8531,-1.8694,-1.882,-1.882,-1.8993,-1.9128,-1.9203,-1.9434,-1.959,-1.9725,-1.9725,-1.9725,-1.9725,-1.9725,-1.9725,-1.9725,-1.9725,-1.9725,-1.9725,-1.9725,-1.9725,-1.9725,-2.1686,-2.195,-2.2269,-2.2744,-2.3381,-2.391,-2.4141,-2.4772,-2.4935,-2.4066,-2.3965,-2.3965,-2.3965,-2.4596,-2.4948,-2.4806,-2.465,-2.4507,-2.429,-2.3965,-2.3734,-2.3734,-2.3185,-2.2798,-2.2656,-2.1686,-2.0648,-1.9522,-1.8124,-1.6849,-1.5668,-1.5059,-1.4821,-1.4991,-1.6178,-1.7365,-1.8511,-1.9291,-1.9834,-2.0227,-2.058,-2.058,-2.0363,-2.0286,-2.0153,-1.9922,-1.9888,-1.9786,-1.9725,-1.9725,-1.9725,-1.9725,-1.9725,-1.9725,-1.9725,-1.9725,-1.9468,-1.9237,-1.9217,-1.9006,-1.8762,-1.8494,-1.8409,-1.8267,-1.8091,-1.786,-1.7595,-1.746,-1.7222,-1.6802,-1.6051,-1.5547,-1.5241,-1.5194,-1.5018,-1.4958,-1.5201,-1.5079,-1.4813,-1.4231,-1.4055,-1.3817,-1.339,-1.5105,-1.6221,-1.6239,-1.7607,-1.9445,-2.1759,-2.2597,-2.2346,-2.0939,-2.1205,-2.0404,-1.8335,-1.862,-1.882,-1.882,-1.8918,-1.9047,-1.9169,-1.9345,-1.9501,-1.9671,-1.9705,-1.9725,-1.9725,-1.9725,-1.9725,-1.9725,-1.9725,-1.9725,-1.9725,-1.9725,-1.9725,-1.9725,-2.2038,-2.252,-2.292,-2.2974,-2.3714,-2.4222,-2.4256,-2.4763,-2.5145,-2.4935,-2.4894,-2.4894,-2.4894,-2.4969,-2.4948,-2.4806,-2.465,-2.4507,-2.429,-2.4053,-2.3877,-2.3877,-2.3436,-2.3117,-2.2974,-2.2201,-2.1157,-1.9834,-1.8742,-1.7467,-1.6035,-1.5689,-1.5769,-1.6361,-1.7039,-1.7935,-1.8952,-1.9305,-1.9854,-2.0442,-2.0539,-2.0539,-2.0442,-2.032,-2.0227,-2.0064,-1.9922,-1.9786,-1.9725,-1.9725,-1.9725,-1.9725,-1.9725,-1.9725,-1.9725,-1.9725,-1.9535,-1.9379,-1.9237,-1.9094,-1.8864,-1.8443,-1.8335,-1.8247,-1.8004,-1.786,-1.7758,-1.748,-1.6971,-1.6435,-1.599,-1.5969,-1.5764,-1.5146,-1.5309,-1.5465,-1.5404,-1.5147,-1.4894,-1.4509,-1.3994,-1.3546,-1.3268,-1.3301,-1.4235,-1.6231,-1.8579,-2.0502,-2.1838,-2.1688,-2.1183,-2.0317,-2.0741,-1.9876,-1.7717,-1.8409,-1.882,-1.882,-1.8918,-1.8993,-1.9027,-1.9305,-1.9434,-1.9468,-1.961,-1.9725,-1.9725,-1.9725,-1.9725,-1.9725,-1.9725,-1.9725,-1.9725,-1.9725,-1.9725,-1.9725,-2.3293,-2.3293,-2.347,-2.41,-2.4209,-2.4406,-2.4935,-2.5145,-2.5179,-2.5036,-2.5023,-2.5023,-2.5023,-2.5023,-2.5003,-2.4935,-2.4792,-2.4636,-2.4494,-2.4189,-2.3944,-2.3768,-2.3415,-2.3151,-2.3008,-2.2357,-2.153,-2.0539,-1.9413,-1.8267,-1.7194,-1.6754,-1.689,-1.748,-1.7894,-1.8511,-1.9271,-1.9657,-2.0064,-2.0417,-2.0442,-2.0476,-2.0476,-2.0471,-2.0315,-2.0098,-2.0031,-1.9854,-1.9725,-1.9725,-1.9725,-1.9725,-1.9725,-1.9725,-1.9725,-1.9725,-1.9488,-1.9271,-1.9217,-1.9027,-1.8841,-1.8511,-1.8332,-1.8267,-1.8057,-1.7792,-1.7561,-1.7446,-1.6937,-1.6469,-1.6286,-1.594,-1.5703,-1.5764,-1.5696,-1.5661,-1.592,-1.5615,-1.5255,-1.495,-1.4394,-1.3946,-1.3778,-1.4727,-1.5792,-1.6852,-1.7794,-1.9208,-2.1235,-2.1829,-2.1372,-1.9706,-2.0723,-2.0077,-1.7595,-1.8389,-1.882,-1.882,-1.883,-1.8905,-1.8993,-1.9203,-1.9393,-1.9569,-1.9684,-1.9725,-1.9725,-1.9725,-1.9725,-1.9725,-1.9725,-1.9725,-1.9725,-1.9725,-1.9725,-1.9725,-2.4141,-2.3924,-2.3924,-2.486,-2.467,-2.4616,-2.5287,-2.5267,-2.5145,-2.5091,-2.5036,-2.5023,-2.5023,-2.5023,-2.5023,-2.5023,-2.488,-2.4724,-2.4582,-2.4331,-2.4066,-2.3822,-2.3524,-2.3293,-2.3151,-2.2588,-2.1971,-2.1265,-2.0187,-1.9203,-1.8321,-1.786,-1.7968,-1.8565,-1.8864,-1.9271,-1.9718,-2.0139,-2.0363,-2.0471,-2.0573,-2.0573,-2.0476,-2.0476,-2.0383,-2.0173,-2.0173,-1.9976,-1.9732,-1.9732,-1.9759,-1.9725,-1.9725,-1.9725,-1.9725,-1.9725,-1.9468,-1.9257,-1.9217,-1.9027,-1.8782,-1.8586,-1.8407,-1.8335,-1.8145,-1.7846,-1.7582,-1.7446,-1.6978,-1.6533,-1.6533,-1.609,-1.5784,-1.6123,-1.5947,-1.5852,-1.6083,-1.5764,-1.5425,-1.5208,-1.4502,-1.4048,-1.4112,-1.5185,-1.6321,-1.7351,-1.7458,-1.9013,-2.248,-2.2491,-2.1888,-2.0849,-2.1128,-2.0116,-1.7595,-1.8389,-1.882,-1.882,-1.882,-1.885,-1.8993,-1.9183,-1.9413,-1.9725,-1.9725,-1.9725,-1.9725,-1.9725,-1.9725,-1.9725,-1.9725,-1.9725,-1.9725,-1.9725,-1.9725,-1.9725,-2.4188,-2.4276,-2.4411,-2.4935,-2.5023,-2.5057,-2.5213,-2.5111,-2.507,-2.5213,-2.5111,-2.5023,-2.5023,-2.5023,-2.5023,-2.5023,-2.488,-2.4724,-2.4582,-2.4419,-2.4202,-2.4121,-2.3843,-2.3612,-2.3377,-2.3008,-2.2479,-2.1862,-2.1123,-2.0295,-1.9393,-1.8959,-1.912,-1.9664,-1.9942,-2.0241,-2.0476,-2.0702,-2.077,-2.077,-2.077,-2.0682,-2.0476,-2.0476,-2.0388,-2.0329,-2.0329,-2.0139,-1.9875,-1.9875,-1.9786,-1.9725,-1.9725,-1.9725,-1.9725,-1.9725,-1.9556,-1.9393,-1.9237,-1.9094,-1.8918,-1.8599,-1.8474,-1.8443,-1.8158,-1.8091,-1.7948,-1.7514,-1.7007,-1.6696,-1.6696,-1.6452,-1.6205,-1.5956,-1.603,-1.5974,-1.5641,-1.5384,-1.5187,-1.5181,-1.4136,-1.3587,-1.4071,-1.371,-1.4633,-1.7585,-1.8146,-2.0785,-2.6329,-2.3608,-2.2707,-2.4377,-2.2156,-1.9821,-1.7595,-1.8389,-1.882,-1.882,-1.882,-1.885,-1.9006,-1.9291,-1.9522,-1.9725,-1.9725,-1.9725,-1.9725,-1.9725,-1.9725,-1.9725,-1.9725,-1.9725,-1.9725,-1.9725,-1.9725,-1.9725,-2.4758,-2.4806,-2.488,-2.5125,-2.5159,-2.5179,-2.5155,-2.5199,-2.5145,-2.5091,-2.5057,-2.5023,-2.5023,-2.5023,-2.5023,-2.5023,-2.4969,-2.4847,-2.4582,-2.4528,-2.4297,-2.3843,-2.3734,-2.3558,-2.3293,-2.2961,-2.2642,-2.2413,-2.1597,-2.098,-2.0492,-2.0241,-2.0404,-2.0878,-2.0756,-2.0824,-2.1001,-2.0946,-2.0933,-2.0933,-2.0933,-2.0845,-2.0702,-2.0702,-2.0539,-2.0329,-2.0329,-2.0139,-1.9875,-1.9875,-1.9786,-1.9725,-1.9725,-1.9725,-1.9725,-1.9725,-1.9556,-1.9413,-1.9379,-1.9183,-1.8972,-1.8864,-1.8687,-1.8477,-1.8287,-1.8002,-1.7684,-1.7338,-1.7073,-1.6876,-1.6716,-1.6459,-1.6279,-1.6178,-1.6117,-1.6015,-1.5811,-1.5527,-1.5303,-1.5194,-1.4665,-1.4333,-1.4367,-1.434,-1.4592,-1.5373,-1.7179,-1.9806,-2.336,-2.1602,-2.0668,-2.1088,-1.9656,-1.8454,-1.7595,-1.8389,-1.882,-1.882,-1.882,-1.8943,-1.9128,-1.9237,-1.9413,-1.9725,-1.9725,-1.9725,-1.9725,-1.9725,-1.9725,-1.9725,-1.9725,-1.9725,-1.9725,-1.9725,-1.9725,-1.9725,-2.5003,-2.5023,-2.5057,-2.5145,-2.5145,-2.5145,-2.5145,-2.5145,-2.5125,-2.5036,-2.5023,-2.5023,-2.5023,-2.4969,-2.4948,-2.5023,-2.4969,-2.4826,-2.4582,-2.4507,-2.4297,-2.3856,-2.3734,-2.3592,-2.3395,-2.3049,-2.2798,-2.2712,-2.195,-2.1509,-2.1333,-2.1177,-2.1285,-2.1597,-2.1408,-2.1353,-2.1374,-2.1285,-2.1177,-2.1089,-2.1089,-2.098,-2.0858,-2.079,-2.0668,-2.0492,-2.0374,-2.0261,-2.0031,-1.9976,-1.9916,-1.9793,-1.9739,-1.9725,-1.9725,-1.9725,-1.959,-1.9501,-1.9447,-1.9291,-1.9149,-1.9081,-1.8884,-1.864,-1.8375,-1.8023,-1.765,-1.7338,-1.7161,-1.7012,-1.6863,-1.6588,-1.6405,-1.6395,-1.6266,-1.6096,-1.5935,-1.5601,-1.5357,-1.5201,-1.4923,-1.466,-1.4559,-1.4741,-1.4875,-1.4808,-1.6466,-1.8232,-1.9993,-1.9757,-1.98,-2.0149,-1.8713,-1.788,-1.7839,-1.8477,-1.882,-1.882,-1.8929,-1.9027,-1.9203,-1.9325,-1.9488,-1.9725,-1.9725,-1.9684,-1.9576,-1.9644,-1.9684,-1.9576,-1.9644,-1.9725,-1.9725,-1.9725,-1.9725,-1.9725,-2.5057,-2.5036,-2.5036,-2.5036,-2.5036,-2.5036,-2.5023,-2.5023,-2.5036,-2.5023,-2.5023,-2.5023,-2.5023,-2.4894,-2.486,-2.4982,-2.488,-2.4724,-2.4582,-2.444,-2.4277,-2.41,-2.3822,-2.3666,-2.3646,-2.3225,-2.292,-2.2764,-2.2201,-2.1916,-2.1916,-2.1774,-2.1794,-2.1916,-2.1903,-2.1815,-2.1686,-2.1672,-2.1496,-2.1231,-2.1231,-2.1143,-2.098,-2.0845,-2.077,-2.0736,-2.0594,-2.0388,-2.0246,-2.0173,-2.001,-1.9854,-1.9773,-1.9725,-1.9725,-1.9725,-1.9725,-1.9684,-1.9481,-1.9434,-1.9393,-1.9237,-1.9081,-1.885,-1.8423,-1.8091,-1.7847,-1.7514,-1.7331,-1.7175,-1.7026,-1.687,-1.6662,-1.6493,-1.6395,-1.6185,-1.5928,-1.5601,-1.5364,-1.5201,-1.4964,-1.4762,-1.4728,-1.5059,-1.5343,-1.5539,-1.6035,-1.6408,-1.6621,-1.8225,-1.97,-2.0989,-1.8984,-1.8023,-1.8321,-1.862,-1.882,-1.882,-1.904,-1.9183,-1.9217,-1.9501,-1.9705,-1.9725,-1.9725,-1.9576,-1.9468,-1.961,-1.9576,-1.9468,-1.961,-1.9725,-1.9725,-1.9705,-1.9705,-1.9725,-2.5355,-2.5267,-2.5179,-2.5179,-2.5179,-2.5145,-2.5036,-2.5111,-2.5145,-2.5036,-2.5023,-2.5023,-2.5023,-2.4982,-2.4935,-2.4847,-2.4813,-2.4724,-2.4582,-2.4528,-2.4297,-2.3802,-2.3714,-2.3578,-2.3327,-2.3117,-2.2873,-2.2678,-2.2535,-2.2344,-2.2235,-2.2201,-2.2201,-2.2235,-2.2113,-2.1971,-2.1828,-2.1726,-2.1564,-2.1321,-2.1321,-2.1231,-2.1001,-2.0967,-2.0804,-2.053,-2.0496,-2.0388,-2.0329,-2.0232,-2.0098,-1.9875,-1.9841,-1.9752,-1.9725,-1.9725,-1.9725,-1.9664,-1.9671,-1.9522,-1.9393,-1.9237,-1.8918,-1.8562,-1.8454,-1.8247,-1.7989,-1.7847,-1.765,-1.7406,-1.7195,-1.7026,-1.6836,-1.6564,-1.6307,-1.6029,-1.573,-1.558,-1.5438,-1.5215,-1.5473,-1.55,-1.5113,-1.556,-1.571,-1.5316,-1.5818,-1.6117,-1.6069,-1.7029,-1.7792,-1.8302,-1.8129,-1.8124,-1.8321,-1.862,-1.882,-1.882,-1.883,-1.8993,-1.9203,-1.9271,-1.9434,-1.9725,-1.9725,-1.9644,-1.961,-1.9705,-1.9644,-1.961,-1.9705,-1.9725,-1.9705,-1.9535,-1.9556,-1.9705,-2.5464,-2.5389,-2.5335,-2.5335,-2.5335,-2.5301,-2.5233,-2.5233,-2.5199,-2.5125,-2.5057,-2.4982,-2.4914,-2.486,-2.4772,-2.4684,-2.4684,-2.4616,-2.4473,-2.4406,-2.4195,-2.3788,-2.3714,-2.3571,-2.3327,-2.3185,-2.2961,-2.2656,-2.2658,-2.2479,-2.2268,-2.2268,-2.2268,-2.2268,-2.2249,-2.2127,-2.1971,-2.1828,-2.1686,-2.155,-2.1409,-2.1287,-2.119,-2.1055,-2.0892,-2.0736,-2.053,-2.0422,-2.0354,-2.0349,-2.0227,-2.0051,-1.9922,-1.982,-1.9752,-1.9739,-1.9725,-1.9725,-1.9725,-1.961,-1.9481,-1.9257,-1.9027,-1.8776,-1.8528,-1.8409,-1.8213,-1.797,-1.7806,-1.7629,-1.7263,-1.7073,-1.6856,-1.6483,-1.6293,-1.6056,-1.5641,-1.5696,-1.5703,-1.5608,-1.586,-1.5962,-1.5805,-1.609,-1.6144,-1.5818,-1.6164,-1.6381,-1.6418,-1.6951,-1.7324,-1.7419,-1.7935,-1.8267,-1.8409,-1.8708,-1.8871,-1.8871,-1.9006,-1.9149,-1.9305,-1.9379,-1.9501,-1.9725,-1.9725,-1.9624,-1.9556,-1.9684,-1.9624,-1.9556,-1.9684,-1.9725,-1.9705,-1.9569,-1.959,-1.9705,-2.5543,-2.5556,-2.5498,-2.5464,-2.5464,-2.5464,-2.543,-2.5321,-2.5155,-2.5199,-2.5091,-2.4969,-2.4806,-2.467,-2.4582,-2.4528,-2.4528,-2.4473,-2.4276,-2.4229,-2.4066,-2.389,-2.3754,-2.3612,-2.3377,-2.3293,-2.3083,-2.2784,-2.2656,-2.25,-2.2268,-2.2268,-2.2268,-2.2268,-2.2268,-2.2249,-2.2093,-2.195,-2.1794,-2.1652,-2.1509,-2.1421,-2.1367,-2.1123,-2.1021,-2.0967,-2.0618,-2.0573,-2.0496,-2.0354,-2.0349,-2.0275,-1.9997,-1.9888,-1.9902,-1.9759,-1.9725,-1.9725,-1.9725,-1.9705,-1.9616,-1.9305,-1.9217,-1.9094,-1.8687,-1.8586,-1.8443,-1.8092,-1.7935,-1.7772,-1.7372,-1.7161,-1.689,-1.6422,-1.6341,-1.6178,-1.5654,-1.5805,-1.6017,-1.6103,-1.6178,-1.6313,-1.6564,-1.6612,-1.6619,-1.6619,-1.6689,-1.6897,-1.7073,-1.746,-1.7595,-1.7555,-1.807,-1.8423,-1.8542,-1.8864,-1.9006,-1.9027,-1.9271,-1.9353,-1.9434,-1.9569,-1.9644,-1.9725,-1.9725,-1.959,-1.9481,-1.961,-1.959,-1.9481,-1.961,-1.9725,-1.9725,-1.9644,-1.9644,-1.9725,-2.5518,-2.5566,-2.562,-2.5556,-2.5464,-2.543,-2.5287,-2.5247,-2.5199,-2.507,-2.5036,-2.4969,-2.4806,-2.4772,-2.465,-2.4406,-2.4385,-2.4365,-2.4276,-2.4256,-2.4189,-2.391,-2.3754,-2.3612,-2.3377,-2.3293,-2.3083,-2.2784,-2.2764,-2.2608,-2.2268,-2.2268,-2.2268,-2.2268,-2.2268,-2.2249,-2.2093,-2.195,-2.1794,-2.1652,-2.1509,-2.1301,-2.1245,-2.1197,-2.1109,-2.098,-2.0804,-2.0736,-2.0716,-2.056,-2.0374,-2.0295,-2.0119,-1.9976,-1.9902,-1.9759,-1.9725,-1.9725,-1.9725,-1.9569,-1.9447,-1.9353,-1.9291,-1.9149,-1.8952,-1.8816,-1.8674,-1.8464,-1.8233,-1.8002,-1.7847,-1.7534,-1.7161,-1.6585,-1.649,-1.6293,-1.5668,-1.5988,-1.6246,-1.6273,-1.6612,-1.6856,-1.6904,-1.7019,-1.7087,-1.7087,-1.7114,-1.7243,-1.7473,-1.7724,-1.7935,-1.8123,-1.8332,-1.864,-1.8918,-1.8972,-1.9047,-1.9169,-1.9217,-1.9305,-1.9374,-1.9447,-1.9535,-1.9725,-1.9725,-1.9705,-1.9684,-1.9705,-1.9705,-1.9684,-1.9705,-1.9725,-1.9705,-1.9522,-1.9556,-1.9705,-2.5708,-2.5762,-2.5783,-2.5708,-2.564,-2.5566,-2.5498,-2.5335,-2.5213,-2.5145,-2.507,-2.4935,-2.4684,-2.467,-2.4548,-2.4243,-2.4229,-2.4229,-2.4229,-2.4229,-2.4087,-2.3788,-2.3714,-2.3571,-2.3327,-2.3259,-2.3083,-2.2784,-2.2784,-2.2622,-2.2268,-2.2268,-2.2268,-2.2268,-2.2268,-2.2303,-2.2215,-2.2072,-2.1916,-2.1774,-2.1618,-2.1475,-2.1319,-2.1245,-2.1177,-2.1089,-2.0946,-2.0845,-2.0821,-2.0682,-2.056,-2.0354,-2.0275,-2.0119,-1.9963,-1.982,-1.9773,-1.9725,-1.9725,-1.961,-1.9535,-1.9447,-1.9379,-1.9291,-1.9128,-1.9047,-1.8938,-1.8708,-1.8552,-1.8355,-1.8092,-1.7738,-1.7372,-1.7066,-1.6734,-1.6456,-1.6216,-1.6347,-1.6483,-1.6653,-1.6924,-1.7161,-1.7324,-1.7324,-1.7378,-1.7541,-1.748,-1.7568,-1.7825,-1.8023,-1.8247,-1.8552,-1.8708,-1.8884,-1.9094,-1.9183,-1.9257,-1.9325,-1.9413,-1.9488,-1.9556,-1.9556,-1.959,-1.9725,-1.9725,-1.9725,-1.9725,-1.9725,-1.9725,-1.9725,-1.9725,-1.9725,-1.9664,-1.9576,-1.961,-1.9705,-2.5688,-2.5762,-2.5796,-2.5762,-2.5654,-2.5586,-2.5586,-2.5355,-2.5179,-2.5179,-2.5057,-2.488,-2.4636,-2.4562,-2.4419,-2.4189,-2.4141,-2.4121,-2.4121,-2.4121,-2.3999,-2.3734,-2.3666,-2.3503,-2.3219,-2.3219,-2.3097,-2.2832,-2.2798,-2.2642,-2.2391,-2.2288,-2.2268,-2.2268,-2.2268,-2.2268,-2.2323,-2.2181,-2.2025,-2.1862,-2.1726,-2.1584,-2.1421,-2.1319,-2.1265,-2.1245,-2.1109,-2.0967,-2.0878,-2.0845,-2.0716,-2.051,-2.0417,-2.0275,-2.0119,-1.9976,-1.982,-1.9759,-1.9739,-1.9725,-1.9684,-1.9522,-1.9481,-1.9447,-1.9291,-1.9257,-1.9183,-1.8918,-1.8888,-1.8752,-1.8321,-1.8002,-1.7663,-1.746,-1.706,-1.6723,-1.6702,-1.6716,-1.687,-1.7107,-1.729,-1.7507,-1.7717,-1.7649,-1.7717,-1.7948,-1.786,-1.7914,-1.8179,-1.8301,-1.8511,-1.8909,-1.8972,-1.9115,-1.9257,-1.9379,-1.9447,-1.9481,-1.961,-1.9725,-1.9725,-1.9725,-1.9725,-1.9725,-1.9725,-1.9725,-1.9725,-1.9725,-1.9725,-1.9725,-1.9725,-1.9725,-1.9725,-1.9725,-1.9725,-1.9725,-2.5159,-2.5301,-2.5443,-2.5301,-2.5267,-2.5267,-2.5267,-2.5125,-2.5036,-2.5036,-2.4894,-2.4792,-2.4772,-2.4528,-2.4276,-2.4256,-2.4134,-2.4121,-2.4121,-2.4121,-2.4053,-2.389,-2.3612,-2.3323,-2.3219,-2.3219,-2.3151,-2.2995,-2.2852,-2.2696,-2.2534,-2.2391,-2.2268,-2.2268,-2.2268,-2.2268,-2.2323,-2.2181,-2.2025,-2.1862,-2.1726,-2.1584,-2.1375,-2.1421,-2.1421,-2.1341,-2.1245,-2.1197,-2.1157,-2.1034,-2.0878,-2.0736,-2.0573,-2.0374,-2.0275,-2.0139,-1.9976,-1.9882,-1.9759,-1.9725,-1.9725,-1.9705,-1.9705,-1.961,-1.9447,-1.9413,-1.9359,-1.9203,-1.9061,-1.8918,-1.88,-1.8477,-1.8035,-1.7514,-1.7446,-1.7318,-1.6777,-1.7169,-1.7521,-1.7541,-1.7846,-1.8091,-1.8247,-1.8267,-1.8267,-1.8287,-1.8287,-1.8335,-1.844,-1.8454,-1.8708,-1.9149,-1.9183,-1.9257,-1.9353,-1.9374,-1.9501,-1.9705,-1.9664,-1.9725,-1.9725,-1.9725,-1.9725,-1.9725,-1.9725,-1.9725,-1.9725,-1.9725,-1.9725,-1.9725,-1.9725,-1.9725,-1.9725,-1.9725,-1.9725,-1.9725,-2.5586,-2.5654,-2.5694,-2.5552,-2.5443,-2.5335,-2.5247,-2.5111,-2.5023,-2.5023,-2.4969,-2.486,-2.467,-2.4548,-2.4406,-2.4229,-2.4155,-2.4121,-2.4121,-2.4121,-2.4012,-2.3768,-2.347,-2.3273,-2.3219,-2.3219,-2.3151,-2.3008,-2.2961,-2.2798,-2.2624,-2.25,-2.2432,-2.2268,-2.2268,-2.2268,-2.2268,-2.2269,-2.216,-2.2004,-2.1862,-2.1706,-2.1564,-2.1475,-2.1375,-2.1375,-2.1367,-2.1299,-2.1211,-2.1143,-2.1034,-2.0892,-2.0736,-2.058,-2.0354,-2.0173,-1.9997,-1.9888,-1.9922,-1.98,-1.9725,-1.9725,-1.9725,-1.9705,-1.959,-1.9576,-1.9535,-1.9379,-1.9305,-1.9217,-1.9061,-1.8796,-1.8552,-1.8409,-1.8057,-1.7772,-1.7683,-1.7758,-1.7812,-1.7914,-1.8111,-1.8287,-1.8386,-1.8375,-1.8443,-1.8708,-1.8565,-1.8542,-1.8938,-1.8981,-1.9169,-1.9345,-1.9434,-1.9522,-1.9576,-1.9576,-1.961,-1.9725,-1.9725,-1.9725,-1.9725,-1.9725,-1.9725,-1.9725,-1.9725,-1.9725,-1.9725,-1.9725,-1.9725,-1.9725,-1.9725,-1.9725,-1.9725,-1.9725,-1.9725,-1.9725,-2.5688,-2.5688,-2.5654,-2.5498,-2.5389,-2.5287,-2.5179,-2.5091,-2.5023,-2.5023,-2.4982,-2.486,-2.465,-2.4548,-2.4419,-2.4209,-2.4155,-2.4121,-2.4121,-2.4066,-2.3965,-2.3754,-2.3449,-2.3293,-2.3293,-2.3239,-2.3171,-2.3083,-2.3029,-2.2873,-2.2692,-2.2644,-2.2479,-2.2268,-2.2268,-2.2268,-2.2268,-2.2268,-2.2249,-2.2093,-2.1991,-2.1862,-2.1726,-2.1618,-2.155,-2.1509,-2.1509,-2.1408,-2.1279,-2.1279,-2.119,-2.1055,-2.0946,-2.077,-2.056,-2.0261,-2.0098,-2.0031,-2.0085,-1.9963,-1.9848,-1.9793,-1.9759,-1.9725,-1.9725,-1.9725,-1.9684,-1.9522,-1.9501,-1.9447,-1.9305,-1.9115,-1.8972,-1.8993,-1.8609,-1.8267,-1.8443,-1.8321,-1.831,-1.8355,-1.8511,-1.864,-1.8728,-1.8654,-1.8728,-1.9027,-1.8864,-1.8884,-1.9183,-1.9345,-1.9374,-1.9374,-1.9576,-1.9725,-1.9725,-1.9725,-1.9725,-1.9725,-1.9725,-1.9725,-1.9725,-1.9725,-1.9725,-1.9725,-1.9725,-1.9725,-1.9725,-1.9725,-1.9725,-1.9725,-1.9725,-1.9725,-1.9725,-1.9725,-1.9725,-1.9725,-2.5301,-2.5233,-2.5199,-2.5057,-2.5023,-2.5023,-2.5023,-2.5023,-2.5023,-2.5023,-2.488,-2.4792,-2.4792,-2.4528,-2.4276,-2.4276,-2.4209,-2.4121,-2.4121,-2.3978,-2.389,-2.389,-2.3612,-2.3377,-2.3377,-2.3293,-2.3219,-2.3219,-2.3083,-2.294,-2.2784,-2.2692,-2.2479,-2.2268,-2.2268,-2.2268,-2.2268,-2.2268,-2.2249,-2.2113,-2.2113,-2.2025,-2.1882,-2.1882,-2.1794,-2.1672,-2.1672,-2.1564,-2.1375,-2.1375,-2.1333,-2.1211,-2.1211,-2.1001,-2.0716,-2.0417,-2.0329,-2.0295,-2.0153,-2.0098,-2.0064,-1.9908,-1.9827,-1.9725,-1.9725,-1.9725,-1.9725,-1.9725,-1.9725,-1.9671,-1.9468,-1.9374,-1.9279,-1.904,-1.8993,-1.8938,-1.8841,-1.8905,-1.8993,-1.8993,-1.9115,-1.9203,-1.9203,-1.9203,-1.9203,-1.9203,-1.9203,-1.9203,-1.9203,-1.9345,-1.9374,-1.9374,-1.9576,-1.9725,-1.9725,-1.9725,-1.9725,-1.9725,-1.9725,-1.9725,-1.9725,-1.9725,-1.9725,-1.9725,-1.9725,-1.9725,-1.9725,-1.9725,-1.9725,-1.9725,-1.9725,-1.9725,-1.9725,-1.9725,-1.9725,-1.9725,-2.5586,-2.5552,-2.5477,-2.5213,-2.5159,-2.5145,-2.5036,-2.5023,-2.5023,-2.5023,-2.4982,-2.486,-2.465,-2.4548,-2.4419,-2.4209,-2.4155,-2.4121,-2.4121,-2.4087,-2.4053,-2.4053,-2.366,-2.3377,-2.3377,-2.3293,-2.3219,-2.3219,-2.3083,-2.294,-2.2784,-2.2692,-2.2479,-2.2268,-2.2268,-2.2268,-2.2268,-2.2268,-2.2303,-2.22,-2.2147,-2.2079,-2.2025,-2.1916,-2.1862,-2.1815,-2.1815,-2.1726,-2.1597,-2.1597,-2.1496,-2.1353,-2.1245,-2.1001,-2.0756,-2.0668,-2.0492,-2.0286,-2.0397,-2.0261,-2.0085,-2.0051,-1.9922,-1.9861,-1.9861,-1.9793,-1.9725,-1.9725,-1.9725,-1.9705,-1.961,-1.9501,-1.9393,-1.9305,-1.9203,-1.9128,-1.9081,-1.9115,-1.9128,-1.9128,-1.9183,-1.9203,-1.9203,-1.9203,-1.9257,-1.9359,-1.9468,-1.9481,-1.9359,-1.9501,-1.959,-1.959,-1.9644,-1.9725,-1.9725,-1.9725,-1.9725,-1.9725,-1.9725,-1.9725,-1.9725,-1.9725,-1.9725,-1.9725,-1.9725,-1.9725,-1.9725,-1.9725,-1.9725,-1.9725,-1.9725,-1.9725,-1.9725,-1.9725,-1.9725,-1.9725,-2.5552,-2.5511,-2.5423,-2.5199,-2.5145,-2.5125,-2.5036,-2.5023,-2.5023,-2.5023,-2.4969,-2.4847,-2.4596,-2.4507,-2.4385,-2.4141,-2.4121,-2.4121,-2.4121,-2.4121,-2.4121,-2.4121,-2.3748,-2.3537,-2.3537,-2.3327,-2.3219,-2.3219,-2.313,-2.2995,-2.2784,-2.2696,-2.2534,-2.2268,-2.2268,-2.2268,-2.2268,-2.2268,-2.2268,-2.2268,-2.2235,-2.2201,-2.2201,-2.2093,-2.2025,-2.1971,-2.1971,-2.1848,-2.1672,-2.1672,-2.1564,-2.1408,-2.1265,-2.1089,-2.0933,-2.0878,-2.0702,-2.0539,-2.0682,-2.0505,-2.0295,-2.0349,-2.0153,-1.9942,-1.9888,-1.9861,-1.9732,-1.9739,-1.9725,-1.9725,-1.9725,-1.959,-1.9522,-1.9522,-1.9447,-1.9379,-1.9379,-1.9379,-1.9379,-1.9379,-1.9379,-1.9379,-1.9379,-1.9379,-1.9413,-1.9522,-1.961,-1.9624,-1.9522,-1.961,-1.9725,-1.9725,-1.9725,-1.9725,-1.9725,-1.9725,-1.9725,-1.9725,-1.9725,-1.9725,-1.9725,-1.9725,-1.9725,-1.9725,-1.9725,-1.9725,-1.9725,-1.9725,-1.9725,-1.9725,-1.9725,-1.9725,-1.9725,-1.9725,-1.9725,-1.9725,-2.5287,-2.5233,-2.5179,-2.5036,-2.5023,-2.5023,-2.5023,-2.5023,-2.5023,-2.5003,-2.488,-2.4724,-2.4562,-2.4419,-2.4277,-2.4141,-2.4121,-2.4121,-2.4121,-2.4121,-2.4121,-2.4121,-2.3843,-2.368,-2.368,-2.3381,-2.3219,-2.3219,-2.3205,-2.3063,-2.2784,-2.2764,-2.2608,-2.2268,-2.2268,-2.2268,-2.2268,-2.2268,-2.2268,-2.2268,-2.2268,-2.2268,-2.2268,-2.2268,-2.2249,-2.2127,-2.2127,-2.195,-2.1706,-2.1692,-2.1584,-2.1441,-2.1299,-2.1231,-2.1197,-2.1055,-2.0912,-2.0824,-2.0967,-2.079,-2.0614,-2.0756,-2.0492,-2.0139,-1.9963,-1.9908,-1.9854,-1.9732,-1.9759,-1.9759,-1.9739,-1.9739,-1.9739,-1.9725,-1.9725,-1.9725,-1.9725,-1.9725,-1.9725,-1.9725,-1.9725,-1.9725,-1.9725,-1.9725,-1.9725,-1.9725,-1.9725,-1.9725,-1.9725,-1.9725,-1.9725,-1.9725,-1.9725,-1.9725,-1.9725,-1.9725,-1.9725,-1.9725,-1.9725,-1.9725,-1.9725,-1.9725,-1.9725,-1.9725,-1.9725,-1.9725,-1.9725,-1.9725,-1.9725,-1.9725,-1.9725,-1.9725,-1.9725,-1.9725,-1.9725,-1.9725,-2.5287,-2.5233,-2.5179,-2.5036,-2.5023,-2.5023,-2.5023,-2.5023,-2.4982,-2.486,-2.4813,-2.4684,-2.4419,-2.4365,-2.4277,-2.4141,-2.4121,-2.4121,-2.4121,-2.4121,-2.4121,-2.4121,-2.3843,-2.368,-2.368,-2.3381,-2.3219,-2.3219,-2.3117,-2.2961,-2.2784,-2.2656,-2.252,-2.2268,-2.2268,-2.2268,-2.2268,-2.2268,-2.2268,-2.2268,-2.2268,-2.2268,-2.2268,-2.2268,-2.2254,-2.2289,-2.2289,-2.216,-2.2004,-2.1882,-2.174,-2.1618,-2.1584,-2.1408,-2.1211,-2.1177,-2.1068,-2.0967,-2.098,-2.0946,-2.0912,-2.0946,-2.0878,-2.0702,-2.0315,-2.0139,-2.0051,-2.001,-2.001,-1.9963,-1.9854,-1.9882,-1.9848,-1.9739,-1.9725,-1.9725,-1.9725,-1.9725,-1.9725,-1.9725,-1.9725,-1.9725,-1.9725,-1.9725,-1.9725,-1.9725,-1.9725,-1.9725,-1.9725,-1.9725,-1.9725,-1.9725,-1.9725,-1.9725,-1.9725,-1.9725,-1.9725,-1.9725,-1.9725,-1.9725,-1.9725,-1.9725,-1.9725,-1.9725,-1.9725,-1.9725,-1.9725,-1.9725,-1.9725,-1.9725,-1.9725,-1.9725,-1.9725,-1.9725,-1.9725,-1.9725,-2.5179,-2.5125,-2.5111,-2.5036,-2.5023,-2.5003,-2.4914,-2.4914,-2.486,-2.4704,-2.4616,-2.4528,-2.429,-2.4202,-2.4209,-2.4121,-2.4121,-2.4121,-2.4121,-2.4121,-2.4087,-2.4012,-2.3802,-2.3646,-2.3571,-2.3347,-2.3219,-2.3219,-2.3151,-2.3029,-2.2886,-2.2818,-2.2656,-2.2445,-2.2445,-2.2411,-2.2268,-2.2268,-2.2268,-2.2268,-2.2268,-2.2268,-2.2268,-2.2268,-2.2268,-2.2268,-2.2268,-2.2235,-2.2093,-2.1937,-2.1828,-2.176,-2.1692,-2.1564,-2.1421,-2.1333,-2.1211,-2.1123,-2.119,-2.1109,-2.1021,-2.1089,-2.1055,-2.0912,-2.0614,-2.0417,-2.0295,-2.0227,-2.0153,-2.0085,-1.9997,-1.9976,-1.9963,-1.9888,-1.9875,-1.9875,-1.9875,-1.9861,-1.9827,-1.9827,-1.9759,-1.9725,-1.9725,-1.9725,-1.9725,-1.9725,-1.9732,-1.9793,-1.9725,-1.98,-1.9841,-1.9827,-1.9841,-1.9841,-1.9827,-1.9841,-1.9841,-1.9827,-1.9827,-1.9827,-1.9827,-1.9827,-1.9732,-1.9725,-1.9725,-1.9725,-1.9725,-1.9725,-1.9725,-1.9725,-1.9725,-1.9725,-1.9725,-1.9725,-1.9725,-1.9725,-2.5057,-2.5023,-2.5023,-2.5023,-2.5003,-2.4935,-2.4813,-2.4772,-2.4704,-2.4548,-2.4419,-2.4256,-2.4235,-2.4189,-2.4121,-2.4121,-2.4121,-2.4121,-2.4121,-2.4121,-2.4053,-2.389,-2.3754,-2.3612,-2.3377,-2.3293,-2.3219,-2.3219,-2.3219,-2.3151,-2.3008,-2.3008,-2.2852,-2.2658,-2.2644,-2.2479,-2.2378,-2.2288,-2.2268,-2.2268,-2.2268,-2.2268,-2.2268,-2.2268,-2.2268,-2.2268,-2.2268,-2.2249,-2.2127,-2.2004,-2.1937,-2.1903,-2.1774,-2.1726,-2.1672,-2.153,-2.1387,-2.1319,-2.1408,-2.1265,-2.1109,-2.1231,-2.1157,-2.1034,-2.0912,-2.0756,-2.053,-2.0471,-2.0349,-2.0241,-2.0187,-2.0173,-2.0153,-2.0098,-2.0098,-2.0098,-2.0098,-1.9997,-1.9908,-1.9908,-1.9861,-1.9793,-1.9793,-1.9793,-1.9793,-1.9793,-1.9902,-1.9916,-1.9752,-1.9963,-2.0051,-1.997,-2.0031,-2.0051,-1.997,-2.0031,-2.0051,-1.9942,-1.9942,-1.9922,-1.9875,-1.9875,-1.98,-1.9725,-1.9725,-1.9725,-1.9725,-1.9725,-1.9725,-1.9725,-1.9725,-1.9725,-1.9725,-1.9725,-1.9725,-1.9725,-2.5057,-2.5023,-2.5023,-2.5023,-2.4914,-2.4813,-2.4792,-2.4684,-2.4548,-2.4406,-2.429,-2.4297,-2.4175,-2.4141,-2.4121,-2.4121,-2.4121,-2.4121,-2.4121,-2.4121,-2.4053,-2.389,-2.3754,-2.3612,-2.3377,-2.3293,-2.3219,-2.3219,-2.3219,-2.3151,-2.3008,-2.3008,-2.292,-2.2744,-2.2678,-2.2603,-2.252,-2.2391,-2.2268,-2.2268,-2.2268,-2.2268,-2.2268,-2.2268,-2.2268,-2.2268,-2.2268,-2.2323,-2.2303,-2.222,-2.2181,-2.2079,-2.2059,-2.195,-2.1828,-2.1686,-2.1618,-2.1584,-2.1409,-2.1341,-2.1321,-2.1341,-2.1387,-2.1367,-2.1353,-2.1143,-2.0933,-2.0912,-2.0892,-2.079,-2.0526,-2.0422,-2.0397,-2.0139,-2.0098,-2.0098,-2.0098,-2.0085,-2.0064,-2.0064,-2.0051,-2.0051,-2.0051,-2.0051,-2.0051,-2.0051,-2.0064,-2.0064,-2.0051,-2.0085,-2.0085,-2.0064,-2.0085,-2.0085,-2.0064,-2.0085,-2.0153,-2.0261,-2.0261,-2.0139,-1.9875,-1.9875,-1.98,-1.9725,-1.9725,-1.9725,-1.9725,-1.9725,-1.9725,-1.9725,-1.9725,-1.9725,-1.9725,-1.9725,-1.9725,-1.9725,-2.5036,-2.5023,-2.5023,-2.5023,-2.4894,-2.4758,-2.467,-2.4541,-2.4385,-2.4243,-2.4229,-2.4189,-2.4121,-2.4121,-2.4121,-2.4121,-2.4121,-2.4121,-2.4121,-2.4033,-2.3931,-2.3788,-2.3626,-2.3483,-2.3255,-2.3259,-2.3219,-2.3219,-2.3219,-2.3185,-2.313,-2.313,-2.3049,-2.2907,-2.2832,-2.2764,-2.2676,-2.252,-2.2466,-2.2445,-2.2378,-2.2268,-2.2268,-2.2268,-2.2268,-2.2268,-2.2268,-2.2268,-2.2268,-2.2268,-2.2289,-2.2215,-2.2147,-2.2059,-2.1991,-2.1828,-2.1794,-2.1774,-2.1706,-2.1686,-2.1672,-2.1584,-2.1564,-2.155,-2.1455,-2.1333,-2.1231,-2.1143,-2.1055,-2.0967,-2.0824,-2.0804,-2.0736,-2.0505,-2.0471,-2.0451,-2.0363,-2.0275,-2.0187,-2.0119,-2.0098,-2.0098,-2.0098,-2.0098,-2.0098,-2.0098,-2.0187,-2.0187,-2.0098,-2.0261,-2.0315,-2.0227,-2.0246,-2.0315,-2.0227,-2.0315,-2.0349,-2.0329,-2.0354,-2.0329,-2.0119,-2.0031,-1.9922,-1.9827,-1.9759,-1.9725,-1.9725,-1.9725,-1.9725,-1.9725,-1.9725,-1.9725,-1.9725,-1.9725,-1.9725,-1.9725]},{"header":{"parameterUnit":"m.s-1","parameterCategory":1,"la1":30.6,"la2":28.766,"lo1":-90.7593,"lo2":-88.6598,"dy":0.0162,"dx":0.0183,"nx":116,"ny":114,"refTime":"2024-06-19T12:00:00:Z","depth":0,"parameterNumber":3,"parameterNumberName":"V-component_of_WINDS"},"data":[0.0,0.0,0.0,0.0,0.0,0.0,0.0,0.0,0.0,0.0,0.0,0.0,0.0,0.0,0.0,0.0,0.0,0.0,0.0,0.0,0.0,0.0,0.0,0.0,0.0,0.0,0.0,0.0,0.0,0.0,0.0,0.0,0.0,0.0,0.0,0.0,0.0,0.0,0.0,0.0,0.0,0.0,0.0,0.0,0.0,0.0,0.0,0.0,0.0,0.0,0.0,0.0,0.0,0.0,0.0,0.0,0.0,0.0,0.0,0.0,0.0,0.0,0.0,0.0,0.0,0.0,0.0,0.0,0.0,0.0,0.0,0.0,0.0,0.0,0.0,0.0,0.0,0.0,0.0,0.0,0.0,0.0,0.0,0.0,0.0,0.0,0.0,0.0,0.0,0.0,0.0,0.0,0.0,0.0,0.0,0.0,0.0,0.0,0.0,0.0,0.0,0.0,0.0,0.0,0.0,0.0,0.0,0.0,0.0,0.0,0.0,0.0,0.0,0.0,0.0,0.0,0.0,0.0,0.0,0.0,0.0,0.0,0.0,0.0,0.0,0.0,0.0,0.0,0.0,0.0,0.0,0.0,0.0,0.0,0.0,0.0,0.0,0.0,0.0,0.0,0.0,0.0,0.0,0.0,0.0,0.0,0.0,0.0,0.0,0.0,0.0,0.0,0.0,0.0,0.0,0.0,0.0,0.0,0.0,0.0,0.0,0.0,0.0,0.0,0.0,0.0,0.0,0.0,0.0,0.0,0.0,0.0,0.0,0.0,0.0,0.0,0.0,0.0,0.0,0.0,0.0,0.0,0.0,0.0,0.0,0.0,0.0,0.0,0.0,0.0,0.0,0.0,0.0,0.0,0.0,0.0,0.0,0.0,0.0,0.0,0.0,0.0,0.0,0.0,0.0,0.0,0.0,0.0,0.0,0.0,0.0,0.0,0.0,0.0,0.0,0.0,0.0,0.0,0.0,0.0,0.0,0.0,0.0,0.0,0.0,0.0,0.0,0.0,0.0,0.0,0.0,0.0,0.0,0.0,0.0,0.0,0.0,0.0,0.0,0.0,0.0,0.0,0.0,0.0,0.0,0.0,0.0,0.0,0.0,0.0,0.0,0.0,0.0,0.0,0.0,0.0,0.0,0.0,0.0,0.0,0.0,0.0,0.0,0.0,0.0,0.0,0.0,0.0,0.0,0.0,0.0,0.0,0.0,0.0,0.0,0.0,0.0,0.0,0.0,0.0,0.0,0.0,0.0,0.0,0.0,0.0,0.0,0.0,0.0,0.0,0.0,0.0,0.0,0.0,0.0,0.0,0.0,0.0,0.0,0.0,0.0,0.0,0.0,0.0,0.0,0.0,0.0,0.0,0.0,0.0,0.0,0.0,0.0,0.0,0.0,0.0,0.0,0.0,0.0,0.0,0.0,0.0,0.0,0.0,0.0,0.0,0.0,0.0,0.0,0.0,0.0,0.0,0.0,0.0,0.0,0.0,0.0,0.0,0.0,0.0,0.0,0.0,0.0,0.0,0.0,0.0,0.0,0.0,0.0,0.0,0.0,0.0,0.0,0.0,0.0,0.0,0.0,0.0,0.0,0.0,0.0,0.0,0.0,0.0,0.0,0.0,0.0,0.0,0.0,0.0,0.0,0.0,0.0,0.0,0.0,0.0,0.0,0.0,0.0,0.0,0.0,0.0,0.0,0.0,0.0,0.0,0.0,0.0,0.0,0.0,0.0,0.0,0.0,0.0,0.0,0.0,0.0,0.0,0.0,0.0,0.0,0.0,0.0,0.0,0.0,0.0,0.0,0.0,0.0,0.0,0.0,0.0,0.0,0.0,0.0,0.0,0.0,0.0,0.0,0.0,0.0,0.0,0.0,0.0,0.0,0.0,0.0,0.0,0.0,0.0,0.0,0.0,0.0,0.0,0.0,0.0,0.0,0.0,0.0,0.0,0.0,0.0,0.0,0.0,0.0,0.0,0.0,0.0,0.0,0.0,0.0,0.0,0.0,0.0,0.0,0.0,0.0,0.0,0.0,0.0,0.0,0.0,0.0,0.0,0.0,0.0,0.0,0.0,0.0,0.0,0.0,0.0,0.0,0.0,0.0,0.0,0.0,0.0,0.0,0.0,0.0,0.0,0.0,0.0,0.0,0.0,0.0,0.0,0.0,0.0,0.0,0.0,0.0,0.0,0.0,0.0,0.0,0.0,0.0,0.0,0.0,0.0,0.0,0.0,0.0,0.0,0.0,0.0,0.0,0.0,0.0,0.0,0.0,0.0,0.0,0.0,0.0,0.0,0.0,0.0,0.0,0.0,0.0,0.0,0.0,0.0,0.0,0.0,0.0,0.0,0.0,0.0,0.0,0.0,0.0,0.0,0.0,0.0,0.0,0.0,0.0,0.0,0.0,0.0,0.0,0.0,0.0,0.0,0.0,0.0,0.0,0.0,0.0,0.0,0.0,0.0,0.0,0.0,0.0,0.0,0.0,0.0,0.0,0.0,0.0,0.0,0.0,0.0,0.0,0.0,0.0,0.0,0.0,0.0,0.0,0.0,0.0,0.0,0.0,0.0,0.0,0.0,0.0,0.0,0.0,0.0,0.0,0.0,0.0,0.0,0.0,0.0,0.0,0.0,0.0,0.0,0.0,0.0,0.0,0.0,0.0,0.0,0.0,0.0,0.0,0.0,0.0,0.0,0.0,0.0,0.0,0.0,0.0,0.0,0.0,0.0,0.0,0.0,0.0,0.0,0.0,0.0,0.0,0.0,0.0,0.0,0.0,0.0,0.0,0.0,0.0,0.0,0.0,0.0,0.0,0.0,0.0,0.0,0.0,0.0,0.0,0.0,0.0,0.0,0.0,0.0,0.0,0.0,0.0,0.0,0.0,0.0,0.0,0.0,0.0,0.0,0.0,0.0,0.0,0.0,0.0,0.0,0.0,0.0,0.0,0.0,0.0,0.0,0.0,0.0,0.0,0.0,0.0,0.0,0.0,0.0,0.0,0.0,0.0,0.0,0.0,0.0,0.0,0.0,0.0,0.0,0.0,0.0,0.0,0.0,0.0,0.0,0.0,0.0,0.0,0.0,0.0,0.0,0.0,0.0,0.0,0.0,0.0,0.0,0.0,0.0,0.0,0.0,0.0,0.0,0.0,0.0,0.0,0.0,0.0,0.0,0.0,0.0,0.0,0.0,0.0,0.0,0.0,0.0,0.0,0.0,0.0,0.0,0.0,0.0,0.0,0.0,0.0,0.0,0.0,0.0,0.0,0.0,0.0,0.0,0.0,0.0,0.0,0.0,0.0,0.0,0.0,0.0,0.0,0.0,0.0,0.0,0.0,0.0,0.0,0.0,0.0,0.0,0.0,0.0,0.0,0.0,0.0,0.0,0.0,0.0,0.0,0.0,0.0,0.0,0.0,0.0,0.0,0.0,0.0,0.0,0.0,0.0,0.0,0.0,0.0,0.0,0.0,0.0,0.0,0.0,0.0,0.0,0.0,0.0,0.0,0.0,0.0,0.0,0.0,0.0,0.0,0.0,0.0,0.0,0.0,0.0,0.0,0.0,0.0,0.0,0.0,0.0,0.0,0.0,0.0,0.0,0.0,0.0,0.0,0.0,0.0,0.0,0.0,0.0,0.0,0.0,0.0,0.0,0.0,0.0,0.0,0.0,0.0,0.0,0.0,0.0,0.0,0.0,0.0,0.0,0.0,0.0,0.0,0.0,0.0,0.0,0.0,0.0,0.0,0.0,0.0,0.0,0.0,0.0,0.0,0.0,0.0,0.0,0.0,0.0,0.0,0.0,0.0,0.0,0.0,0.0,0.0,0.0,0.0,0.0,0.0,0.0,0.0,0.0,0.0,0.0,0.0,0.0,0.0,0.0,0.0,0.0,0.0,0.0,0.0,0.0,0.0,0.0,0.0,0.0,0.0,0.0,0.0,0.0,0.0,0.0,0.0,0.0,0.0,0.0,0.0,0.0,0.0,0.0,0.0,0.0,0.0,0.0,0.0,0.0,0.0,0.0,0.0,0.0,0.0,0.0,0.0,0.0,0.0,0.0,0.0,0.0,0.0,0.0,0.0,0.0,0.0,0.0,0.0,0.0,0.0,0.0,0.0,0.0,0.0,0.0,0.0,0.0,0.0,0.0,0.0,0.0,0.0,0.0,0.0,0.0,0.0,0.0,0.0,0.0,0.0,0.0,0.0,0.0,0.0,0.0,0.0,0.0,0.0,0.0,0.0,0.0,0.0,0.0,0.0,0.0,0.0,0.0,0.0,0.0,0.0,0.0,0.0,0.0,0.0,0.0,0.0,0.0,0.0,0.0,0.0,0.0,0.0,0.0,0.0,0.0,0.0,0.0,0.0,0.0,0.0,0.0,0.0,0.0,0.0,0.0,0.0,0.0,0.0,0.0,0.0,0.0,0.0,0.0,0.0,0.0,0.0,0.0,0.0,0.0,0.0,0.0,0.0,0.0,0.0,0.0,0.0,0.0,0.0,0.0,0.0,0.0,0.0,0.0,0.0,0.0,0.0,0.0,0.0,0.0,0.0,0.0,0.0,0.0,0.0,0.0,0.0,0.0,0.0,0.0,0.0,0.0,0.0,0.0,0.0,0.0,0.0,0.0,0.0,0.0,0.0,0.0,0.0,0.0,0.0,0.0,0.0,0.0,0.0,0.0,0.0,0.0,0.0,0.0,0.0,0.0,0.0,0.0,0.0,0.0,0.0,0.0,0.0,0.0,0.0,0.0,0.0,0.0,0.0,0.0,0.0,0.0,0.0,0.0,0.0,0.0,0.0,0.0,0.0,0.0,0.0,0.0,0.0,0.0,0.0,0.0,0.0,0.0,0.0,0.0,0.0,0.0,0.0,0.0,0.0,0.0,0.0,0.0,0.0,0.0,0.0,0.0,0.0,0.0,0.0,0.0,0.0,0.0,0.0,0.0,0.0,0.0,0.0,0.0,0.0,0.0,0.0,0.0,0.0,0.0,0.0,0.0,0.0,0.0,0.0,0.0,0.0,0.0,0.0,0.0,0.0,0.0,0.0,0.0,0.0,0.0,0.0,0.0,0.0,0.0,0.0,0.0,0.0,0.0,0.0,0.0,0.0,0.0,0.0,0.0,0.0,0.0,0.0,0.0,0.0,0.0,0.0,0.0,0.0,0.0,0.0,0.0,0.0,0.0,0.0,0.0,0.0,0.0,0.0,0.0,0.0,0.0,0.0,0.0,0.0,0.0,0.0,0.0,0.0,0.0,0.0,0.0,0.0,0.0,0.0,0.0,0.0,0.0,0.0,0.0,0.0,0.0,0.0,0.0,0.0,0.0,0.0,0.0,0.0,0.0,0.0,0.0,0.0,0.0,0.0,0.0,0.0,0.0,0.0,0.0,0.0,0.0,0.0,0.0,0.0,0.0,0.0,0.0,0.0,0.0,0.0,0.0,0.0,0.0,0.0,0.0,0.0,0.0,0.0,0.0,0.0,0.0,0.0,0.0,0.0,0.0,0.0,0.0,0.0,0.0,0.0,0.0,0.0,0.0,0.0,0.0,0.0,0.0,0.0,0.0,0.0,0.0,0.0,0.0,0.0,0.0,0.0,0.0,0.0,0.0,0.0,0.0,0.0,0.0,0.0,0.0,0.0,0.0,0.0,0.0,0.0,0.0,0.0,0.0,0.0,0.0,0.0,0.0,0.0,0.0,0.0,0.0,0.0,0.0,0.0,0.0,0.0,0.0,0.0,0.0,0.0,0.0,0.0,0.0,0.0,0.0,0.0,0.0,0.0,0.0,0.0,0.0,0.0,0.0,0.0,0.0,0.0,0.0,0.0,0.0,0.0,0.0,0.0,0.0,0.0,0.0,0.0,0.0,0.0,0.0,0.0,0.0,0.0,0.0,0.0,0.0,0.0,0.0,0.0,0.0,0.0,0.0,0.0,0.0,0.0,0.0,0.0,0.0,0.0,0.0,0.0,0.0,0.0,0.0,0.0,0.0,0.0,0.0,0.0,0.0,0.0,0.0,0.0,0.0,0.0,0.0,0.0,0.0,0.0,0.0,0.0,0.0,0.0,0.0,0.0,0.0,0.0,0.0,0.0,0.0,0.0,0.0,0.0,0.0,7.2283,6.9706,0.0,0.0,0.0,0.0,0.0,0.0,0.0,0.0,0.0,0.0,0.0,0.0,0.0,0.0,0.0,0.0,0.0,0.0,0.0,0.0,0.0,0.0,0.0,5.3445,5.4876,5.6051,5.6161,5.6345,5.6723,5.676,5.6576,5.6198,5.5794,5.517,5.4363,5.3555,5.3335,5.3691,5.3335,5.3335,5.3654,5.2344,5.0472,4.8233,0.0,0.0,0.0,0.0,0.0,0.0,0.0,0.0,0.0,0.0,0.0,0.0,0.0,0.0,0.0,0.0,0.0,0.0,0.0,0.0,0.0,0.0,0.0,0.0,0.0,0.0,0.0,0.0,0.0,0.0,0.0,0.0,0.0,0.0,0.0,0.0,0.0,0.0,0.0,0.0,0.0,0.0,0.0,0.0,0.0,0.0,0.0,0.0,0.0,0.0,0.0,0.0,0.0,0.0,0.0,0.0,0.0,0.0,0.0,0.0,0.0,0.0,0.0,0.0,0.0,0.0,0.0,0.0,0.0,0.0,8.0127,7.6515,0.0,0.0,0.0,0.0,0.0,0.0,0.0,0.0,0.0,0.0,0.0,0.0,0.0,0.0,0.0,0.0,0.0,0.0,0.0,0.0,0.0,4.9444,5.194,5.3665,5.5317,5.7068,5.7068,5.7373,5.8143,5.807,5.7703,5.7031,5.6994,5.6638,5.5842,5.528,5.5684,5.6994,5.6235,5.6712,5.8315,5.8951,5.7152,5.3261,5.1436,0.0,0.0,0.0,0.0,0.0,0.0,0.0,0.0,0.0,0.0,0.0,0.0,0.0,0.0,0.0,0.0,0.0,0.0,0.0,0.0,0.0,0.0,0.0,0.0,0.0,0.0,0.0,0.0,0.0,0.0,0.0,0.0,0.0,0.0,0.0,0.0,0.0,0.0,0.0,0.0,0.0,0.0,0.0,0.0,0.0,0.0,0.0,0.0,0.0,0.0,0.0,0.0,0.0,0.0,0.0,0.0,0.0,0.0,0.0,0.0,0.0,0.0,0.0,9.1881,9.367,9.8322,9.48,9.5537,9.8952,8.9365,8.5634,8.5928,8.0225,0.0,0.0,0.0,0.0,0.0,0.0,0.0,0.0,0.0,0.0,0.0,0.0,0.0,0.0,0.0,0.0,0.0,0.0,0.0,5.0288,5.2774,5.4473,5.6381,5.8682,5.8242,5.818,5.8976,5.84,5.796,5.785,5.785,5.7483,5.6675,5.7226,5.7629,5.785,6.0444,6.2536,6.4187,6.4297,6.4004,6.3123,5.7384,5.5511,5.6381,0.0,0.0,0.0,0.0,0.0,0.0,0.0,0.0,0.0,0.0,0.0,0.0,0.0,0.0,0.0,0.0,0.0,0.0,0.0,0.0,0.0,0.0,0.0,0.0,0.0,0.0,0.0,0.0,0.0,0.0,0.0,0.0,0.0,0.0,0.0,0.0,0.0,0.0,0.0,0.0,0.0,7.3542,7.724,0.0,0.0,0.0,0.0,0.0,0.0,0.0,0.0,0.0,0.0,0.0,0.0,0.0,9.2961,9.5412,9.7847,9.928,9.9743,10.16,10.2915,10.3689,10.3109,10.3187,10.3801,10.2299,0.0,9.1828,8.7314,0.0,0.0,0.0,0.0,0.0,0.0,0.0,0.0,0.0,0.0,0.0,0.0,0.0,0.0,0.0,0.0,0.0,0.0,0.0,0.0,0.0,5.6381,5.84,6.0382,6.108,6.097,5.993,5.9979,5.9428,5.807,5.7997,5.8033,5.8132,5.9391,6.1153,6.3442,6.6219,6.7967,6.8665,6.9142,6.9339,6.9155,6.4934,6.1704,5.9061,5.4777,0.0,0.0,0.0,0.0,0.0,0.0,0.0,0.0,0.0,0.0,0.0,0.0,0.0,0.0,0.0,0.0,0.0,0.0,0.0,0.0,0.0,0.0,0.0,0.0,0.0,0.0,0.0,0.0,0.0,0.0,0.0,0.0,0.0,0.0,0.0,0.0,0.0,0.0,0.0,7.5911,8.0694,8.1808,8.0961,7.9587,0.0,0.0,0.0,0.0,0.0,0.0,0.0,0.0,0.0,9.8745,10.0794,10.2807,10.4881,10.6491,10.7783,10.8718,10.9819,11.0915,11.1812,11.1306,11.1111,11.0994,10.959,10.6502,10.2011,9.5361,9.0707,8.7408,0.0,0.0,0.0,0.0,8.4866,8.5753,0.0,0.0,0.0,0.0,0.0,0.0,0.0,0.0,0.0,0.0,0.0,0.0,5.6161,5.8327,6.0407,6.2658,6.3751,6.3714,6.2251,6.1863,6.0955,5.9386,5.8593,5.8666,5.9649,6.1973,6.5057,6.8949,7.1138,7.2334,7.2555,7.3156,7.3303,7.3046,7.1248,6.7857,6.3209,5.8951,5.5768,5.3298,0.0,0.0,0.0,0.0,0.0,0.0,0.0,0.0,0.0,0.0,0.0,0.0,0.0,0.0,0.0,0.0,0.0,0.0,0.0,0.0,0.0,0.0,0.0,0.0,0.0,0.0,0.0,0.0,0.0,0.0,0.0,0.0,0.0,0.0,0.0,0.0,0.0,8.2532,8.6542,8.5972,8.7336,8.6593,0.0,0.0,0.0,0.0,0.0,0.0,9.8505,10.169,10.4707,10.7516,10.9793,11.1704,11.331,11.3716,11.4584,11.5789,11.5606,11.6118,11.7402,11.6707,11.6279,11.6013,11.4106,11.2317,11.0113,10.2186,9.7845,9.5739,9.2243,9.0323,8.9889,9.2537,9.3589,9.4191,0.0,0.0,0.0,0.0,0.0,0.0,0.0,0.0,0.0,0.0,0.0,5.4609,5.8572,5.982,6.1924,6.5925,6.5382,6.5467,6.688,6.3759,6.2201,6.2907,6.0177,5.9407,6.0976,6.5201,6.8972,7.2275,7.3913,7.5102,7.5873,7.5909,7.5506,7.4757,7.4647,7.3582,7.1431,6.431,6.119,6.0578,5.5086,0.0,0.0,0.0,0.0,0.0,0.0,0.0,0.0,0.0,0.0,0.0,0.0,0.0,0.0,0.0,0.0,0.0,0.0,0.0,0.0,0.0,0.0,0.0,0.0,0.0,0.0,0.0,0.0,0.0,0.0,0.0,0.0,0.0,0.0,0.0,0.0,0.0,0.0,9.0269,9.3512,0.0,0.0,0.0,0.0,9.6118,9.9438,10.3205,10.7499,11.0205,11.3199,11.6516,11.7599,11.85,11.94,11.8712,11.8407,11.8485,11.7713,11.7285,11.7402,11.7407,11.6902,11.6091,11.6013,11.5007,11.2917,10.679,10.2698,10.0212,9.8672,9.7522,9.7106,9.9996,10.1093,10.121,0.0,0.0,0.0,0.0,0.0,4.4635,4.5736,4.7285,4.9103,5.1293,5.4558,5.7724,6.0455,6.3356,6.6109,6.8605,6.931,6.9404,6.8954,6.6503,6.5483,6.6447,6.387,6.4486,6.8919,7.0676,7.3156,7.6423,7.7524,7.8185,7.8494,7.8494,7.8332,7.8002,7.6922,7.6445,7.5983,6.9192,6.5081,6.2818,5.8143,5.495,0.0,0.0,0.0,0.0,0.0,0.0,0.0,0.0,0.0,0.0,0.0,0.0,0.0,0.0,0.0,0.0,0.0,0.0,0.0,0.0,0.0,0.0,0.0,0.0,0.0,0.0,0.0,0.0,0.0,0.0,0.0,0.0,0.0,0.0,0.0,0.0,0.0,9.7847,10.1089,0.0,9.708,9.9142,10.1681,10.4111,10.7318,11.0802,11.4515,11.6984,11.9116,12.0787,12.1715,12.2304,12.2613,12.1812,12.1696,12.2198,12.1309,12.1193,12.1696,12.1193,12.0507,11.9503,11.7889,11.6497,11.5192,11.1987,10.9012,10.6315,10.4809,10.3906,10.3802,10.4782,10.5594,10.6013,0.0,0.0,0.0,0.0,4.4158,4.5019,4.5959,4.8221,5.0605,5.2732,5.6749,6.041,6.2977,6.6145,6.9057,7.1451,7.2162,7.2456,7.2492,6.9768,6.8733,6.9992,6.8265,6.9309,7.3618,7.5241,7.7515,8.0508,8.131,8.1718,8.1718,8.1421,8.1147,8.0813,7.9426,7.8944,7.8929,7.4395,7.0334,6.6586,6.2805,6.0321,5.8497,0.0,0.0,0.0,0.0,0.0,0.0,0.0,0.0,0.0,0.0,0.0,0.0,0.0,0.0,0.0,0.0,0.0,0.0,0.0,0.0,0.0,0.0,0.0,0.0,0.0,0.0,0.0,0.0,0.0,0.0,0.0,0.0,0.0,0.0,9.7245,10.2117,10.2687,10.6702,10.7786,10.3487,10.64,10.9392,11.1391,11.4309,11.7204,12.0014,12.191,12.3293,12.4216,12.4716,12.4986,12.4986,12.4216,12.3985,12.4486,12.3716,12.3601,12.4101,12.3293,12.2408,12.1497,11.9485,11.7792,11.6418,11.5291,11.3188,11.0595,10.9579,10.9002,10.8788,10.8899,10.9093,10.9082,0.0,0.0,0.0,4.3543,4.4212,4.5178,4.6371,4.9409,5.2432,5.4782,5.8693,6.2628,6.6213,6.8071,7.0602,7.4373,7.3695,7.4396,7.7484,7.3438,7.1745,7.3546,7.321,7.3554,7.4733,7.8689,8.1943,8.4376,8.5171,8.5574,8.5536,8.4668,8.3874,8.3093,8.2201,8.137,8.0603,7.9888,7.6977,7.2531,6.9183,6.6893,6.5147,0.0,0.0,0.0,0.0,0.0,0.0,0.0,0.0,0.0,0.0,0.0,0.0,0.0,0.0,0.0,0.0,0.0,0.0,0.0,0.0,0.0,0.0,0.0,0.0,0.0,0.0,0.0,0.0,0.0,0.0,0.0,0.0,0.0,9.4807,10.0384,10.4511,10.4606,11.0295,11.2599,10.8482,11.3291,11.6984,11.7907,12.0292,12.2408,12.4101,12.4986,12.5794,12.669,12.669,12.669,12.669,12.5909,12.5409,12.5409,12.4601,12.4216,12.4216,12.3408,12.2485,12.16,12.0793,11.8908,11.6611,11.6611,11.5099,11.2806,11.3114,11.2713,11.1879,11.2206,11.1694,11.0594,0.0,0.0,4.369,4.4268,4.527,4.6545,4.8091,5.1126,5.4298,5.7225,6.1845,6.5906,6.859,7.1237,7.3464,7.5128,7.4805,7.5399,7.7475,7.4013,7.3168,7.613,7.8623,8.0954,8.307,8.3782,8.4755,8.6027,8.6845,8.6946,8.6354,8.6128,8.5901,8.5637,8.4806,8.4315,8.3939,8.2623,8.1282,7.9503,7.3577,7.0843,6.9855,0.0,0.0,0.0,0.0,0.0,0.0,0.0,0.0,0.0,0.0,0.0,0.0,0.0,0.0,0.0,0.0,0.0,0.0,0.0,0.0,0.0,0.0,0.0,0.0,0.0,0.0,0.0,0.0,0.0,0.0,0.0,9.7045,10.1606,10.2095,10.6912,11.1314,11.379,11.6716,11.8407,11.7792,11.9792,12.1216,12.1485,12.3293,12.4601,12.4986,12.5909,12.6498,12.669,12.669,12.669,12.669,12.6498,12.6294,12.6294,12.6101,12.5986,12.5986,12.5794,12.4793,12.3408,12.2485,12.11,11.9177,11.7907,11.6715,11.5314,11.35,11.2279,11.1605,11.1712,11.1189,11.0321,0.0,4.4011,4.4268,4.5076,4.6498,4.7919,4.9082,5.2485,5.6112,5.9302,6.3862,6.7766,7.0356,7.2837,7.473,7.5794,7.538,7.5791,7.7352,7.6148,7.6592,7.9285,8.2446,8.4986,8.6758,8.7166,8.7732,8.8608,8.9054,8.9054,8.857,8.8216,8.8026,8.8026,8.7198,8.6817,8.6709,8.5462,8.4742,8.3957,7.9276,7.6701,7.5278,7.1767,6.9788,6.8608,6.6597,6.5256,6.4374,6.4162,0.0,0.0,0.0,0.0,0.0,0.0,0.0,0.0,0.0,0.0,0.0,0.0,0.0,0.0,0.0,0.0,0.0,0.0,0.0,0.0,0.0,0.0,0.0,0.0,10.3789,10.8213,11.0214,11.2406,11.5215,11.8908,12.0292,12.1293,12.2485,12.3408,12.3909,12.3909,12.5178,12.5909,12.5909,12.6717,12.6986,12.669,12.6986,12.6986,12.669,12.669,12.669,12.669,12.669,12.669,12.669,12.6294,12.5409,12.4101,12.3204,12.1716,11.9715,11.8715,11.7407,11.5918,0.0,0.0,0.0,0.0,11.1214,11.0714,0.0,4.47,4.4993,4.5883,4.7736,4.9268,4.9903,5.3691,5.7738,6.1248,6.5159,6.8692,7.1572,7.3453,7.4955,7.609,7.5753,7.6165,7.7769,7.9515,8.1208,8.2824,8.5209,8.694,8.7825,8.9393,9.0509,9.121,9.1402,9.1441,9.1325,9.0663,9.0278,9.0163,8.944,8.9026,8.8808,8.8183,8.7447,8.6556,8.5243,8.3159,8.0602,7.7978,7.6235,7.4988,7.3512,7.1003,6.8516,6.8921,0.0,0.0,0.0,0.0,0.0,0.0,0.0,0.0,0.0,0.0,0.0,0.0,0.0,0.0,0.0,0.0,0.0,0.0,0.0,0.0,0.0,0.0,0.0,0.0,11.0521,11.4407,11.7792,11.6907,11.7407,12.1304,12.1908,12.2689,12.4216,12.5101,12.5486,12.5486,12.6306,12.669,12.669,12.7409,0.0,0.0,0.0,12.7409,12.669,12.669,12.669,12.669,12.669,12.669,12.669,12.5909,12.5101,12.4216,12.3408,12.1716,11.9485,11.9292,11.7792,11.561,11.5291,11.4099,11.2588,11.1895,11.1588,11.1406,0.0,4.47,4.5177,4.6599,4.8331,5.0168,5.2258,5.5027,5.8661,6.3641,6.6604,6.9314,7.2133,7.4384,7.5502,7.5081,7.6748,7.8823,8.117,8.3555,8.5324,8.6363,8.8171,8.9586,9.0441,9.1479,9.1748,9.121,9.2556,9.2864,9.2249,9.2749,9.2633,9.1979,9.1825,9.0979,8.9663,8.9536,8.9001,8.8233,8.7951,8.5992,8.3043,8.1163,8.0324,7.9924,7.8281,7.7242,7.6655,7.6795,7.4894,7.2476,7.2295,6.9788,0.0,0.0,0.0,0.0,0.0,0.0,0.0,0.0,0.0,0.0,0.0,0.0,0.0,0.0,0.0,0.0,0.0,0.0,0.0,10.8906,11.3599,11.7792,12.0485,12.0612,12.0908,12.2485,12.3793,12.5101,12.6101,12.6294,12.6409,12.6409,12.6601,12.669,12.669,12.6794,12.6921,12.669,12.6921,12.6921,12.669,12.669,12.669,12.669,12.669,0.0,12.669,12.6486,12.5986,12.5101,12.4216,12.3216,12.21,12.06,11.8985,11.71,11.5099,11.3599,11.2714,11.2511,11.2099,11.1522,4.5727,4.5902,4.6425,4.8049,4.9712,5.1495,5.3573,5.6021,5.9365,6.419,6.6503,6.8632,7.0885,7.2508,7.2937,7.1661,7.4284,7.763,8.1439,8.4093,8.644,8.8556,8.9863,9.0979,9.1825,9.2287,9.2479,9.2441,9.3287,9.348,9.3104,9.3643,9.367,9.3292,9.3428,9.3006,9.2161,9.1728,9.107,9.0262,8.983,8.868,8.7075,8.5252,8.4048,8.3272,8.2512,8.1684,8.0975,8.0989,7.9472,7.7527,7.7199,7.4796,7.1719,0.0,0.0,0.0,0.0,0.0,0.0,0.0,0.0,0.0,0.0,0.0,0.0,0.0,0.0,9.6826,10.0596,0.0,11.0714,11.4099,11.7484,12.0292,12.1985,12.2985,12.3678,12.4101,12.4909,12.5678,12.6601,12.669,12.669,12.669,12.669,12.6921,12.7294,12.7717,12.7794,12.7294,12.7717,12.7486,12.669,12.669,12.669,12.669,12.669,12.669,12.669,12.669,12.6178,12.5409,12.4909,12.3793,12.21,11.9908,11.86,11.7588,11.5907,11.4714,11.3907,11.3022,11.2395,11.2011,4.7003,4.7489,4.8041,4.9489,5.0958,5.2643,5.458,5.6817,5.9775,6.382,6.5667,6.7205,6.8783,6.9821,7.0156,6.9489,7.2444,7.646,8.1546,8.4435,8.7292,9.0287,9.1248,9.2023,9.2772,9.2965,9.3315,9.3869,9.4177,9.4255,9.4108,9.467,9.4847,9.4666,9.4878,9.4894,9.4661,9.3644,9.2788,9.2087,9.1188,9.0833,9.0704,8.9152,8.7608,8.6228,8.6074,8.4821,8.326,8.3419,8.2255,8.0635,8.013,7.8456,7.6271,7.4583,7.3784,0.0,0.0,0.0,0.0,0.0,0.0,0.0,0.0,8.8783,9.1402,9.7048,10.0789,10.4492,10.929,11.2406,11.5407,11.8985,12.0985,12.2408,12.3293,12.4486,12.5486,12.5601,12.5678,12.5909,12.6601,12.669,12.6806,12.6909,12.6909,12.7294,12.8089,12.8794,12.8909,12.8217,12.8717,12.8294,12.6909,12.6806,12.669,12.669,12.669,12.669,12.669,12.669,12.6294,12.5601,12.5293,12.3793,12.142,11.8985,11.81,11.7907,11.6907,11.611,11.5291,11.3599,11.2791,11.2599,0.0,4.8783,4.9498,5.0022,5.1172,5.2936,5.5746,5.739,5.9544,6.3006,6.4282,6.5243,6.6205,6.7744,6.9868,7.2844,7.5677,7.9413,8.4321,8.7815,9.0433,9.2151,9.2979,9.3563,9.39,9.4674,9.488,9.4422,9.5884,9.6229,9.5496,9.7081,9.7412,9.6677,9.6705,9.6334,9.5565,9.3917,9.3134,9.2978,9.2118,9.1763,9.1746,9.1703,9.0999,8.9791,8.8338,8.6202,8.417,8.4957,8.3595,8.1721,8.257,8.1998,8.0703,7.9112,7.7441,7.6341,7.7645,7.9442,8.2335,8.8351,8.8986,9.1271,0.0,10.4396,10.4212,10.8703,11.1791,11.3802,11.4495,11.7292,11.9908,12.11,12.2716,12.4101,12.4986,12.5293,12.5678,12.6498,12.6614,12.6614,12.669,12.669,12.6986,12.7717,12.7794,12.8089,12.8986,12.9102,12.9217,12.9102,12.8397,12.7986,12.7794,12.7101,12.669,12.669,12.669,12.669,12.669,12.669,12.6601,12.6498,12.4909,12.3216,12.1497,11.9715,11.8985,11.8792,11.71,11.6418,11.6187,11.4484,11.3407,11.2599,0.0,4.8892,5.0226,5.111,5.2038,5.3686,5.6657,5.7785,5.9358,6.2204,6.332,6.382,6.3711,6.394,6.5543,6.9153,7.3216,7.7734,8.2796,8.7267,9.068,9.2818,9.3239,9.3921,9.5023,9.5373,9.5703,9.5932,9.6662,9.6817,9.6472,9.7893,9.8335,9.799,9.8114,9.7987,9.7559,9.584,9.5137,9.5018,9.3613,9.3064,9.2951,9.2046,9.069,8.9245,8.8668,8.7042,0.0,8.4446,8.3789,8.3193,8.3134,8.2475,8.1682,8.1532,8.1511,8.2339,8.5887,8.8744,9.1264,9.3592,9.698,10.0981,10.5597,10.7405,10.9098,11.2906,11.5291,11.7215,11.8677,11.9677,12.0908,12.2793,12.3601,12.4216,12.4601,12.4601,12.4409,12.3805,12.4178,12.5101,12.6614,12.669,12.6986,12.7782,12.7897,12.8486,12.991,12.9987,12.9987,12.9987,12.9102,12.8397,12.7897,12.7101,12.669,12.669,12.669,12.669,12.669,12.669,12.6409,12.5909,12.4601,12.3408,12.2216,12.0485,11.9485,11.8985,11.7715,11.6907,11.6303,11.4599,11.3791,11.3291,0.0,4.9345,5.1072,5.2294,5.3171,5.4546,5.7046,5.7949,5.905,6.1095,6.2089,6.2388,6.1863,6.1397,6.2474,6.5823,7.0814,7.5881,8.074,8.631,9.0458,9.2736,9.3514,9.4479,9.5786,9.6059,9.6514,9.7188,9.7422,9.7539,9.7581,9.8904,9.9485,9.9527,9.9644,9.957,9.9258,9.7539,9.6522,9.5892,9.4408,9.362,9.3139,9.1239,8.9467,8.8029,8.8003,8.6307,8.3874,8.2659,8.2549,8.2832,8.2411,8.2174,8.2267,8.3834,8.5336,8.7258,9.0826,9.4249,9.7057,9.8134,10.3097,10.7713,10.7905,11.0214,11.3099,11.6099,11.76,11.91,12.1177,12.11,12.1408,12.3716,12.4101,12.4216,12.4409,12.3909,12.2985,12.1677,12.1908,12.2985,12.5113,12.5909,12.6794,12.7782,12.7897,12.8602,13.0102,13.041,13.041,13.0102,12.9487,12.8794,12.7897,12.7101,12.669,12.669,12.669,12.669,12.669,12.669,12.6178,12.5409,12.4486,12.3601,12.2793,12.0985,11.9792,11.8985,11.81,11.7292,11.6303,11.4907,11.4214,11.3791,0.0,0.0,5.2348,5.3612,5.4497,5.5486,5.6807,5.7736,5.8627,5.9473,6.0319,6.0938,6.1005,6.1284,6.2553,6.5213,7.0263,7.5067,7.9199,8.5873,9.0342,9.1862,9.4313,9.5786,9.6071,9.6934,9.7454,9.7695,9.8515,9.8945,9.8984,10.0703,10.1484,10.1484,10.1484,10.1094,10.0117,9.8398,9.659,9.4764,9.3864,9.2888,9.1727,8.9359,8.792,8.7073,8.6479,8.3313,7.9419,7.9563,7.9515,7.9484,8.032,8.1522,8.3301,8.6609,8.8588,8.9795,8.9932,9.247,9.6471,10.2212,10.5713,10.8983,11.3918,11.6292,11.81,11.9792,12.0216,12.0485,12.142,12.1612,12.21,12.3793,12.4101,12.4409,12.5216,12.3178,12.1689,12.1612,12.0908,12.0716,12.1689,12.3985,12.6101,12.7782,12.7897,12.8282,12.9217,12.9987,13.0102,12.9294,12.9217,12.8794,12.7897,12.7101,12.669,12.669,12.669,12.669,12.669,12.669,12.6178,12.5409,12.4486,12.3601,12.2793,12.0985,11.9792,11.8985,11.81,11.7292,11.6418,11.561,11.4714,11.3791,0.0,0.0,0.0,5.3709,5.4776,5.5823,5.6852,5.7742,5.8583,5.9396,6.0748,0.0,0.0,0.0,0.0,0.0,7.0116,7.4257,7.8505,8.4207,8.8614,9.1365,9.3433,9.4812,9.5496,9.5771,9.6245,9.6914,9.7187,9.7617,9.8164,9.92,9.9688,9.9685,9.9494,9.9254,9.8903,9.7727,9.6876,9.6075,9.4095,9.3156,9.2735,9.0837,8.746,8.3726,0.0,8.1358,7.8101,7.64,7.6005,7.6356,7.7257,7.7833,7.9264,8.4341,8.7778,9.0624,9.4009,9.8663,10.3202,10.579,11.0406,11.4599,11.5187,11.6984,11.8484,11.7907,11.8215,11.8715,11.8985,11.86,11.9292,12.2716,12.2793,12.2908,12.4293,12.3793,12.1985,11.86,11.9408,11.9985,11.9215,12.1908,12.4716,12.6909,12.7101,12.7717,12.9102,12.9487,12.9794,13.0102,12.8909,12.8486,12.8794,12.7409,12.669,12.669,12.669,12.669,12.669,12.669,12.5909,12.4601,12.4793,12.3793,12.1985,12.1985,12.1216,11.9792,11.8985,11.81,11.7215,11.5792,11.4714,11.3791,0.0,0.0,0.0,0.0,0.0,0.0,0.0,0.0,0.0,0.0,0.0,0.0,0.0,0.0,0.0,0.0,0.0,7.2695,7.6406,8.1172,8.5273,8.8398,9.0234,9.1679,9.2851,9.2617,9.3164,9.4648,9.4961,9.5624,9.6708,9.7824,9.825,9.8081,9.8028,9.7765,9.7381,9.6792,9.6152,9.5283,9.3079,9.1996,9.1482,8.8706,8.5242,0.0,7.9662,7.7894,7.6098,7.3515,7.3354,7.443,7.5284,7.763,8.09,8.5055,8.8863,9.2979,9.8673,10.3212,10.7087,11.0098,11.4099,11.7215,11.6792,11.7407,11.7792,11.6418,11.5792,11.5484,11.5099,11.4407,11.5291,11.9908,12.0408,12.11,12.3716,12.3293,12.1485,11.8215,11.8985,11.96,11.8792,12.0985,12.3485,12.5986,12.6486,12.7191,12.8217,12.8602,12.8909,12.9102,12.8294,12.8012,12.8294,12.7178,12.669,12.669,12.669,12.669,12.669,12.669,12.6101,12.4986,12.4986,12.3985,12.2485,12.2485,12.16,12.0216,11.9408,11.86,11.7588,11.6215,11.4984,11.3907,0.0,0.0,0.0,0.0,0.0,0.0,0.0,0.0,0.0,0.0,0.0,0.0,0.0,0.0,0.0,0.0,0.0,0.0,7.3008,7.7148,8.0664,8.3281,8.5156,8.6914,8.8554,8.7851,8.8711,9.1172,9.1992,9.3113,9.4567,9.6392,9.7015,9.6616,9.6866,9.6376,9.5451,9.5451,9.4324,9.2392,9.0708,8.9419,8.8025,8.3517,8.1644,8.0777,7.5352,7.3649,7.3625,7.1248,7.206,7.4238,7.5046,8.0939,8.7786,8.8795,9.2065,9.6836,10.3405,10.6097,10.8406,11.4791,11.6484,11.6984,11.86,11.7484,11.5995,11.4984,11.2906,11.0791,10.9713,10.9098,11.0406,11.5418,11.71,11.9281,12.3485,12.21,12.06,12.0408,11.9792,11.96,12.0292,12.1177,12.2678,12.5216,12.6101,12.6601,12.669,12.7409,12.7486,12.6806,12.7486,12.7486,12.6806,12.6678,12.669,12.669,12.669,12.669,12.669,12.669,12.669,12.6486,12.4909,12.4101,12.3909,12.2293,12.11,12.0216,11.9408,11.86,11.7715,11.6792,11.5407,11.3907,0.0,0.0,0.0,0.0,0.0,0.0,0.0,0.0,0.0,0.0,0.0,0.0,0.0,0.0,0.0,0.0,0.0,0.0,7.125,7.4805,7.8008,8.0586,8.3594,8.5742,8.6797,8.7265,8.8125,8.9375,8.9435,8.9987,9.1015,9.114,9.1135,9.1028,9.0966,9.0752,9.0496,9.0496,8.9849,8.8621,8.6963,8.6189,8.5972,8.4922,8.2501,7.9636,7.8991,7.6586,7.3796,7.3772,7.7421,8.2123,8.2931,8.644,9.0787,9.3557,9.7365,10.1597,10.5905,11.0406,11.4214,11.5291,11.6984,11.81,11.6599,11.4484,11.2022,10.9213,10.7213,10.4789,10.1404,10.4212,10.8098,11.1291,11.5715,11.9985,12.3601,12.4678,12.4101,12.1612,12.2216,12.2408,12.142,12.2601,12.3985,12.5293,12.4986,12.5293,12.6601,12.6909,12.7217,12.7602,12.7217,12.7217,12.7602,12.6986,12.669,12.669,12.669,12.669,12.669,12.669,12.6294,12.5678,12.5293,12.4409,12.3216,12.2716,12.1716,12.0216,11.9408,11.86,11.7715,11.6792,11.5407,11.3984,0.0,0.0,0.0,0.0,0.0,0.0,0.0,0.0,0.0,0.0,0.0,0.0,0.0,0.0,0.0,0.0,0.0,0.0,0.0,7.2109,7.4609,7.6797,7.914,8.0976,8.2226,8.1992,8.2617,8.4219,8.4442,8.5194,8.6322,8.6434,8.6404,8.6164,8.5703,8.5629,8.5909,8.5909,8.5833,0.0,0.0,8.3811,8.3875,8.3431,8.1476,7.8953,7.8903,7.8518,7.8419,8.0747,8.378,8.6901,8.8825,9.1787,9.5288,9.9058,10.2597,10.6213,10.9983,11.4291,11.7484,11.71,11.7792,11.76,11.3907,11.1406,10.828,10.3097,10.1212,9.925,9.498,9.9058,10.402,10.6982,11.3407,11.9292,12.2985,12.4986,12.5409,12.3485,12.4101,12.4293,12.3408,12.4101,12.4986,12.5909,12.5486,12.5678,12.6601,12.669,12.6909,12.7409,12.6909,12.6909,12.7409,12.6909,12.669,12.669,12.669,12.669,12.669,12.669,12.6409,12.5909,12.5178,12.4293,12.3408,12.2601,12.1485,12.0216,11.9408,11.86,11.7715,11.6792,11.5407,11.3984,0.0,0.0,0.0,0.0,0.0,0.0,0.0,0.0,0.0,0.0,0.0,0.0,0.0,0.0,0.0,0.0,0.0,0.0,0.0,0.0,7.1445,7.3047,7.4062,7.5351,7.6992,7.5664,7.6055,7.832,7.8984,8.0022,8.1349,8.2049,8.2161,8.1714,8.1002,8.0982,8.1477,8.1593,8.2016,8.2524,8.2016,8.1816,8.1714,0.0,7.9804,7.885,7.7542,7.9803,8.414,8.8709,9.0248,9.0795,9.4172,9.748,10.0904,10.4905,10.779,11.0598,11.4599,11.7292,11.8985,11.8792,11.7907,11.5715,11.0791,10.7905,10.4212,9.7096,9.5365,9.3826,8.9663,9.3941,9.9288,10.2789,11.0406,11.7484,12.2216,12.4216,12.5293,12.5486,12.5601,12.5601,12.5601,12.5601,12.5909,12.6601,12.669,12.669,12.669,12.669,12.669,12.669,12.669,12.669,12.669,12.669,12.669,12.669,12.669,12.669,12.669,12.6614,12.6486,12.6409,12.4716,12.3909,12.3793,12.2216,12.0985,12.01,11.9408,11.8484,11.7484,11.6803,11.5407,11.3984,0.0,0.0,0.0,0.0,0.0,0.0,0.0,0.0,0.0,0.0,6.3982,6.3106,0.0,0.0,0.0,0.0,0.0,0.0,0.0,0.0,0.0,7.2187,7.375,7.5078,7.6094,7.6523,7.6953,7.7422,7.7396,7.7511,7.7762,7.7583,7.746,7.7373,7.706,7.6972,7.713,7.7861,7.7823,7.7438,7.8677,7.925,7.9474,8.015,8.0264,0.0,7.966,8.0815,8.3516,8.9902,9.4749,9.8721,10.2106,10.4982,10.7713,11.0521,11.2714,11.4714,11.6792,11.8215,11.8792,11.7292,11.4791,11.1588,10.7905,10.252,9.7096,9.2941,9.0402,8.7863,8.4286,8.9633,9.5942,10.0106,10.729,11.4791,12.1908,12.3716,12.4909,12.6294,12.6486,12.6486,12.6486,12.6486,12.6486,12.669,12.669,12.669,12.669,12.669,12.669,12.669,12.669,12.669,12.669,12.669,12.669,12.669,12.669,12.669,12.669,12.5986,12.5601,12.5486,12.3793,12.3101,12.3024,12.1985,12.0677,11.9292,11.9215,11.81,11.6676,11.6611,11.5407,11.3984,0.0,0.0,0.0,0.0,0.0,0.0,0.0,6.4343,6.6165,6.9594,6.8822,6.787,6.7749,6.7621,6.7884,0.0,0.0,0.0,0.0,0.0,0.0,7.1953,7.3242,7.4336,7.5195,7.5625,7.5859,7.5859,0.0,7.6152,7.5681,7.5418,7.5026,7.4544,7.3833,7.3741,7.423,7.5015,7.5592,7.6152,7.7935,7.8991,7.9604,8.0791,8.0931,0.0,8.0218,8.1691,8.4484,8.9016,9.4489,10.0289,10.5482,10.8482,11.0791,11.3791,11.5291,11.6418,11.8484,11.9408,11.9292,11.76,11.3984,10.9406,10.3712,9.8557,9.3364,8.7748,8.6324,8.5055,8.1631,8.7248,9.321,9.5758,10.2597,11.0406,11.8407,12.0292,12.2293,12.6178,12.669,12.669,12.669,12.669,12.669,12.669,12.669,12.669,12.669,12.669,12.669,12.669,12.669,12.669,12.669,12.669,12.669,12.669,12.669,12.6498,12.5986,12.5601,12.5178,12.4716,12.3408,12.2908,12.2793,12.1485,12.0216,11.91,11.86,11.76,11.6418,11.5995,11.5099,11.3907,0.0,0.0,0.0,0.0,0.0,0.0,0.0,6.6768,6.8604,7.3289,7.3913,7.3314,7.1782,7.0665,7.0039,0.0,0.0,0.0,0.0,0.0,0.0,0.0,7.3203,7.3906,7.4609,0.0,0.0,7.4883,7.5742,0.0,0.0,0.0,0.0,0.0,7.2314,7.2168,7.2832,7.3517,7.4672,0.0,0.0,7.9365,8.0373,0.0,0.0,0.0,0.0,8.221,8.4884,8.778,9.2417,9.8062,10.4396,10.879,11.2022,11.4714,11.6176,11.7484,11.9715,12.0216,11.96,11.7907,11.3291,10.7213,10.0096,9.5326,9.0441,8.367,8.3247,8.3239,8.0585,8.5286,9.021,9.2172,9.8288,10.5905,11.4714,11.7215,12.0216,12.5806,12.6614,12.669,12.669,12.669,12.669,12.669,12.669,12.669,12.669,12.669,12.669,12.669,12.669,12.669,12.669,12.669,12.669,12.669,12.6486,12.6101,12.5409,12.4986,12.4486,12.3793,12.2985,12.2601,12.2485,12.0908,11.9792,11.8985,11.81,11.7292,11.6418,11.561,11.4714,11.3907,0.0,0.0,0.0,0.0,0.0,0.0,0.0,6.8193,7.0768,7.665,7.6902,7.6493,7.6312,7.3578,7.1758,0.0,0.0,0.0,0.0,0.0,0.0,0.0,0.0,0.0,0.0,0.0,0.0,7.5781,7.664,0.0,0.0,0.0,0.0,0.0,0.0,7.3739,7.371,7.4536,0.0,0.0,0.0,0.0,0.0,0.0,0.0,0.0,0.0,8.1915,8.2738,8.7396,8.9866,9.189,9.6945,10.452,11.1588,11.1906,11.5215,11.91,11.9985,11.9792,11.8792,11.7111,11.0983,10.4222,9.8827,9.2633,8.6901,8.3093,8.1862,8.1362,8.1054,8.2785,8.6102,9.1595,9.6326,10.2789,11.2791,11.6984,12.06,12.4986,12.6178,12.669,12.669,12.669,12.669,12.669,12.669,12.669,12.669,12.669,12.669,12.669,12.669,12.669,12.669,12.669,12.669,12.669,12.5909,12.5486,12.5293,12.3793,12.3101,12.2985,12.21,12.1677,12.16,12.0677,11.9792,11.8985,11.81,11.7292,11.6418,11.561,11.4714,11.3907,0.0,0.0,0.0,0.0,0.0,0.0,6.7844,6.8528,7.1015,7.8044,7.8339,7.8232,7.9245,7.6834,7.4297,7.2187,0.0,0.0,0.0,0.0,0.0,0.0,0.0,0.0,0.0,0.0,7.7461,7.7461,7.8281,0.0,0.0,0.0,0.0,0.0,0.0,7.4647,7.4188,7.5436,0.0,0.0,0.0,0.0,0.0,0.0,0.0,0.0,0.0,0.0,8.2863,8.4172,8.645,8.8855,8.9791,9.5752,10.3289,10.7905,11.1714,11.5215,11.7984,11.8215,11.71,11.5407,10.9213,10.2289,9.7163,9.1133,8.567,8.2285,8.1323,8.1093,8.1093,8.2054,8.4286,8.8709,9.0825,9.5326,10.502,10.8406,11.2714,11.9985,12.2485,12.4421,12.6498,12.669,12.669,12.669,12.669,12.669,12.669,12.669,12.669,12.669,12.669,12.669,12.669,12.6178,12.5909,12.5909,12.4986,12.4409,12.3909,12.3216,12.2601,12.21,12.1804,12.1304,12.0793,11.9908,11.91,11.8215,11.7407,11.6792,11.6303,11.4984,11.4291,11.3791,0.0,0.0,0.0,0.0,0.0,6.3034,6.8126,6.8901,7.1367,7.8086,7.8672,7.8945,8.0117,7.7969,7.5547,7.3359,7.2695,0.0,0.0,0.0,0.0,0.0,0.0,0.0,0.0,0.0,7.8867,7.8867,8.0195,8.0429,0.0,0.0,7.8828,7.7383,0.0,0.0,0.0,0.0,0.0,0.0,0.0,0.0,0.0,0.0,0.0,0.0,0.0,0.0,0.0,0.0,0.0,8.5799,8.456,8.8246,9.4506,10.2087,10.7405,11.1406,11.4714,11.5792,11.5676,11.3714,10.7905,10.1212,9.5826,9.021,8.517,8.1785,8.1093,8.1093,8.1093,8.1554,8.2901,8.5786,8.7325,9.121,10.0087,10.3712,10.8482,11.6792,11.96,12.21,12.5293,12.6306,12.669,12.669,12.669,12.669,12.669,12.669,12.669,12.669,12.669,12.6614,12.6294,12.5678,12.5293,12.4986,12.4216,12.3408,12.2908,12.2601,12.2216,12.1612,12.1612,12.11,12.0216,11.9408,11.86,11.7715,11.6792,11.6495,11.6303,11.4599,11.3984,11.3791,0.0,0.0,0.0,0.0,0.0,0.0,6.7497,6.9609,7.2265,7.664,7.7969,7.8515,7.8515,7.6172,7.4961,7.5781,7.4297,0.0,0.0,0.0,0.0,0.0,0.0,0.0,0.0,0.0,7.9687,7.9687,8.2304,8.3125,8.2265,8.2265,8.1797,8.0898,0.0,0.0,0.0,0.0,0.0,0.0,0.0,0.0,0.0,0.0,0.0,0.0,0.0,0.0,0.0,0.0,0.0,0.0,0.0,8.3382,8.6783,9.424,10.2404,10.9098,10.9983,11.2714,11.4714,11.2214,10.701,10.1019,9.5057,8.9748,8.517,8.1785,8.1093,8.1093,8.1093,8.1093,8.167,8.337,8.7171,9.2547,10.0202,10.5713,11.1098,11.71,11.86,12.01,12.2716,12.5216,12.669,12.669,12.669,12.669,12.669,12.669,12.669,12.669,12.669,12.6294,12.5409,12.5409,12.4986,12.4101,12.3293,12.2908,12.2908,12.1985,12.1612,12.1612,12.1612,12.11,12.0216,11.9408,11.86,11.7715,11.6792,11.6495,11.6303,11.4599,11.3984,11.3907,0.0,0.0,0.0,0.0,0.0,0.0,0.0,6.5976,6.8086,7.3008,7.3906,7.4961,7.7344,7.6328,7.6094,7.7539,7.5,0.0,0.0,0.0,0.0,0.0,0.0,0.0,0.0,7.914,8.0273,8.1484,8.289,8.375,8.4062,8.3476,8.2734,8.1836,8.0976,8.0233,0.0,0.0,0.0,0.0,0.0,0.0,8.2304,0.0,0.0,0.0,0.0,0.0,0.0,0.0,0.0,0.0,0.0,0.0,0.0,8.591,9.3679,10.1289,10.2212,10.3982,10.502,10.1904,9.8365,9.4595,9.0364,8.7248,8.447,8.167,8.1093,8.1093,8.1093,8.1093,8.2593,8.7171,8.9517,9.3056,9.9558,10.5915,11.1406,11.5599,12.1408,12.5216,12.5486,12.6178,12.669,12.669,12.669,12.669,12.669,12.669,12.669,12.669,12.669,12.6294,12.5409,12.4793,12.4101,12.3293,12.2408,12.1985,12.1985,12.11,12.0677,12.0677,12.01,11.9408,11.86,11.8292,11.7715,11.6792,11.5995,11.5687,11.5484,11.4407,11.3599,11.3099,0.0,0.0,0.0,0.0,0.0,0.0,0.0,6.4648,6.6562,7.0117,7.1406,7.3203,7.6367,7.5625,7.6015,7.8711,7.6406,0.0,0.0,0.0,0.0,0.0,0.0,0.0,7.8348,7.9168,8.0565,8.2528,8.405,8.4964,8.5221,8.5376,8.4486,8.2773,8.2226,8.1484,0.0,0.0,0.0,0.0,0.0,0.0,8.081,0.0,0.0,0.0,0.0,0.0,0.0,0.0,0.0,0.0,0.0,0.0,0.0,0.0,8.6189,9.2364,9.5172,9.7634,9.875,9.6019,9.3633,9.1095,8.7671,8.5593,8.3785,8.1554,8.1093,8.1093,8.1093,8.1093,8.2285,8.597,8.8085,9.1595,9.8173,10.4405,11.0417,11.6099,12.2485,12.6217,12.5293,12.6101,12.669,12.669,12.669,12.669,12.669,12.669,12.669,12.669,12.669,12.6294,12.5409,12.4486,12.3716,12.2908,12.1985,12.1612,12.1612,12.0677,12.0292,12.0292,11.9408,11.86,0.0,11.7792,11.7292,11.6495,11.5907,11.561,11.5187,11.4291,11.3407,11.2714,0.0,0.0,0.0,0.0,0.0,0.0,0.0,6.5078,6.7031,6.789,7.0234,7.2773,7.5351,7.4336,7.5156,7.9258,0.0,0.0,0.0,0.0,0.0,0.0,0.0,0.0,7.815,7.9086,8.0697,8.2975,8.5551,8.6508,8.5988,8.7633,8.6752,8.3749,8.3711,8.3164,0.0,0.0,0.0,0.0,0.0,0.0,0.0,0.0,0.0,0.0,0.0,0.0,0.0,0.0,0.0,0.0,0.0,0.0,0.0,0.0,0.0,0.0,0.0,9.2749,9.4903,9.3133,9.1595,8.9671,8.6478,8.4555,0.0,8.1323,8.1016,8.1054,8.1246,8.1246,8.1362,8.19,8.467,8.9402,9.698,10.2712,10.9483,11.86,12.2408,12.4101,12.3204,12.5293,12.669,12.669,12.669,12.669,12.669,12.669,12.669,12.669,12.6601,12.6178,12.5293,12.4409,12.3601,12.2793,12.1985,12.1612,12.1497,12.0677,12.0216,12.01,11.9292,11.8484,11.7715,11.7715,11.7215,11.6418,11.6292,11.5792,11.4984,11.4214,11.3407,11.2588,0.0,0.0,0.0,0.0,0.0,0.0,0.0,0.0,0.0,0.0,6.8437,7.0742,7.2695,7.4336,7.6211,0.0,0.0,0.0,0.0,0.0,0.0,0.0,0.0,0.0,7.8868,8.0373,8.2061,8.389,8.5866,8.7062,8.7584,8.8142,8.7265,8.526,8.4799,8.375,0.0,0.0,0.0,0.0,0.0,0.0,0.0,0.0,0.0,0.0,7.9926,8.0193,0.0,0.0,0.0,0.0,0.0,0.0,0.0,0.0,7.8149,7.8907,8.0946,0.0,8.517,8.3478,8.3285,8.3247,0.0,8.1977,8.14,8.0323,8.0123,8.0708,8.2639,8.2477,8.3939,8.9787,9.1979,9.5317,10.2289,11.1098,11.8792,12.4305,12.6217,12.6717,12.5909,12.6294,12.669,12.669,12.669,12.669,12.669,12.669,12.669,12.669,12.6101,12.5293,12.4409,12.3601,12.2793,12.1908,12.1689,12.1304,12.06,12.0408,11.96,11.8407,11.8215,11.76,11.6792,11.6792,11.6292,11.5484,11.4791,11.4099,11.3291,11.3099,11.2522,11.1906,0.0,0.0,0.0,0.0,0.0,0.0,0.0,0.0,0.0,0.0,0.0,0.0,0.0,0.0,0.0,0.0,0.0,0.0,0.0,0.0,0.0,0.0,0.0,7.8851,7.9538,8.0879,8.2526,8.4535,8.666,8.7972,8.8543,8.9131,8.8125,8.573,8.4225,8.307,0.0,0.0,0.0,0.0,8.1342,0.0,0.0,0.0,0.0,0.0,7.8812,7.9026,0.0,7.9537,7.9674,7.97,0.0,0.0,0.0,0.0,7.6794,7.6791,7.7246,8.0062,8.267,8.1785,8.19,8.2362,8.2747,8.1323,7.99,7.9815,7.9815,8.0354,8.2131,8.3016,8.5247,9.0517,9.3441,9.8173,10.729,11.5715,12.2177,12.5678,12.6794,12.7217,12.6678,12.669,12.6486,12.6101,12.6101,12.5909,12.5486,12.5909,12.6101,12.6101,12.5293,12.4793,12.4716,12.3485,12.2716,12.2216,12.1804,12.11,12.0292,11.9908,11.8985,11.7792,11.7407,11.6907,11.6495,11.611,11.5676,11.5215,11.4291,11.3483,11.2714,11.2714,11.2203,11.1588,0.0,0.0,0.0,0.0,0.0,0.0,0.0,0.0,0.0,0.0,0.0,0.0,0.0,0.0,0.0,0.0,0.0,0.0,0.0,0.0,0.0,0.0,7.9414,7.9558,8.0239,8.1117,8.2596,8.4709,8.7401,8.8783,8.8996,9.0308,8.915,8.5856,8.3403,8.2199,8.1912,0.0,0.0,0.0,8.0595,0.0,0.0,0.0,0.0,0.0,0.0,0.0,0.0,7.873,7.8967,7.8945,7.8634,0.0,0.0,0.0,0.0,0.0,7.6438,8.0285,8.3947,8.3062,8.3216,8.3717,8.4209,8.14,7.8907,7.9669,7.9815,8.0239,8.1785,8.4055,8.6671,8.9757,9.4027,10.0712,11.1406,11.7715,12.2189,12.4716,12.5794,12.6421,12.6486,12.6421,12.6101,12.5409,12.5293,12.4909,12.4101,12.4793,12.5216,12.5216,12.4409,12.4293,12.4986,12.3485,12.2601,12.2485,12.1793,12.0908,11.9908,11.9408,11.86,11.76,11.6984,11.6599,11.6418,11.5599,11.5215,11.4984,11.4099,11.3291,11.2511,11.2511,11.2088,11.1511,0.0,0.0,0.0,0.0,0.0,0.0,0.0,0.0,0.0,0.0,0.0,0.0,0.0,0.0,0.0,0.0,0.0,0.0,0.0,0.0,0.0,8.1113,8.0362,8.0266,8.0922,8.1724,8.2694,8.3793,8.7102,8.8713,8.8788,9.1304,9.038,8.6549,8.4712,8.308,8.1714,8.1517,0.0,0.0,8.1337,0.0,0.0,0.0,0.0,0.0,0.0,0.0,0.0,7.719,7.8293,7.941,7.6553,0.0,0.0,0.0,0.0,0.0,7.8438,8.2939,8.5593,8.0523,8.1447,8.3255,8.1977,8.0592,7.9631,7.9777,7.9815,8.117,8.5593,8.7902,9.0893,9.6365,10.1981,10.7598,11.2983,11.71,12.0408,12.2985,12.3985,12.4793,12.5486,12.4909,12.4716,12.5409,12.4716,12.4216,12.4101,12.4216,12.4293,12.4293,12.3485,12.3101,12.3293,12.2293,12.1408,12.0716,12.06,11.9715,11.8215,11.8792,11.8215,11.6676,11.7292,11.7215,11.6418,11.5599,11.4907,11.4099,11.3214,11.2406,11.1703,11.1703,11.1588,11.1511,0.0,0.0,0.0,0.0,0.0,0.0,0.0,0.0,0.0,0.0,0.0,0.0,0.0,0.0,0.0,0.0,0.0,0.0,0.0,0.0,8.1794,8.2712,8.18,8.1427,8.1754,8.3016,8.4324,8.5632,8.8594,9.0287,9.0727,9.0277,8.8645,8.5987,8.3723,8.2261,8.1514,8.1324,8.1442,0.0,0.0,0.0,0.0,0.0,0.0,0.0,0.0,0.0,0.0,0.0,7.7783,7.8316,7.6881,0.0,0.0,0.0,0.0,0.0,7.6623,8.0439,8.3439,8.1139,8.4516,8.8209,8.744,8.517,8.3324,8.3824,8.3901,8.4901,8.8171,9.1287,9.5749,10.3097,10.8098,11.2291,11.5599,11.8215,12.0485,12.2601,12.3216,12.3793,12.4601,12.4293,12.4101,12.4101,12.3716,12.3216,12.2793,12.3216,12.3485,12.3485,12.3101,12.2908,12.2908,12.16,12.0908,12.0985,12.01,11.9215,11.8484,11.8407,11.7715,11.6484,11.6907,11.6599,11.5803,11.4907,11.4099,11.3214,11.2406,11.178,11.1511,11.1511,11.1511,11.1511,0.0,0.0,0.0,0.0,0.0,0.0,0.0,0.0,0.0,0.0,0.0,0.0,0.0,0.0,0.0,0.0,0.0,0.0,0.0,8.1315,8.1987,8.3444,8.2908,8.2978,8.3785,8.4709,8.6094,8.7979,9.0364,9.1941,9.2719,8.9864,8.7481,8.5533,8.3027,8.1678,8.1317,8.1183,8.1093,0.0,0.0,0.0,0.0,0.0,0.0,0.0,0.0,0.0,0.0,0.0,0.0,0.0,0.0,0.0,0.0,7.563,7.4861,7.493,7.593,7.8746,8.167,8.2901,8.6824,9.0787,9.2172,8.9325,8.694,8.8786,8.9171,8.9633,9.1124,9.5211,10.0789,10.829,11.2214,11.5099,11.7484,11.9215,12.0908,12.2408,12.2601,12.2908,12.3716,12.3601,12.3293,12.2908,12.2716,12.2293,12.16,12.2216,12.2601,12.2601,12.2601,12.2601,12.2601,12.0908,12.0408,12.0997,11.9485,11.8715,11.8484,11.7792,11.71,11.6495,11.6495,11.5995,11.5215,11.4407,11.3483,11.2588,11.178,11.1511,11.1511,11.1511,11.1511,11.1511,0.0,0.0,0.0,0.0,0.0,0.0,0.0,0.0,0.0,0.0,0.0,0.0,0.0,0.0,0.0,0.0,0.0,0.0,0.0,8.0779,8.1524,8.2371,8.3117,8.4986,8.8179,8.6786,8.7239,8.9701,9.1518,9.2826,9.3557,9.1775,8.9192,8.5991,8.4234,8.2563,8.1139,8.1108,8.1093,8.1093,8.1093,0.0,0.0,0.0,0.0,0.0,0.0,0.0,0.0,0.0,0.0,0.0,0.0,0.0,7.7176,7.6207,7.5322,7.5584,7.9554,8.14,8.2785,8.5209,8.5016,8.5679,9.1248,8.9825,8.8671,9.3489,9.445,9.4758,9.5672,10.0596,10.5982,11.0598,11.3483,11.5792,11.76,11.9215,12.06,12.1612,12.1689,12.1985,12.2908,12.2293,12.21,12.2781,12.2216,12.1689,12.1612,12.1689,12.1689,12.1689,12.1689,12.1689,12.1689,11.9985,11.9215,11.9292,11.8292,11.7484,11.6688,11.6599,11.6611,11.6495,11.6495,11.5995,11.5215,11.4407,11.3483,11.2588,11.178,11.1511,11.1511,11.1511,11.1511,11.1511,0.0,0.0,0.0,0.0,0.0,0.0,0.0,0.0,0.0,0.0,0.0,0.0,0.0,0.0,0.0,0.0,0.0,0.0,0.0,8.0676,8.1708,8.3062,8.3409,8.4948,8.7833,8.8286,8.997,9.3086,9.4287,9.421,9.2903,9.0133,8.7594,8.5239,8.3054,8.167,8.1093,8.1093,8.1093,8.1093,8.1093,8.0054,0.0,0.0,0.0,0.0,0.0,0.0,0.0,0.0,7.513,7.5861,7.5168,7.6746,7.8284,7.5322,7.4584,7.5046,7.6669,7.9669,8.2785,8.4863,8.644,8.8671,9.3065,9.4287,9.5634,9.9721,10.0491,10.0991,10.2279,10.4789,10.7905,11.1588,11.3984,11.5907,11.76,11.8792,11.9715,11.9985,12.0485,12.0716,12.06,12.1177,12.1485,12.1293,12.1485,12.142,12.0793,12.1304,12.142,12.0793,12.1293,12.1293,12.0793,11.9715,11.8792,11.8292,11.7407,11.71,11.7292,11.6715,11.6187,11.5803,11.5803,11.4984,11.3714,11.3291,11.2714,11.1895,11.1588,11.1511,11.1511,11.1511,11.1511,11.1511,0.0,0.0,0.0,0.0,0.0,0.0,0.0,0.0,0.0,0.0,0.0,0.0,0.0,0.0,0.0,0.0,0.0,0.0,7.9331,8.0208,8.1439,8.3139,8.3447,8.4794,8.7325,8.9325,9.1586,9.4201,9.5326,9.4441,9.1633,8.9017,8.6901,8.517,8.2631,8.1631,8.1823,8.1016,8.0708,8.0708,8.0708,7.9669,0.0,0.0,0.0,0.0,0.0,0.0,0.0,0.0,7.4091,7.4784,7.4707,7.6469,7.8092,7.5469,7.5469,7.6315,7.6315,7.9246,8.2862,8.5132,8.8009,9.147,9.598,9.7942,10.0096,10.4905,10.4982,10.4905,10.679,10.7213,10.8521,11.2088,11.4214,11.5907,11.76,11.86,11.91,11.91,11.96,11.9715,11.9215,12.01,12.06,11.9985,12.0485,12.0612,11.9985,12.0485,12.0677,12.0292,12.06,12.06,12.0292,11.9215,11.8407,11.7792,11.6907,11.6792,11.7407,11.6803,11.6187,11.5687,11.5407,11.4484,11.3099,11.2791,11.2203,11.1511,11.1511,11.1511,11.1511,11.1511,11.1511,11.1511,0.0,0.0,0.0,0.0,0.0,0.0,0.0,0.0,0.0,0.0,0.0,0.0,0.0,0.0,0.0,0.0,0.0,0.0,7.8476,7.9323,8.0554,8.2208,8.3139,8.4755,8.7286,8.9825,9.1595,9.2479,9.4181,9.321,8.9855,8.9056,8.7748,8.594,8.3439,8.2793,8.3409,8.0862,7.9815,7.9777,7.9815,7.8784,7.7407,0.0,0.0,0.0,0.0,0.0,0.0,0.0,7.2899,7.279,7.6176,7.6707,7.6207,7.7015,7.8477,7.9777,7.9777,8.1016,8.3131,8.6555,8.9363,9.3056,9.9779,10.0096,10.0981,10.8598,10.7482,10.5905,10.8406,10.7598,10.778,11.2022,11.4214,11.5907,11.76,11.8484,11.91,11.91,11.91,11.91,11.91,11.91,11.91,11.91,11.91,11.91,11.91,11.91,11.9485,12.0292,11.9485,11.9485,12.0292,11.86,11.7792,11.7792,11.6907,11.6495,11.6495,11.6495,11.6495,11.6418,11.5599,11.4791,11.3907,11.3022,11.2203,11.1511,11.1511,11.1511,11.1511,11.1511,11.1511,11.1511,0.0,0.0,0.0,0.0,0.0,0.0,0.0,0.0,0.0,0.0,0.0,0.0,0.0,0.0,0.0,0.0,0.0,0.0,7.8688,7.9401,8.0008,8.0516,8.2516,8.3409,8.2978,8.5478,8.8671,9.2479,9.2979,9.1171,8.7201,8.6978,8.5632,8.3439,8.3293,8.2362,8.09,8.0123,7.9438,7.8938,7.9554,7.8784,7.733,0.0,0.0,0.0,0.0,0.0,0.0,0.0,0.0,0.0,7.3591,7.6399,7.8938,7.5592,7.7084,7.9392,7.763,8.0554,8.4786,8.7594,9.2911,9.8596,10.2981,10.3597,10.4713,11.0021,11.0291,10.9598,10.979,10.9906,11.0588,11.2406,11.4214,11.5676,11.6715,11.71,11.7303,11.7303,11.7792,11.7907,11.7292,11.8407,11.8792,11.8215,11.8792,11.8792,11.8215,11.8792,11.8908,11.86,11.8908,11.8908,11.8523,11.8011,11.7484,11.6907,11.5984,11.5995,11.6495,11.5918,11.5291,11.4714,11.4484,11.3599,11.2203,11.2022,11.1703,11.1511,11.1511,11.1511,11.1511,11.1511,11.1511,11.1511,0.0,0.0,0.0,0.0,0.0,0.0,0.0,0.0,0.0,0.0,7.7969,7.8515,0.0,0.0,0.0,0.0,0.0,0.0,7.879,7.9117,7.9438,7.9777,8.19,8.3093,8.3093,8.5286,8.744,8.9479,9.0133,8.8632,8.5132,8.6132,8.544,8.3362,8.4209,8.317,8.0746,8.0085,7.9092,7.8099,7.8938,7.8477,7.7292,0.0,0.0,0.0,0.0,0.0,0.0,0.0,0.0,0.0,7.186,7.413,7.6707,7.5014,7.7007,7.9815,7.9977,8.3632,8.8325,9.2257,9.6951,10.1712,10.6097,10.7405,10.8406,11.1021,11.1203,11.0983,11.1214,11.1098,11.1483,11.2983,11.3791,11.4714,11.5918,11.5995,11.6099,11.6495,11.6984,11.6984,11.6099,11.7303,11.7715,11.6907,11.76,11.7792,11.7292,11.7792,11.7984,11.7792,11.7715,11.7484,11.7292,11.6599,11.5984,11.5484,11.4984,11.4984,11.5484,11.5418,11.4791,11.3984,11.3599,11.2714,11.1511,11.1511,11.1511,11.1511,11.1511,11.1511,11.1511,11.1511,11.1511,11.1511,0.0,0.0,0.0,0.0,0.0,0.0,0.0,0.0,0.0,0.0,7.7187,7.7539,0.0,0.0,0.0,0.0,0.0,0.0,0.0,7.8622,7.89,7.9738,8.14,8.3478,8.594,8.7401,8.6978,8.467,8.6363,8.5863,8.3447,8.6055,8.6324,8.47,8.5593,8.4478,8.1823,8.0092,7.84,7.7015,7.783,7.7676,7.6938,7.7061,0.0,0.0,0.0,0.0,0.0,0.0,0.0,0.0,7.0898,7.1052,7.1822,7.4707,7.7553,8.0662,8.4593,8.8325,9.2518,9.8605,10.1096,10.3597,10.9098,11.0906,11.1511,11.1511,11.0906,11.0906,11.2291,11.1406,11.1214,11.3483,11.3291,11.3407,11.4984,11.5187,11.5495,11.6187,11.6303,11.5995,11.5303,11.5792,11.5995,11.5291,11.5918,11.6303,11.6418,11.6303,11.6599,11.7407,11.5984,11.5484,11.6303,11.4791,11.3984,11.3984,11.3907,11.3907,11.3907,11.4714,11.4599,11.3791,11.2983,11.2203,11.1588,11.1511,11.1511,11.1511,11.1511,11.1511,11.1511,11.1511,11.1511,11.1511,0.0,0.0,0.0,0.0,0.0,0.0,0.0,0.0,0.0,0.0,0.0,0.0,0.0,0.0,0.0,0.0,0.0,0.0,0.0,7.8622,7.89,7.9738,8.14,8.3208,8.5124,8.417,8.3401,8.2862,8.4593,8.4132,8.1708,8.4901,8.5132,8.2939,8.4478,8.2978,7.9177,7.6784,7.52,7.4392,7.52,7.5053,7.4392,7.5007,7.4091,0.0,0.0,0.0,0.0,0.0,0.0,0.0,7.0898,7.2283,7.363,7.236,7.5707,8.0162,8.1747,8.6094,9.1778,9.8452,10.4222,10.879,11.0791,11.1406,11.1511,11.1511,11.1906,11.2099,11.178,11.2022,11.2291,11.2906,11.3407,11.3907,11.4214,11.4291,11.4291,11.4484,11.4484,11.4484,11.4291,11.4407,11.4714,11.5303,11.4791,11.4791,11.5484,11.4907,11.4599,11.4791,11.4484,11.4407,11.4484,11.4214,11.3984,11.3984,11.3291,11.2983,11.2983,11.3214,11.3214,11.2896,11.2088,11.2011,11.2406,11.1791,11.1511,11.1511,11.1511,11.1511,11.1511,11.1511,11.1511,11.1511,0.0,0.0,0.0,0.0,0.0,0.0,0.0,0.0,0.0,0.0,0.0,0.0,0.0,0.0,0.0,0.0,0.0,0.0,0.0,7.8677,7.9446,8.1516,8.2439,8.3362,8.4247,8.2978,8.2093,8.1747,8.2208,8.2401,8.2362,8.5324,8.6247,8.5409,8.5863,8.3516,7.8977,7.6861,7.4745,7.2976,7.4199,7.4199,7.343,7.3046,7.2091,7.0898,7.0014,0.0,0.0,0.0,0.0,0.0,0.0,0.0,7.1661,7.1552,7.4284,7.8161,8.19,8.7248,9.3633,10.1712,10.729,11.0906,11.1395,11.1511,11.1511,11.1511,11.2088,11.2599,11.2214,11.2406,11.2714,11.2714,11.2791,11.2906,11.3291,11.3407,11.3483,11.3984,11.3984,11.3791,11.3407,11.3791,11.3984,11.4099,11.3984,11.4214,11.4714,11.4214,11.3984,11.3984,11.3599,11.3407,11.3407,11.2983,11.2791,11.2791,11.228,11.2088,11.2088,11.2088,11.228,11.2714,11.178,11.1703,11.2088,11.1703,11.1511,11.1511,11.1511,11.1511,11.1511,11.1511,11.1511,11.1511,0.0,0.0,0.0,0.0,0.0,0.0,0.0,0.0,0.0,0.0,0.0,0.0,0.0,0.0,0.0,0.0,0.0,0.0,0.0,7.867,8.0062,8.3024,8.3293,8.337,8.337,8.2401,8.1631,8.1093,8.0092,8.14,8.4948,8.6632,8.7786,8.8449,8.7555,8.4286,7.9246,7.7246,7.4522,7.1629,7.2899,7.2976,7.2199,7.0629,6.9629,6.8936,6.8045,6.8391,6.936,7.0014,0.0,0.0,0.0,0.0,6.859,7.0706,7.2706,7.5592,8.1508,8.8402,9.6095,10.5213,10.9406,11.128,11.1522,11.1511,11.1511,11.1511,11.2011,11.2511,11.2511,11.2511,11.2511,11.2511,11.1895,11.1703,11.2406,11.2511,11.2791,11.3483,11.3599,11.3291,11.2599,11.3099,11.3291,11.2703,11.3214,11.3599,11.3791,11.3599,11.3599,11.3599,11.2906,11.2511,11.2511,11.178,11.1511,11.1511,11.1511,11.1511,11.1511,11.1511,11.1906,11.2522,11.178,11.1511,11.1511,11.1511,11.1511,11.1511,11.1511,11.1511,11.1511,11.1511,11.1511,11.1511,0.0,0.0,0.0,0.0,0.0,0.0,0.0,0.0,0.0,0.0,7.8437,7.8125,7.7148,7.6445,0.0,0.0,0.0,0.0,7.6365,0.0,0.0,8.1362,8.2093,8.2477,8.2477,8.0939,8.0439,8.1093,7.9485,8.2631,9.0133,8.8286,8.744,8.7555,8.6671,8.3054,7.7445,7.4214,7.1321,6.8853,6.8321,6.8052,6.7866,6.6904,6.6513,6.6282,6.5436,6.6128,6.7481,6.7558,6.8129,0.0,0.0,0.0,6.7327,6.7673,7.0059,7.3053,7.543,8.5247,9.672,10.4597,10.8482,11.0598,11.128,11.1511,11.1511,11.1511,11.1588,11.1703,11.1703,11.1703,11.1703,11.1703,11.1588,11.1511,11.1588,11.1703,11.1703,11.178,11.178,11.178,11.1703,11.1791,11.2099,11.2714,11.2214,11.2088,11.2791,11.2203,11.178,11.178,11.1703,11.1703,11.1703,11.1588,11.1511,11.1511,11.1511,11.1511,11.1511,11.1511,11.1588,11.1703,11.1511,11.1511,11.1511,11.1511,11.1511,11.1511,11.1511,11.1511,11.1511,11.1511,11.1511,11.1511,0.0,0.0,0.0,0.0,0.0,0.0,0.0,0.0,0.0,0.0,0.0,7.7969,7.6601,7.5703,0.0,0.0,0.0,0.0,7.5211,7.7246,0.0,8.0323,8.0708,8.09,8.09,7.9246,7.8823,7.9638,7.7438,8.1708,9.1864,8.9787,9.0864,9.4335,9.0094,8.5478,8.0446,7.4675,7.0443,6.759,6.675,6.8129,7.0244,6.6051,6.6513,6.8866,6.4711,6.4282,6.5782,6.625,6.6974,6.7513,6.6712,0.0,0.0,0.0,6.7398,7.1783,7.9669,8.7248,9.4941,10.3482,10.6905,10.8521,11.0406,11.0791,11.0906,11.1395,11.1511,11.1511,11.1511,11.1511,11.1511,11.1511,11.1511,11.1511,11.1511,11.1511,11.1511,11.1511,11.1511,11.1511,11.1511,11.1511,11.1588,11.2022,11.1703,11.1703,11.2022,11.1703,11.1511,11.1511,11.1511,11.1511,11.1511,11.1511,11.1511,11.1511,11.1511,11.1511,11.1511,11.1511,11.1511,11.1511,11.1511,11.1511,11.1511,11.1511,11.1511,11.1511,11.1511,11.1511,11.1511,11.1511,11.1511,11.1511,0.0,0.0,0.0,0.0,0.0,0.0,0.0,0.0,0.0,0.0,0.0,7.793,7.6406,0.0,0.0,0.0,0.0,0.0,7.4319,0.0,0.0,0.0,7.9054,7.9054,7.8861,7.74,7.6938,7.7515,7.5861,8.1016,9.2479,9.1364,9.4749,10.1414,9.4557,8.8556,8.3178,7.6599,7.1944,6.8981,6.8167,6.9975,7.2738,6.893,7.0129,7.2983,6.6865,6.548,6.6436,6.5782,6.5974,6.6365,6.5743,6.5436,0.0,0.0,0.0,6.9545,8.0823,8.5863,9.021,9.9558,10.3212,10.5213,10.8213,10.9098,10.9483,11.0406,11.0906,11.1214,11.1214,11.1406,11.1511,11.1511,11.1511,11.1511,11.1511,11.1511,11.1511,11.1511,11.1511,11.1511,11.1511,11.1511,11.1511,11.1511,11.1511,11.1511,11.1511,11.1511,11.1511,11.1511,11.1511,11.1511,11.1511,11.1511,11.1511,11.1511,11.1511,11.1511,11.1511,11.1511,11.1511,11.1511,11.1511,11.1511,11.1511,11.1511,11.1511,11.1511,11.1511,11.1511,11.1511,11.1511,11.1511,11.1511,0.0,0.0,0.0,0.0,0.0,0.0,0.0,0.0,0.0,0.0,0.0,0.0,7.7226,7.5448,7.3926,7.2961,7.2668,0.0,0.0,0.0,0.0,0.0,7.6976,0.0,7.6207,7.5284,7.4861,7.4892,7.5592,8.1631,9.2518,9.3172,9.8019,10.5779,9.8981,9.1364,8.337,7.9715,7.6669,7.4238,7.343,7.2783,7.2745,7.7246,7.8631,7.7599,7.3252,7.1713,7.1059,6.6282,6.4705,6.4705,6.4666,6.4089,6.3429,0.0,0.0,0.0,7.2276,7.663,8.1408,9.0825,9.6211,10.0289,10.4405,10.5982,10.678,10.7713,10.9213,11.0291,11.0291,11.0906,11.1511,11.1511,11.1511,11.1511,11.1511,11.1511,11.1511,11.1511,11.1511,11.1511,11.1511,11.1511,11.1511,11.1511,11.1511,11.1511,11.1511,11.1511,11.1511,11.1511,11.1511,11.1511,11.1511,11.1511,11.1511,11.1511,11.1511,11.1511,11.1511,11.1511,11.1511,11.1511,11.1511,11.1511,11.1511,11.1511,11.1511,11.1511,11.1511,11.1511,11.1511,11.1511,11.1511,11.1511,0.0,0.0,0.0,0.0,0.0,0.0,0.0,0.0,0.0,0.0,0.0,0.0,0.0,7.6091,7.4841,7.3662,7.2272,0.0,0.0,0.0,0.0,0.0,7.6553,7.7138,7.6823,7.6515,7.6092,7.5515,7.4784,7.9208,8.8402,8.9248,9.2441,9.7403,9.548,9.2326,8.7979,8.0169,7.6053,7.4661,7.4392,7.67,8.0208,7.8746,8.1054,8.4217,7.7792,7.4745,7.3514,7.1706,6.9276,6.6853,6.5782,6.4436,6.3198,6.2666,6.2897,6.466,7.0975,7.4322,7.8169,8.7017,9.2402,9.648,10.0212,10.3789,10.651,10.679,10.8213,10.9406,10.9406,11.0521,11.1511,11.1511,11.1511,11.1511,11.1511,11.1021,11.0714,11.0714,11.0714,11.0714,11.0714,11.1214,11.1511,11.1511,11.1511,11.1511,11.1511,11.1511,11.1511,11.1511,11.1511,11.1511,11.1511,11.1511,11.1511,11.1511,11.1511,11.1511,11.1511,11.1511,11.1511,11.1511,11.1511,11.1511,11.1511,11.1511,11.1511,11.1511,11.1511,11.1511,11.1511,11.1511,11.1511,11.1511,0.0,0.0,0.0,0.0,0.0,0.0,0.0,0.0,7.7929,7.7531,0.0,0.0,0.0,0.0,7.5435,7.3954,7.2292,7.1321,7.1321,7.1867,0.0,0.0,7.5938,7.6868,7.6868,7.6592,7.6015,7.5168,7.4046,7.7238,8.4439,8.5593,8.8402,9.2402,9.0671,9.0364,9.071,8.3362,7.9438,7.82,7.9354,8.2008,8.5363,8.567,8.8055,9.0565,8.5178,8.1747,7.9546,7.7823,7.463,7.0937,6.8398,6.5205,6.2358,6.1826,6.2435,6.4237,6.8475,7.1283,7.5053,8.3555,8.7363,9.0594,9.6596,10.0096,10.252,10.402,10.5905,10.729,10.7598,10.9021,11.028,11.0598,11.0598,11.0598,11.0598,11.0098,10.979,10.979,10.979,10.9906,11.0224,11.0714,11.1214,11.1522,11.1511,11.1511,11.1511,11.1511,11.1511,11.1511,11.1511,11.1511,11.1511,11.1511,11.1511,11.1511,11.1511,11.1511,11.1511,11.1511,11.1511,11.1511,11.1511,11.1511,11.1511,11.1511,11.1511,11.1511,11.1511,11.1511,11.1511,11.1511,11.1511,11.1511,0.0,0.0,0.0,0.0,0.0,0.0,0.0,0.0,7.933,7.8286,0.0,0.0,0.0,0.0,0.0,7.3846,7.2836,7.229,7.229,7.2252,0.0,0.0,7.513,7.6053,7.6053,7.5284,7.443,7.3623,7.3584,7.6084,8.0939,8.2639,8.6525,9.1825,8.5286,8.5517,9.0787,8.9017,8.7017,8.5277,8.8432,8.8393,8.7632,9.8327,9.9942,9.6442,9.5528,9.3056,8.9432,8.4401,8.04,7.6746,7.2283,6.6282,6.0902,6.0864,6.205,6.3545,0.0,0.0,0.0,7.9862,8.0823,8.2554,9.3403,9.4634,9.472,9.9067,10.1904,10.3905,10.4789,10.6405,10.779,10.8598,10.879,10.8906,10.8906,10.8906,10.8906,10.8906,10.8906,10.9213,11.0109,11.0224,11.0598,11.1395,11.1511,11.1511,11.1511,11.1511,11.1511,11.1511,11.1511,11.1511,11.1511,11.1511,11.1511,11.1511,11.1511,11.1511,11.1511,11.1511,11.1511,11.1511,11.1511,11.1511,11.1511,11.1511,11.1511,11.1511,11.1511,11.1511,11.1511,11.1511,11.1511,11.1511,0.0,0.0,0.0,0.0,0.0,8.1521,8.0279,7.9762,7.9338,0.0,0.0,0.0,7.9178,7.8501,7.7971,7.7656,7.5992,7.4668,7.4053,7.3476,7.3507,7.4315,7.6015,7.7215,7.7792,7.8207,7.7707,7.6245,7.563,7.5707,7.6515,7.8246,8.0554,8.3324,8.3247,8.3478,8.367,8.0092,8.2093,8.7517,8.5978,8.9325,9.5403,9.6643,9.9413,10.2404,10.0289,9.8596,9.6788,9.3518,8.8132,8.1285,7.2745,6.7051,6.332,6.2095,6.3364,6.4974,6.3929,0.0,0.0,0.0,0.0,0.0,8.4209,8.6824,8.9748,9.5297,9.699,9.8452,10.1712,10.3289,10.4097,10.4289,10.6905,10.8906,10.8906,10.8406,10.8021,10.8021,10.8021,10.8406,10.9213,10.979,11.0598,11.1395,11.1511,11.1511,11.1511,11.1511,11.1511,11.1511,11.1511,11.1511,11.1511,11.1511,11.1511,11.1511,11.1511,11.1511,11.1511,11.1511,11.1511,11.1511,11.1511,11.1511,11.1511,11.1511,11.1511,11.1511,11.1511,11.1511,11.1511,11.1511,11.1511,11.1511,0.0,0.0,8.4118,8.4359,8.4271,8.3976,8.3351,8.2479,8.1873,0.0,0.0,0.0,8.1004,8.1833,8.173,8.0119,7.7897,7.6169,7.5284,7.4469,7.4199,7.4661,7.6669,7.8023,7.8484,7.9015,7.8592,7.7292,7.6053,7.5014,7.4199,7.5245,7.6245,7.72,7.7592,7.8054,7.8169,7.3892,7.7476,8.6217,8.8479,9.2527,9.749,9.9875,10.2414,10.4597,10.452,10.3482,10.1914,10.0096,9.3441,8.4478,7.6015,7.1052,6.7705,6.4596,6.5981,6.8129,6.6436,6.8321,7.1245,7.3399,0.0,0.0,8.2516,8.3862,8.5786,9.2133,9.3719,9.4912,9.8096,9.9673,10.0712,10.1404,10.3905,10.6097,10.7213,10.7213,10.7213,10.7213,10.7213,10.7521,10.829,10.8906,10.9713,11.0906,11.0983,11.1098,11.1511,11.1511,11.1511,11.1511,11.1511,11.1511,11.1511,11.1511,11.1511,11.1511,11.1511,11.1511,11.1511,11.1511,11.1511,11.1511,11.1511,11.1511,11.1511,11.1511,11.1511,11.1511,11.1511,11.1511,11.1511,11.1511,11.1511,11.1511,0.0,0.0,8.4951,8.5661,8.6433,8.6968,8.7015,8.6315,8.5729,0.0,8.4398,8.3914,8.4782,8.655,8.6187,8.2586,7.9546,7.7515,7.6746,7.563,7.493,7.4853,7.7169,7.8446,7.8369,7.8638,7.8292,7.7292,7.5668,7.443,7.3623,7.3353,7.3199,7.3122,7.086,7.1437,7.393,7.093,7.463,8.3247,9.2402,9.598,9.6759,10.5213,10.679,10.5097,10.7982,10.7713,10.5597,10.4212,9.698,8.744,8.1293,7.7246,7.3738,6.8436,6.9821,7.2629,7.0744,7.1706,7.4137,7.813,7.6777,0.0,8.4132,8.317,8.2477,8.8786,9.0671,9.1825,9.3796,9.5595,9.7288,9.8721,10.0096,10.1904,10.4597,10.5597,10.6087,10.6087,10.6087,10.651,10.7482,10.7598,10.829,10.9906,11.0098,11.0598,11.1522,11.1511,11.1511,11.1511,11.1511,11.1511,11.1511,11.1511,11.1511,11.1511,11.1511,11.1511,11.1511,11.1511,11.1511,11.1511,11.1511,11.1511,11.1511,11.1511,11.1511,11.1511,11.1511,11.1511,11.1511,11.1511,11.1511,11.1511,8.4232,8.4993,8.5966,8.7296,8.7643,8.7963,8.8503,8.7814,8.7436,8.7958,8.8903,9.0426,9.278,9.0873,8.942,8.9469,8.448,8.1246,8.1093,7.84,7.6476,7.5784,7.7522,7.8215,7.7561,7.9554,7.9515,7.7292,7.6245,7.5322,7.443,7.236,7.1398,7.1398,7.0898,7.0667,7.0975,7.5623,7.9823,8.3601,8.6286,9.2864,10.1404,10.3905,10.6982,11.0021,10.9983,11.0098,10.9521,10.452,9.9596,9.4249,8.6901,8.3708,8.1392,7.4892,7.5515,7.7669,7.4546,7.6476,7.8631,7.5507,7.7661,0.0,7.6892,7.7169,7.9015,8.2362,8.3208,8.4478,8.8209,9.0825,9.2326,9.1932,9.6057,10.0404,10.3712,10.4289,10.4405,10.4405,10.4405,10.4982,10.651,10.6713,10.729,10.8983,10.979,11.0598,11.1522,11.1511,11.1511,11.1511,11.1511,11.1511,11.1511,11.1511,11.1511,11.1511,11.1511,11.1511,11.1511,11.1511,11.1511,11.1511,11.1511,11.1511,11.1511,11.1511,11.1511,11.1511,11.1511,11.1511,11.1511,11.1511,11.1511,11.1511,8.4371,8.5322,8.6733,8.8603,8.9314,8.9989,9.1184,9.062,9.0828,9.2814,9.5672,9.6948,9.5304,9.4651,9.3376,9.0921,8.6716,8.367,8.2362,7.9939,7.8169,7.7284,7.8477,7.8977,7.8554,8.0208,8.0246,7.8554,7.7284,7.5976,7.4661,7.2552,7.2245,7.336,7.1668,7.2091,7.4207,7.593,7.9092,8.3524,8.9902,9.6826,10.3597,10.6597,10.929,11.1395,11.1021,11.0791,10.9906,10.402,10.0289,9.7057,9.0671,8.8671,8.7517,8.1554,8.19,8.3324,7.9054,7.9746,8.1285,7.9623,8.0131,0.0,0.0,7.8207,7.8515,8.2708,8.1939,8.1747,8.5978,8.7094,8.7979,8.9624,9.2787,9.5903,9.8442,10.1404,10.3097,10.2712,10.2597,10.3097,10.4405,10.4905,10.602,10.8098,10.9483,11.0406,11.0791,11.1291,11.1511,11.1511,11.1511,11.1511,11.1511,11.1511,11.1511,11.1511,11.1511,11.1511,11.1511,11.1511,11.1511,11.1511,11.1511,11.1511,11.1511,11.1511,11.1511,11.1511,11.1511,11.1511,11.1511,11.1511,11.1511,11.1511,8.4164,8.5436,8.7176,8.9277,9.0509,9.1787,9.3441,9.3287,9.4326,9.8019,10.1789,10.2491,9.8144,9.8942,9.8096,9.3932,8.9902,8.6824,8.5093,8.2362,8.04,7.9523,7.9708,7.9892,8.0046,8.0592,8.0246,7.9085,7.7553,7.6015,7.443,7.2745,7.3129,7.5168,7.2899,7.4361,7.8369,7.613,7.9092,8.6094,9.5912,10.0721,10.2481,10.8098,11.0291,11.0406,11.1203,11.1098,10.979,10.4212,10.1404,9.9288,9.3672,9.2864,9.2903,8.7478,8.7902,8.9133,8.4324,8.4016,8.4978,8.4931,8.3777,8.2862,0.0,0.0,0.0,8.3593,8.1939,8.0854,8.4247,8.3901,8.417,8.7432,8.9239,9.0633,9.1825,9.6711,10.0096,9.9865,10.0008,10.0486,10.161,10.1884,10.3409,10.6517,10.7586,10.8596,10.9689,11.0698,11.128,11.1511,11.1511,11.1511,11.1511,11.1511,11.1511,11.1511,11.1511,11.1511,11.1511,11.1511,11.1511,11.1511,11.1511,11.1511,11.1511,11.1511,11.1511,11.1511,11.1511,11.1511,11.1511,11.1511,11.1511,11.1511,8.3772,8.533,8.6983,8.8562,9.0133,9.1787,9.3441,9.4296,9.6489,10.1404,10.3712,10.5607,10.7098,10.4905,10.4212,10.6521,9.8211,9.3364,9.4634,8.8209,8.3939,8.3062,8.0939,8.0162,8.0939,8.0277,7.8784,7.6438,7.5476,7.4546,7.3584,7.186,7.1591,7.2713,7.4591,7.6553,7.8638,8.0516,8.6901,9.5942,9.8096,9.7297,9.5672,10.2981,10.579,10.629,11.0098,11.1906,11.1703,10.728,10.5703,10.4289,9.6903,9.672,9.7951,9.1287,9.224,9.4634,9.1018,9.2326,9.3133,8.6547,8.9133,9.0603,8.0485,0.0,8.2024,7.8946,0.0,7.9931,8.0431,0.0,0.0,8.0969,8.4162,8.6517,8.5978,8.9047,9.2124,9.4326,9.5358,9.6509,9.8113,9.6526,9.7591,10.2888,10.1503,10.2711,10.7813,10.9501,11.0714,11.1522,11.1511,11.1511,11.1511,11.1511,11.1511,11.1511,11.1511,11.1511,11.1511,11.1511,11.1511,11.1511,11.1511,11.1511,11.1511,11.1511,11.1511,11.1511,11.1511,11.1511,11.1511,11.1511,11.1511,11.1511,8.306,8.4455,8.6069,8.7666,8.9325,9.1171,9.3364,9.9442,10.3915,10.3982,10.8983,11.2099,11.1214,10.8983,10.7905,10.879,10.3212,9.8442,9.5702,9.2056,8.8748,8.594,8.4286,8.317,8.2554,8.1246,7.9515,7.7445,7.5592,7.4546,7.4161,7.2437,7.3937,7.8099,7.9169,8.2785,8.7979,8.6594,8.8748,9.321,9.4595,9.398,9.3518,10.5097,10.9213,10.9021,11.0906,11.2011,11.1906,10.6713,10.4597,10.3597,10.0404,9.8711,9.7634,9.6211,9.6057,9.5557,9.2133,9.2979,9.3672,8.897,8.9594,8.9641,8.317,8.117,8.0716,8.0908,0.0,0.0,0.0,0.0,0.0,0.0,8.2054,8.3093,8.2747,8.4747,8.7555,9.1095,9.1104,9.1918,9.4693,9.4109,9.532,9.96,9.8992,10.0286,10.4683,10.7789,10.979,11.0714,11.1203,11.1511,11.1511,11.1511,11.1511,11.1511,11.1511,11.1511,11.1511,11.1511,11.1511,11.1511,11.1511,11.1511,11.1511,11.1511,11.1511,11.1511,11.1511,11.1511,11.1511,11.1511,11.1511,11.1511,8.251,8.3794,8.544,8.7094,8.8979,9.1518,9.5211,10.2789,10.779,10.6982,11.2406,11.5907,11.4599,11.2906,11.2214,11.2983,10.9098,10.4713,10.0202,9.6865,9.3941,9.1325,8.8171,8.6209,8.567,8.3131,8.0708,7.8484,7.6207,7.5053,7.5007,7.3322,7.5399,8.0669,8.2747,8.7632,9.4201,9.2287,9.3018,9.548,9.5826,9.6403,9.8096,10.7213,11.1021,11.1511,11.1511,11.2011,11.1906,10.6713,10.4482,10.3789,10.2904,10.0712,9.8557,9.949,9.8942,9.7173,9.3287,9.3826,9.4441,9.0248,8.9286,8.8363,8.4401,8.1977,8.1023,8.2601,8.09,0.0,0.0,0.0,7.9138,8.0516,0.0,8.0746,8.0746,8.1593,8.3593,8.7363,8.7559,8.8431,9.1065,9.0333,9.1419,9.5564,9.507,9.6791,10.1903,10.5618,10.8393,11.0098,11.1021,11.1511,11.1511,11.1511,11.1511,11.1511,11.1511,11.1511,11.1511,11.1511,11.1511,11.1511,11.1511,11.1511,11.1511,11.1511,11.1511,11.1511,11.1511,11.1511,11.1511,11.1511,11.1511,11.1511,8.2309,8.3717,8.544,8.7094,8.9479,9.3403,10.001,10.2097,10.4905,11.0598,11.2203,11.4407,11.8484,11.7292,11.8292,12.3216,11.7484,11.3214,11.2214,10.3712,9.9288,10.0779,9.2172,8.8479,9.0902,8.6055,8.187,7.8484,7.6784,7.5976,7.5938,7.4238,7.443,7.6515,8.3939,8.921,9.2826,9.6788,10.2789,10.9301,10.5992,10.7598,11.1522,10.6982,10.7905,11.1511,11.1511,11.2011,11.2214,10.8713,10.7598,10.6982,10.3597,10.3097,10.2981,9.9788,10.0481,10.1289,9.6259,9.7336,9.7913,8.9556,8.9325,8.9171,8.1662,8.3016,8.4978,8.1823,8.4286,8.6324,8.3986,8.2793,8.1631,0.0,7.9854,0.0,0.0,7.9169,7.9638,8.2247,8.4969,8.6749,8.7069,8.3617,8.3978,9.0261,8.7898,9.0376,9.9958,10.2892,10.6104,11.0088,11.1021,11.1511,11.1511,11.1511,11.1511,11.1511,11.1511,11.1511,11.1511,11.1511,11.1511,11.1511,11.1511,11.1511,11.1511,11.1511,11.1511,11.1511,11.1511,11.1511,11.1511,11.1511,11.1511,11.1511,8.5555,8.6594,8.7055,8.594,8.8278,9.2817,10.0202,10.629,11.1483,11.5215,11.8792,12.2485,12.6217,12.4601,12.4178,12.6409,12.2485,11.8292,11.4714,10.9906,10.6713,10.5597,9.9288,9.5403,9.4595,9.0094,8.5824,8.187,7.9631,7.8515,7.8477,7.6207,7.6938,8.04,8.5833,9.1719,9.7721,10.0914,10.3712,10.5905,10.4789,10.7982,11.3291,11.0983,11.0714,11.1511,11.1511,11.2011,11.2395,11.0791,10.9098,10.7713,10.7598,10.5097,10.2289,10.2789,10.2404,10.1404,9.9635,10.1212,10.1606,9.4258,9.2633,9.1018,8.3939,8.3862,8.4354,8.0939,8.4055,8.644,8.3324,8.2516,8.1939,0.0,0.0,7.8554,0.0,7.6515,7.6786,7.8856,8.2434,8.4426,8.3676,8.3303,8.4551,8.794,8.8114,9.0465,9.6071,10.1179,10.4904,10.6899,10.9401,11.0884,11.1511,11.1511,11.1511,11.1511,11.1511,11.1511,11.1511,11.1511,11.1511,11.1511,11.1511,11.1511,11.1511,11.1511,11.1511,11.1511,11.1511,11.1511,11.1511,11.1511,11.1511,11.1511,8.7748,8.8556,8.8709,8.7363,9.0441,9.5441,10.252,10.9983,11.5907,11.8792,12.3101,12.6986,13.0179,12.8486,12.7717,12.9102,12.6397,12.2485,11.7407,11.4984,11.2714,11.0483,10.579,10.2481,10.0789,9.6279,9.1432,8.6286,8.3747,8.2054,8.1093,7.8554,7.8977,8.2093,8.694,9.2864,9.9442,10.3789,10.6597,10.7905,10.729,10.979,11.3907,11.2714,11.2088,11.1906,11.1588,11.178,11.2203,11.1703,11.0395,10.9213,11.0291,10.779,10.4597,10.529,10.4405,10.2779,10.1289,10.2481,10.2789,9.6942,9.5018,9.2826,8.6055,8.5863,8.6085,8.2393,8.4939,8.7478,8.617,8.4439,8.3054,0.0,0.0,7.8169,0.0,7.5822,7.641,7.7326,8.0154,8.2076,8.2224,8.2323,8.3635,8.6611,8.699,8.9264,9.4392,9.9532,10.3203,10.5193,10.8499,11.0283,11.0588,11.0906,11.1021,11.1021,11.1021,11.1214,11.1511,11.1511,11.1511,11.1511,11.1511,11.1511,11.1511,11.1511,11.1511,11.1511,11.1511,11.1511,11.1511,11.1511,11.1511,11.1511,8.8949,8.9787,9.0816,9.1787,9.5749,10.0904,10.6982,11.2791,11.7803,12.1304,12.4805,12.7999,13.0487,12.9294,12.9217,13.1602,12.9487,12.6024,12.11,11.91,11.7484,11.5918,11.1714,10.929,10.9213,10.4097,9.8211,9.1595,8.8786,8.617,8.3717,8.1093,8.0323,8.14,8.7162,9.2624,9.8019,10.5597,11.1406,11.5291,11.3483,11.3291,11.3907,11.2214,11.2011,11.2599,11.178,11.1511,11.1511,11.1511,11.1511,11.1511,11.1511,11.0906,10.9713,10.729,10.651,10.5597,10.1606,10.1597,10.1904,9.7711,9.6557,9.4711,8.8055,8.9094,9.0239,8.6008,8.7325,8.9834,9.1864,8.8325,8.5008,0.0,0.0,0.0,7.5238,7.6861,7.8099,7.7407,7.8155,7.9771,8.2451,8.0592,8.1271,8.6103,8.4465,8.6714,9.473,9.7658,10.0895,10.4901,10.8293,10.9692,10.8906,10.9713,11.0098,11.0098,11.0224,11.0598,11.1395,11.1511,11.1511,11.1511,11.1511,11.1511,11.1511,11.1511,11.1511,11.1511,11.1511,11.1511,11.1511,11.1511,11.1511,11.1511,9.2411,9.6134,10.0019,10.2087,10.0404,10.1481,10.929,11.3907,11.8419,12.3716,12.8499,13.2423,13.4911,13.4218,13.3295,13.2692,13.1487,12.9602,12.7101,12.4716,12.3293,12.2793,11.8715,11.5291,11.2714,10.6482,10.1096,9.6865,9.0517,8.7055,8.6324,8.2554,8.1208,8.2131,8.5555,9.0979,9.7904,10.4289,11.1291,11.7907,11.5599,11.5099,11.5599,11.3291,11.2511,11.2599,11.178,11.1511,11.1511,11.1511,11.1511,11.1511,11.1511,11.0906,11.0109,10.9406,10.829,10.7098,10.602,10.6097,10.5713,10.2712,9.9981,9.7211,9.3557,9.3903,9.3787,8.9509,9.2672,9.4672,8.9633,8.8171,8.6671,8.3478,8.0631,7.8092,7.5976,7.6245,7.6823,7.7253,7.7531,7.8275,7.9766,8.0879,8.2405,8.4581,8.4731,8.7276,9.3132,9.5908,9.8913,10.2307,10.6196,10.8487,10.8906,10.9098,10.9213,10.9213,10.9906,11.0291,11.0598,11.1214,11.1511,11.1511,11.1511,11.1511,11.1511,11.1511,11.1511,11.1511,11.1511,11.1511,11.1511,11.1511,11.1511,11.1511,9.6336,10.1904,10.7213,10.929,10.8598,10.9406,11.4599,11.7292,12.0496,12.5293,12.9679,13.3,13.4411,13.5795,13.6103,13.4808,13.391,13.2218,12.941,12.8486,12.7486,12.5986,12.3678,12.1177,11.8484,11.2214,10.6482,10.1606,9.4287,8.9594,8.7325,8.3439,8.1862,8.2439,8.5747,9.0633,9.698,10.5905,11.2906,11.7792,11.6418,11.5918,0.0,11.3483,11.2522,11.2088,11.1703,11.1511,11.1511,11.1511,11.1511,11.1511,11.1511,11.1214,11.0714,11.0291,10.929,10.8098,10.779,10.7405,10.679,10.5405,10.2981,10.0289,9.7336,9.648,9.5403,9.221,9.3633,9.4634,9.1825,8.894,8.5632,8.1323,7.9446,7.7907,7.6245,7.663,7.7015,7.6746,7.7369,7.7931,7.8177,7.9382,8.0911,8.2818,8.3711,8.5935,9.0015,9.3972,9.7452,10.0416,10.4376,10.6905,10.778,10.8213,10.8406,10.8406,10.9213,10.979,11.0214,11.1098,11.1511,11.1511,11.1511,11.1511,11.1511,11.1511,11.1511,11.1511,11.1511,11.1511,11.1511,11.1511,11.1511,11.1511,10.0991,10.7405,11.2896,11.4291,11.7715,12.06,12.16,12.2408,12.3985,12.7114,13.0602,13.2795,13.2679,13.5988,13.7886,13.6911,13.6103,13.3987,13.0102,13.1102,13.0487,12.7498,12.7101,12.6178,12.4293,11.8292,11.1906,10.529,9.8173,9.2124,8.7171,8.3862,8.2285,8.2477,8.6563,9.1257,9.6951,10.8713,11.4791,11.6688,11.6484,11.611,11.5291,11.3407,11.2291,11.1588,11.1511,11.1511,11.1511,11.1511,11.1511,11.1511,11.1511,11.1511,11.1406,11.0598,10.979,10.8906,10.8098,10.7213,10.651,10.629,10.5097,10.3097,9.9981,9.8096,9.6519,9.4864,9.3364,9.3056,9.5365,8.9893,8.3747,7.9677,7.91,7.8677,7.7207,7.813,7.8292,7.6399,7.763,0.0,7.6753,7.7253,7.8644,8.1098,8.1763,8.3563,8.6958,9.1689,9.5729,9.897,10.2811,10.5213,10.6203,10.7098,10.7521,10.7521,10.8482,10.929,11.0109,11.1098,11.1511,11.1511,11.1511,11.1511,11.1511,11.1511,11.1511,11.1511,11.1511,11.1511,11.1511,11.1511,11.1511,11.1511,10.779,11.3483,11.76,11.7215,12.2204,12.7101,12.941,12.9794,13.041,13.1692,13.6103,13.8796,13.7988,13.8604,13.8488,13.6911,13.668,13.568,13.3487,13.2987,13.2192,13.091,12.9487,12.7602,12.5216,11.7984,11.1598,10.6213,9.7288,9.0671,8.6286,8.3555,8.2285,8.2401,8.5286,9.2441,10.2789,10.9213,11.4099,11.7484,11.6792,11.6418,11.5995,11.3599,11.2588,11.2406,11.1703,11.1511,11.1511,11.1511,11.1511,11.1511,11.1511,11.1511,11.1522,11.128,11.0714,10.979,10.8906,10.8098,10.7098,10.5713,10.4597,10.3597,10.2212,10.1212,10.0087,9.9183,9.8759,9.7451,9.3826,8.9171,8.4978,8.2093,8.2255,8.2601,8.2293,8.19,8.0516,7.7445,7.8554,7.7861,7.3521,7.6899,7.9561,8.0067,7.9295,8.1609,8.8031,8.838,9.1585,9.8616,10.1584,10.3789,10.529,10.6213,10.6587,10.6587,10.8213,10.8983,10.9213,11.0791,11.1511,11.1511,11.1511,11.1511,11.1511,11.1511,11.1511,11.1511,11.1511,11.1511,11.1511,11.1511,11.1511,11.1511,11.6215,11.9408,12.21,12.3485,12.7909,13.191,13.3987,13.618,13.668,13.3987,13.5795,13.7219,13.6796,13.9104,14.0104,13.8911,13.8411,13.7603,13.6411,13.4603,13.3487,13.3103,13.0602,12.8409,12.6717,12.01,11.3907,10.8406,9.9442,9.2479,8.7363,8.3901,8.2285,8.2516,8.7709,9.5211,10.4212,10.929,11.3214,11.5907,11.6792,11.6676,11.5715,11.4484,11.3483,11.2588,11.2291,11.1906,11.1511,11.1511,11.1511,11.1511,11.1511,11.1511,11.1511,11.1511,11.0598,10.9406,10.8983,10.7982,10.6713,10.5405,10.4482,10.3712,10.2789,10.1597,10.0404,9.9606,9.9067,9.7173,9.2095,8.8047,8.5201,8.4401,8.3901,8.3909,8.4786,8.417,8.2401,7.9015,7.9323,7.8323,7.4553,7.6938,7.7965,7.6194,7.7484,8.0317,8.4833,8.6125,9.006,9.7389,9.9643,10.211,10.5097,10.602,10.6395,10.6395,10.7713,10.8482,10.8906,11.0214,11.1098,11.1511,11.1511,11.1511,11.1511,11.1511,11.1511,11.1511,11.1511,11.1511,11.1511,11.1511,11.1511,11.1511,12.2985,12.4486,12.6294,12.8986,13.2603,13.5603,13.6911,14.0489,14.1412,13.6488,13.5911,13.5911,13.5911,13.9488,14.1489,14.0681,13.9796,13.8988,13.8194,13.5911,13.4603,13.4603,13.1487,12.9294,12.8486,12.2985,11.71,11.0714,10.2789,9.5557,8.9141,8.5401,8.4055,8.5016,9.1748,9.8481,10.4982,10.9406,11.2483,11.4714,11.6715,11.6715,11.5484,11.5418,11.4291,11.2983,11.2791,11.2214,11.1511,11.1511,11.1511,11.1511,11.1511,11.1511,11.1511,11.1511,11.0406,10.9098,10.8983,10.779,10.6405,10.5223,10.4405,10.3597,10.2597,10.1289,10.0106,9.9019,9.7673,9.5288,9.074,8.7893,8.6162,8.5893,8.517,8.5102,8.6209,8.5517,8.3739,8.0708,7.9708,7.8361,7.5938,7.6372,7.5703,7.3061,7.6075,7.909,8.1561,8.3965,8.8391,9.5185,9.7406,10.0289,10.3982,10.5597,10.6395,10.6395,10.729,10.8021,10.8713,10.9713,11.0598,11.1203,11.1395,11.1511,11.1511,11.1511,11.1511,11.1511,11.1511,11.1511,11.1511,11.1511,11.1511,11.1511,12.4986,12.7717,12.9987,13.0294,13.4487,13.7809,13.8001,14.0887,14.2604,14.1412,14.1181,14.1181,14.1181,14.1604,14.1489,14.0681,13.9796,13.8988,13.8194,13.6411,13.5411,13.5411,13.291,13.1102,13.0294,12.5909,11.9985,11.2483,10.629,9.9058,9.0941,8.8979,8.9718,9.2787,9.6634,10.1712,10.7482,10.9483,11.2599,11.6303,11.6484,11.6484,11.6303,11.561,11.4714,11.3791,11.2983,11.2214,11.1511,11.1511,11.1511,11.1511,11.1511,11.1511,11.1511,11.1511,11.0791,10.9906,10.9098,10.829,10.6982,10.4597,10.3982,10.3482,10.1779,10.1289,10.0712,9.9135,9.6249,9.321,9.0393,9.0278,8.9402,8.5624,8.6824,8.7987,8.7363,8.5901,8.42,8.2285,7.9361,7.6823,7.5007,7.4248,7.3875,7.3783,7.5039,7.753,8.15,8.1297,8.4373,9.1642,9.5028,9.7965,10.0481,10.4405,10.6395,10.6395,10.729,10.7713,10.7905,10.9483,11.0214,11.0406,11.1214,11.1511,11.1511,11.1511,11.1511,11.1511,11.1511,11.1511,11.1511,11.1511,11.1511,11.1511,13.2102,13.2102,13.3103,13.668,13.7296,13.8411,14.1412,14.2604,14.2797,14.1989,14.1912,14.1912,14.1912,14.1912,14.1797,14.1412,14.0604,13.9719,13.8911,13.718,13.5795,13.4795,13.2795,13.1295,13.0487,12.6794,12.21,11.6484,11.0098,10.3597,9.7202,9.5018,9.5788,9.9135,10.1481,10.4982,10.929,11.1483,11.3791,11.5792,11.6303,11.6495,11.6495,11.6099,11.5215,11.3984,11.3599,11.2599,11.1511,11.1511,11.1511,11.1511,11.1511,11.1511,11.1511,11.1511,11.0521,10.929,10.8983,10.7905,10.651,10.4982,10.4299,10.3597,10.2404,10.0904,9.9596,9.8942,9.6057,9.3403,9.2364,9.0402,8.9056,8.9402,8.9017,8.9103,9.0287,8.8556,8.6517,8.4786,8.1631,7.9092,7.7892,7.6207,7.5714,7.6806,7.6312,7.7217,8.0124,8.1826,8.493,8.9816,9.5192,9.8681,10.0106,10.4289,10.6395,10.6395,10.679,10.7213,10.7713,10.8906,10.9983,11.0983,11.128,11.1511,11.1511,11.1511,11.1511,11.1511,11.1511,11.1511,11.1511,11.1511,11.1511,11.1511,13.6911,13.568,13.6116,14.0989,13.9912,13.9604,14.3412,14.3297,14.2604,14.2297,14.1989,14.1912,14.1912,14.1912,14.1912,14.1912,14.1104,14.0219,13.9412,13.7988,13.6488,13.5103,13.341,13.2102,13.1295,12.8102,12.4601,12.06,11.4484,10.8906,10.3905,10.1289,10.1904,10.529,10.6982,10.929,11.2186,11.4214,11.5484,11.6099,11.6676,11.6676,11.6495,11.6495,11.5599,11.4407,11.4407,11.3291,11.1906,11.1906,11.1703,11.1511,11.1511,11.1511,11.1511,11.1511,11.0406,10.9213,10.8983,10.7905,10.6521,10.5405,10.4723,10.3982,10.2904,10.1212,9.9712,9.8942,9.6288,9.4066,9.4066,9.1248,8.9517,9.1441,9.0441,8.9902,9.121,8.9402,8.7478,8.6247,8.2247,7.9669,7.9777,7.767,7.72,7.9495,7.8952,7.9195,8.0717,8.2497,8.5404,8.9638,9.5303,9.8873,10.0106,10.4289,10.6395,10.6395,10.6395,10.6905,10.7713,10.879,11.0098,11.1511,11.1511,11.1511,11.1511,11.1511,11.1511,11.1511,11.1511,11.1511,11.1511,11.1511,11.1511,11.1511,13.7617,13.8117,13.8886,14.1412,14.1912,14.2104,14.2989,14.2412,14.2181,14.2989,14.2412,14.1912,14.1912,14.1912,14.1912,14.1912,14.1104,14.0219,13.9412,13.8488,13.7694,13.6796,13.5218,13.391,13.3,13.0487,12.7486,12.3985,11.9792,11.5099,10.9983,10.7521,10.8087,11.1522,11.3099,11.4791,11.6495,11.7407,11.7792,11.7792,11.7792,11.7292,11.6495,11.6495,11.5995,11.5291,11.5291,11.4214,11.2714,11.2714,11.2214,11.1511,11.1511,11.1511,11.1511,11.1511,11.0906,10.9983,10.9098,10.829,10.729,10.5482,10.5107,10.4597,10.2981,10.2597,10.1789,9.9327,9.6759,9.4989,9.4989,9.3604,9.1902,9.0201,9.0624,9.0594,8.8987,8.7248,8.6132,8.6094,8.0169,7.7053,7.9546,7.7507,7.7537,8.1204,8.292,8.3949,8.4304,8.2672,8.4745,9.1374,9.4789,9.7697,10.0106,10.4289,10.6395,10.6395,10.6395,10.6905,10.779,10.9406,11.0714,11.1511,11.1511,11.1511,11.1511,11.1511,11.1511,11.1511,11.1511,11.1511,11.1511,11.1511,11.1511,11.1511,14.0412,14.0681,14.1104,14.2489,14.2681,14.2797,14.3118,14.2912,14.2604,14.2297,14.2104,14.1912,14.1912,14.1912,14.1912,14.1912,14.1604,14.0912,13.9412,13.9104,13.7796,13.5218,13.4603,13.3603,13.2102,13.0217,12.8409,12.6705,12.2485,11.8985,11.6215,11.4791,11.5715,11.8407,11.7715,11.81,11.91,11.8792,11.8715,11.8715,11.8715,11.8215,11.7407,11.7407,11.6484,11.5291,11.5291,11.4214,11.2714,11.2714,11.2214,11.1511,11.1511,11.1511,11.1511,11.1511,11.0906,11.0098,10.9906,10.879,10.7598,10.6982,10.5982,10.4789,10.3712,10.2097,10.0289,9.8327,9.6826,9.5711,9.5104,9.3642,9.2326,9.1748,9.1402,9.0825,8.9671,8.8055,8.6786,8.617,8.317,8.1285,8.1477,8.1323,8.1199,8.1214,8.2368,8.3704,8.5134,8.7248,8.9079,9.0666,9.6614,9.9872,10.0106,10.4289,10.6395,10.6395,10.6395,10.7087,10.8482,10.9098,11.0098,11.1511,11.1511,11.1511,11.1511,11.1511,11.1511,11.1511,11.1511,11.1511,11.1511,11.1511,11.1511,11.1511,14.1797,14.1912,14.2104,14.2604,14.2604,14.2604,14.2604,14.2604,14.2489,14.1989,14.1912,14.1912,14.1912,14.1604,14.1489,14.1912,14.1604,14.0796,13.9412,13.8988,13.7796,13.5295,13.4603,13.3795,13.2679,13.0718,12.9294,12.8397,12.4486,12.1985,12.0985,12.01,12.0716,12.2485,12.1408,12.11,12.1216,12.0716,12.01,11.96,11.96,11.8985,11.8292,11.7907,11.7215,11.6215,11.5918,11.4907,11.3599,11.3291,11.2588,11.1895,11.1588,11.1511,11.1511,11.1511,11.1098,11.0598,11.0291,10.9406,10.8598,10.8213,10.7098,10.5713,10.4212,10.2212,10.0096,9.8327,9.7326,9.648,9.5634,9.4373,9.3335,9.2979,9.2249,9.1287,9.0086,8.8479,8.7094,8.6209,8.4632,8.3409,8.2832,8.387,8.4362,8.3978,8.5459,8.7176,8.9033,9.0045,9.1195,9.2559,9.8273,10.1404,10.1491,10.4789,10.6395,10.6395,10.701,10.7905,10.8906,10.9598,11.0521,11.1511,11.1511,11.128,11.1021,11.1406,11.128,11.1021,11.1406,11.1511,11.1511,11.1511,11.1511,11.1511,14.2104,14.1989,14.1989,14.1989,14.1989,14.1989,14.1912,14.1912,14.1989,14.1912,14.1912,14.1912,14.1912,14.1181,14.0989,14.1681,14.1104,14.0219,13.9412,13.8604,13.768,13.668,13.5103,13.4218,13.4103,13.1718,12.9987,12.9102,12.5909,12.4293,12.4293,12.3485,12.3601,12.4293,12.4216,12.3716,12.2985,12.2908,12.1908,12.0408,12.0408,11.9908,11.8985,11.8215,11.7792,11.76,11.6792,11.5995,11.5187,11.4407,11.3483,11.2599,11.178,11.1511,11.1511,11.1511,11.1511,11.128,11.0483,11.0214,10.9983,10.9098,10.8213,10.6905,10.4482,10.2597,10.0894,9.9327,9.8288,9.7403,9.6557,9.5672,9.4797,9.3835,9.2979,9.1787,9.0047,8.8479,8.7132,8.6209,8.4863,8.3986,8.3793,8.5401,8.7017,8.841,9.0941,9.3056,9.4566,9.1364,9.1697,9.6414,9.9693,10.2212,10.3905,10.5597,10.6395,10.6395,10.7982,10.879,10.8983,11.0598,11.1395,11.1511,11.1511,11.1021,11.0406,11.1214,11.1021,11.0406,11.1214,11.1511,11.1511,11.1395,11.1395,11.1511,14.3797,14.3297,14.2797,14.2797,14.2797,14.2604,14.1989,14.2412,14.2604,14.1989,14.1912,14.1912,14.1912,14.1681,14.1412,14.0912,14.0719,14.0219,13.9412,13.9104,13.7796,13.4988,13.4487,13.3718,13.2295,13.1102,12.9717,12.8205,12.7397,12.6717,12.6101,12.5909,12.5909,12.6101,12.5409,12.4601,12.3793,12.3216,12.2293,12.1304,12.1304,12.0408,11.91,11.8908,11.7984,11.6803,11.6611,11.5995,11.5291,11.511,11.3984,11.2714,11.2522,11.2022,11.1511,11.1511,11.1511,11.1522,11.1203,11.0714,10.9983,10.9098,10.729,10.5607,10.4992,10.3482,10.202,10.0894,10.0096,9.9029,9.7519,9.6557,9.548,9.3941,9.2479,9.0902,8.921,8.8641,8.7833,8.6286,8.747,8.7624,8.5709,8.8248,8.9094,8.6863,8.971,9.1402,9.1133,9.3302,9.5704,9.8152,10.0884,10.2789,10.3905,10.5597,10.6395,10.6395,10.679,10.7713,10.8906,10.929,11.0214,11.1511,11.1511,11.1406,11.1214,11.1395,11.1406,11.1214,11.1395,11.1511,11.1395,11.0791,11.0906,11.1395,14.4412,14.3989,14.3682,14.3682,14.3682,14.3489,14.3105,14.3105,14.2912,14.2489,14.2104,14.1681,14.1296,14.0989,14.0489,13.9989,13.9989,13.9604,13.8796,13.8411,13.7219,13.4911,13.4487,13.368,13.2295,13.1487,13.0217,12.8486,12.8089,12.7486,12.669,12.669,12.669,12.669,12.6178,12.5486,12.4601,12.3793,12.2985,12.2216,12.1804,12.1112,12.0177,11.9408,11.8484,11.76,11.6803,11.6187,11.5803,11.5407,11.4714,11.3714,11.2983,11.2406,11.2022,11.1588,11.1511,11.1511,11.1511,11.1214,11.0483,10.9213,10.7905,10.6482,10.5415,10.4405,10.3289,10.1587,10.0981,9.9981,9.7904,9.6826,9.5595,9.348,9.2402,9.1056,8.8987,8.9017,8.9056,8.8517,8.9663,9.0239,8.9633,9.1248,9.1556,8.971,9.1672,9.2903,9.2817,9.6134,9.825,9.8788,10.1712,10.3597,10.4405,10.6097,10.7021,10.7021,10.779,10.8598,10.9483,10.9906,11.0598,11.1511,11.1511,11.1291,11.0906,11.128,11.1291,11.0906,11.128,11.1511,11.1395,11.0983,11.1098,11.1395,14.4399,14.4476,14.4605,14.4412,14.4412,14.4412,14.422,14.3605,14.3118,14.2912,14.2297,14.1604,14.0681,13.9912,13.9412,13.9104,13.9104,13.8796,13.8117,13.7411,13.6488,13.5488,13.4718,13.391,13.3,13.2102,13.091,12.9217,12.8486,12.7602,12.669,12.669,12.669,12.669,12.669,12.6178,12.5293,12.4486,12.3601,12.2793,12.1985,12.1485,12.1177,11.9792,11.9215,11.8908,11.7303,11.6676,11.6611,11.5803,11.5407,11.4984,11.3407,11.2791,11.2511,11.1703,11.1511,11.1511,11.1511,11.1395,11.0895,10.9483,10.8983,10.829,10.5982,10.5405,10.4597,10.2279,10.1712,10.0789,9.8519,9.7326,9.5788,9.3133,9.2672,9.1748,8.9064,8.9633,9.0547,9.1325,9.1748,9.2518,9.3941,9.421,9.4249,9.4249,9.4951,9.5826,9.6826,9.9019,10.0106,9.9558,10.2481,10.4482,10.5492,10.6982,10.779,10.7905,10.929,11.0109,11.0214,11.0983,11.1406,11.1511,11.1511,11.1098,11.0483,11.1214,11.1098,11.0483,11.1214,11.1511,11.1511,11.1406,11.1406,11.1511,14.472,14.499,14.5297,14.4476,14.4412,14.422,14.3412,14.3181,14.2912,14.2181,14.1989,14.1604,14.0681,14.0489,13.9796,13.8411,13.8296,13.8181,13.8117,13.8001,13.718,13.5603,13.4718,13.391,13.3,13.2102,13.091,12.9217,12.9102,12.8217,12.669,12.669,12.669,12.669,12.669,12.6178,12.5293,12.4486,12.3601,12.2793,12.1985,12.1189,12.0485,12.0216,11.9715,11.8985,11.7984,11.76,11.7484,11.6599,11.5918,11.5099,11.4099,11.3291,11.2511,11.1703,11.1511,11.1511,11.1511,11.0983,11.0291,11.0109,10.9406,10.8598,10.7482,10.6713,10.5905,10.4713,10.3405,10.2097,10.0894,9.9442,9.7326,9.4057,9.3518,9.2402,8.9141,9.0671,9.2133,9.2287,9.421,9.5595,9.5865,9.6519,9.6903,9.6903,9.7057,9.7788,9.9413,10.0519,10.1712,10.3107,10.4299,10.5713,10.729,10.7598,10.8021,10.8713,10.8983,10.9483,11.0224,11.0291,11.0791,11.1511,11.1511,11.1395,11.128,11.1395,11.1395,11.128,11.1395,11.1511,11.1395,11.0714,11.0906,11.1395,14.5797,14.6105,14.6221,14.5797,14.5413,14.499,14.4605,14.3682,14.2989,14.2604,14.2181,14.1412,13.9989,13.9912,13.9219,13.7488,13.7411,13.7411,13.7411,13.7411,13.6603,13.4911,13.4487,13.368,13.2295,13.191,13.091,12.9217,12.9217,12.8294,12.669,12.669,12.669,12.669,12.669,12.6486,12.5986,12.5178,12.4293,12.3485,12.2601,12.1793,12.0908,12.0485,12.01,11.96,11.8792,11.8215,11.7704,11.7292,11.6599,11.5803,11.4984,11.4099,11.3214,11.2406,11.178,11.1511,11.1511,11.1214,11.0791,11.0291,10.9906,10.9406,10.8482,10.8021,10.7405,10.6097,10.5213,10.4097,10.2279,10.0596,9.8836,9.6788,9.4903,9.3326,9.2257,9.271,9.348,9.4441,9.598,9.7326,9.825,9.825,9.8557,9.9481,9.9135,9.9635,10.1414,10.2212,10.3482,10.5213,10.6097,10.7098,10.829,10.879,10.9213,10.9598,11.0098,11.0521,11.0906,11.0906,11.1098,11.1511,11.1511,11.1511,11.1511,11.1511,11.1511,11.1511,11.1511,11.1511,11.1522,11.1021,11.1214,11.1395,14.5682,14.6105,14.6297,14.6105,14.549,14.5105,14.5105,14.3797,14.2797,14.2797,14.2104,14.1104,13.9719,13.9296,13.8488,13.718,13.6911,13.6796,13.6796,13.6796,13.6103,13.4603,13.4218,13.3295,13.1679,13.1679,13.0987,12.9487,12.9294,12.8409,12.6986,12.6806,12.669,12.669,12.669,12.669,12.6601,12.5794,12.4909,12.3985,12.3216,12.2408,12.1485,12.0908,12.06,12.0485,11.9715,11.8908,11.8407,11.8215,11.7484,11.6688,11.5792,11.4984,11.4099,11.3291,11.2406,11.1703,11.1588,11.1511,11.128,11.0714,11.0483,11.0291,10.9406,10.9213,10.879,10.729,10.678,10.601,10.3905,10.2097,10.0491,9.9019,9.6749,9.5143,9.5027,9.5104,9.5672,9.7019,9.8057,9.9288,10.0798,10.0414,10.0481,10.1789,10.1289,10.1597,10.3097,10.3789,10.4982,10.6895,10.7598,10.8406,10.9213,10.9906,11.0291,11.0483,11.1214,11.1511,11.1511,11.1511,11.1511,11.1511,11.1511,11.1511,11.1511,11.1511,11.1511,11.1511,11.1511,11.1511,11.1511,11.1511,11.1511,11.1511,14.2681,14.3489,14.4297,14.3489,14.3297,14.3297,14.3297,14.2489,14.1989,14.1989,14.1181,14.0604,14.0489,13.9104,13.8117,13.8001,13.7309,13.6796,13.6796,13.6796,13.6411,13.5488,13.391,13.2692,13.1679,13.1679,13.1295,13.041,12.9602,12.8717,12.7794,12.6986,12.669,12.669,12.669,12.669,12.6601,12.5794,12.4909,12.3985,12.3216,12.2408,12.1612,12.1485,12.1485,12.142,12.0485,12.0216,11.9985,11.9292,11.8407,11.76,11.6676,11.5918,11.4984,11.4214,11.3291,11.2395,11.1703,11.1511,11.1511,11.1395,11.1395,11.1214,11.0291,11.0098,10.979,10.8906,10.8098,10.729,10.628,10.4789,10.2607,9.9327,9.9259,9.8528,9.5451,9.7682,9.9683,9.9798,10.1212,10.2597,10.3482,10.3597,10.3597,10.3712,10.3712,10.3982,10.4915,10.4992,10.6097,10.8598,10.879,10.9213,11.0109,11.0224,11.0598,11.1395,11.1522,11.1511,11.1511,11.1511,11.1511,11.1511,11.1511,11.1511,11.1511,11.1511,11.1511,11.1511,11.1511,11.1511,11.1511,11.1511,11.1511,11.1511,14.5105,14.549,14.572,14.4913,14.4297,14.3682,14.3181,14.2412,14.1912,14.1912,14.1604,14.0989,13.9912,13.9219,13.8411,13.7411,13.6988,13.6796,13.6796,13.6796,13.618,13.4795,13.3103,13.1987,13.1679,13.1679,13.1295,13.0487,13.0217,12.9294,12.7897,12.7602,12.7217,12.669,12.669,12.669,12.669,12.6294,12.5678,12.4793,12.3985,12.3101,12.2293,12.1793,12.1612,12.1612,12.1177,12.0793,12.0292,11.9908,11.9292,11.8484,11.76,11.6715,11.5803,11.4407,11.3407,11.2791,11.2983,11.2291,11.1511,11.1511,11.1511,11.1395,11.1098,11.1021,11.0791,10.9906,10.9483,10.8983,10.8098,10.6597,10.5213,10.4405,10.2404,10.0789,10.0606,10.0712,10.1019,10.1597,10.2712,10.3712,10.4607,10.4212,10.4597,10.6097,10.529,10.5492,10.7405,10.7993,10.8713,10.9713,11.0214,11.0714,11.1021,11.1021,11.1214,11.1511,11.1511,11.1511,11.1511,11.1511,11.1511,11.1511,11.1511,11.1511,11.1511,11.1511,11.1511,11.1511,11.1511,11.1511,11.1511,11.1511,11.1511,11.1511,14.5682,14.5682,14.549,14.4605,14.3989,14.3412,14.2797,14.2297,14.1912,14.1912,14.1681,14.0989,13.9796,13.9219,13.8488,13.7296,13.6988,13.6796,13.6796,13.6488,13.5911,13.4718,13.2987,13.2102,13.2102,13.1795,13.141,13.091,13.0602,12.9717,12.8282,12.8012,12.7486,12.669,12.669,12.669,12.669,12.669,12.6178,12.5293,12.4716,12.3985,12.3216,12.2601,12.2216,12.1985,12.1985,12.1408,12.0677,12.0677,12.0177,11.9408,11.8792,11.7792,11.6599,11.4907,11.3984,11.3599,11.3907,11.3214,11.2203,11.1895,11.1703,11.1511,11.1511,11.1511,11.128,11.0714,11.0598,11.0291,10.9483,10.8406,10.7598,10.7713,10.5202,10.3597,10.4597,10.3905,10.351,10.4097,10.4982,10.5713,10.6213,10.579,10.6213,10.7905,10.6982,10.7098,10.879,10.9713,11.0224,11.0224,11.1021,11.1511,11.1511,11.1511,11.1511,11.1511,11.1511,11.1511,11.1511,11.1511,11.1511,11.1511,11.1511,11.1511,11.1511,11.1511,11.1511,11.1511,11.1511,11.1511,11.1511,11.1511,11.1511,11.1511,14.3489,14.3105,14.2912,14.2104,14.1912,14.1912,14.1912,14.1912,14.1912,14.1912,14.1104,14.0604,14.0604,13.9104,13.8117,13.8117,13.7296,13.6796,13.6796,13.5988,13.5488,13.5488,13.391,13.3,13.3,13.2102,13.1679,13.1679,13.091,13.0102,12.9217,12.8282,12.7486,12.669,12.669,12.669,12.669,12.669,12.6178,12.5409,12.5409,12.4909,12.4101,12.4101,12.3601,12.2908,12.2908,12.2293,12.1612,12.1612,12.0985,12.0292,12.0292,11.91,11.7484,11.5792,11.5291,11.5099,11.4291,11.3984,11.3791,11.2906,11.2088,11.1511,11.1511,11.1511,11.1511,11.1511,11.1511,11.1203,11.0406,11.0224,10.9686,10.7982,10.7713,10.7405,10.651,10.7213,10.7713,10.7713,10.8406,10.8906,10.8906,10.8906,10.8906,10.8906,10.8906,10.8906,10.8906,10.9713,11.0224,11.0224,11.1021,11.1511,11.1511,11.1511,11.1511,11.1511,11.1511,11.1511,11.1511,11.1511,11.1511,11.1511,11.1511,11.1511,11.1511,11.1511,11.1511,11.1511,11.1511,11.1511,11.1511,11.1511,11.1511,11.1511,14.5105,14.4913,14.4489,14.2989,14.2681,14.2604,14.1989,14.1912,14.1912,14.1912,14.1681,14.0989,13.9796,13.9219,13.8488,13.7296,13.6988,13.6796,13.6796,13.6603,13.6411,13.6411,13.418,13.3,13.3,13.2102,13.1679,13.1679,13.091,13.0102,12.9217,12.8282,12.7486,12.669,12.669,12.669,12.669,12.669,12.6486,12.6306,12.5601,12.5216,12.4909,12.4293,12.3985,12.3716,12.3716,12.3216,12.2485,12.2485,12.1908,12.11,12.0485,11.91,11.7715,11.7215,11.6215,11.5418,11.5676,11.4907,11.3907,11.3714,11.2983,11.228,11.228,11.1895,11.1511,11.1511,11.1511,11.1395,11.1214,11.0598,10.9983,10.9483,10.8906,10.8482,10.8213,10.8406,10.8482,10.8482,10.879,10.8906,10.8906,10.8906,10.9213,10.979,11.0406,11.0483,10.979,11.0598,11.1098,11.1098,11.1406,11.1511,11.1511,11.1511,11.1511,11.1511,11.1511,11.1511,11.1511,11.1511,11.1511,11.1511,11.1511,11.1511,11.1511,11.1511,11.1511,11.1511,11.1511,11.1511,11.1511,11.1511,11.1511,11.1511,14.4913,14.4682,14.4182,14.2912,14.2604,14.2489,14.1989,14.1912,14.1912,14.1912,14.1604,14.0912,13.9488,13.8988,13.8296,13.6911,13.6796,13.6796,13.6796,13.6796,13.6796,13.6796,13.468,13.3487,13.3487,13.2295,13.1679,13.1679,13.1179,13.041,12.9217,12.8717,12.7794,12.669,12.669,12.669,12.669,12.669,12.669,12.669,12.6101,12.5909,12.5909,12.5293,12.4909,12.4601,12.4601,12.3909,12.2908,12.2908,12.2293,12.1408,12.06,11.96,11.8715,11.8407,11.7407,11.6484,11.7292,11.6292,11.5099,11.5407,11.4291,11.3099,11.2791,11.228,11.1906,11.1588,11.1511,11.1511,11.1511,11.1098,11.0714,11.0714,11.0291,10.9906,10.9906,10.9906,10.9906,10.9906,10.9906,10.9906,10.9906,10.9906,11.0098,11.0714,11.1214,11.1291,11.0714,11.1214,11.1511,11.1511,11.1511,11.1511,11.1511,11.1511,11.1511,11.1511,11.1511,11.1511,11.1511,11.1511,11.1511,11.1511,11.1511,11.1511,11.1511,11.1511,11.1511,11.1511,11.1511,11.1511,11.1511,11.1511,11.1511,11.1511,14.3412,14.3105,14.2797,14.1989,14.1912,14.1912,14.1912,14.1912,14.1912,14.1797,14.1104,14.0219,13.9296,13.8488,13.768,13.6911,13.6796,13.6796,13.6796,13.6796,13.6796,13.6796,13.5218,13.4295,13.4295,13.2603,13.1679,13.1679,13.1602,13.0794,12.9217,12.9102,12.8217,12.669,12.669,12.669,12.669,12.669,12.669,12.669,12.669,12.669,12.669,12.669,12.6178,12.5486,12.5486,12.4486,12.3101,12.3024,12.2408,12.16,12.0793,12.0408,12.0216,11.9408,11.86,11.81,11.8908,11.7907,11.6907,11.7715,11.6215,11.4214,11.3214,11.2906,11.2599,11.1906,11.1703,11.1703,11.1588,11.1588,11.1588,11.1511,11.1511,11.1511,11.1511,11.1511,11.1511,11.1511,11.1511,11.1511,11.1511,11.1511,11.1511,11.1511,11.1511,11.1511,11.1511,11.1511,11.1511,11.1511,11.1511,11.1511,11.1511,11.1511,11.1511,11.1511,11.1511,11.1511,11.1511,11.1511,11.1511,11.1511,11.1511,11.1511,11.1511,11.1511,11.1511,11.1511,11.1511,11.1511,11.1511,11.1511,11.1511,11.1511,14.3412,14.3105,14.2797,14.1989,14.1912,14.1912,14.1912,14.1912,14.1681,14.0989,14.0719,13.9989,13.8488,13.8181,13.768,13.6911,13.6796,13.6796,13.6796,13.6796,13.6796,13.6796,13.5218,13.4295,13.4295,13.2603,13.1679,13.1679,13.1102,13.0217,12.9217,12.8486,12.7717,12.669,12.669,12.669,12.669,12.669,12.669,12.669,12.669,12.669,12.669,12.669,12.6614,12.6409,12.6409,12.5678,12.4793,12.4101,12.3293,12.2601,12.2408,12.1408,12.0292,12.01,11.9485,11.8908,11.8985,11.8792,11.86,11.8792,11.8407,11.7407,11.5215,11.4214,11.3714,11.3483,11.3483,11.3214,11.2599,11.2395,11.2203,11.1588,11.1511,11.1511,11.1511,11.1511,11.1511,11.1511,11.1511,11.1511,11.1511,11.1511,11.1511,11.1511,11.1511,11.1511,11.1511,11.1511,11.1511,11.1511,11.1511,11.1511,11.1511,11.1511,11.1511,11.1511,11.1511,11.1511,11.1511,11.1511,11.1511,11.1511,11.1511,11.1511,11.1511,11.1511,11.1511,11.1511,11.1511,11.1511,11.1511,11.1511,11.1511,11.1511,14.2797,14.2489,14.2412,14.1989,14.1912,14.1797,14.1296,14.1296,14.0989,14.0104,13.9604,13.9104,13.8194,13.7694,13.7296,13.6796,13.6796,13.6796,13.6796,13.6796,13.6603,13.618,13.4988,13.4103,13.368,13.241,13.1679,13.1679,13.1295,13.0602,12.9794,12.941,12.8486,12.7294,12.7294,12.7101,12.669,12.669,12.669,12.669,12.669,12.669,12.669,12.669,12.669,12.669,12.669,12.6101,12.5293,12.4409,12.3793,12.3408,12.3024,12.2293,12.1485,12.0985,12.0292,11.9792,12.0177,11.9715,11.9215,11.96,11.9408,11.86,11.6907,11.5792,11.5099,11.4714,11.4291,11.3907,11.3407,11.3291,11.3214,11.2791,11.2714,11.2714,11.2714,11.228,11.2088,11.2088,11.1703,11.1511,11.1511,11.1511,11.1511,11.1511,11.1906,11.1895,11.1511,11.2291,11.2522,11.2088,11.2522,11.2522,11.2088,11.2522,11.2522,11.2088,11.2088,11.2088,11.2088,11.2088,11.1906,11.1511,11.1511,11.1511,11.1511,11.1511,11.1511,11.1511,11.1511,11.1511,11.1511,11.1511,11.1511,11.1511,14.2104,14.1912,14.1912,14.1912,14.1797,14.1412,14.0719,14.0489,14.0104,13.9219,13.8488,13.8001,13.7886,13.718,13.6796,13.6796,13.6796,13.6796,13.6796,13.6796,13.6411,13.5488,13.4718,13.391,13.3,13.2102,13.1679,13.1679,13.1679,13.1295,13.0487,13.0487,12.9602,12.8089,12.8012,12.7486,12.6909,12.6806,12.669,12.669,12.669,12.669,12.669,12.669,12.669,12.669,12.669,12.6178,12.5486,12.4793,12.4409,12.4216,12.3485,12.3216,12.2908,12.21,12.1293,12.0908,12.1408,12.06,11.9715,12.0408,11.9985,11.9292,11.86,11.7715,11.6803,11.6099,11.5407,11.4791,11.4484,11.4407,11.4291,11.3984,11.3984,11.3984,11.3984,11.3407,11.2906,11.2906,11.228,11.1895,11.1895,11.1895,11.1895,11.1895,11.2511,11.2588,11.2022,11.3214,11.3714,11.2896,11.3599,11.3714,11.2896,11.3599,11.3714,11.3099,11.3099,11.2983,11.2714,11.2714,11.2291,11.1511,11.1511,11.1511,11.1511,11.1511,11.1511,11.1511,11.1511,11.1511,11.1511,11.1511,11.1511,11.1511,14.2104,14.1912,14.1912,14.1912,14.1296,14.0719,14.0604,13.9989,13.9219,13.8411,13.8194,13.7796,13.7103,13.6911,13.6796,13.6796,13.6796,13.6796,13.6796,13.6796,13.6411,13.5488,13.4718,13.391,13.3,13.2102,13.1679,13.1679,13.1679,13.1295,13.0487,13.0487,12.9987,12.8986,12.8205,12.7782,12.7717,12.6986,12.669,12.669,12.669,12.669,12.669,12.669,12.669,12.669,12.669,12.6601,12.6486,12.6421,12.5794,12.5216,12.5101,12.4486,12.3793,12.2985,12.2601,12.2408,12.1804,12.142,12.1304,12.142,12.1293,12.1177,12.11,11.9908,11.8715,11.86,11.8484,11.7907,11.6407,11.6187,11.5676,11.4214,11.3984,11.3984,11.3984,11.3907,11.3791,11.3791,11.3714,11.3714,11.3714,11.3714,11.3714,11.3714,11.3791,11.3791,11.3714,11.3907,11.3907,11.3791,11.3907,11.3907,11.3791,11.3907,11.4291,11.4907,11.4907,11.4214,11.2714,11.2714,11.2291,11.1511,11.1511,11.1511,11.1511,11.1511,11.1511,11.1511,11.1511,11.1511,11.1511,11.1511,11.1511,11.1511,14.1989,14.1912,14.1912,14.1912,14.1181,14.0412,13.9912,13.9181,13.8296,13.7488,13.7411,13.718,13.6796,13.6796,13.6796,13.6796,13.6796,13.6796,13.6796,13.6296,13.5719,13.4911,13.3987,13.318,13.2307,13.191,13.1679,13.1679,13.1679,13.1487,13.1179,13.1179,13.0718,12.991,12.9487,12.9102,12.8602,12.7717,12.7409,12.7294,12.6909,12.669,12.669,12.669,12.669,12.669,12.669,12.669,12.669,12.669,12.6409,12.5986,12.5601,12.5101,12.4716,12.3793,12.3601,12.3485,12.3101,12.2985,12.2908,12.2408,12.2293,12.2216,12.1677,12.0985,12.0408,11.9908,11.9408,11.8908,11.81,11.7984,11.76,11.6292,11.6099,11.5984,11.5484,11.4984,11.4484,11.4099,11.3984,11.3984,11.3984,11.3984,11.3984,11.3984,11.4484,11.4484,11.3984,11.4907,11.5215,11.4714,11.5187,11.5215,11.4714,11.5215,11.5407,11.5291,11.5803,11.5291,11.4099,11.3599,11.2983,11.2088,11.1703,11.1511,11.1511,11.1511,11.1511,11.1511,11.1511,11.1511,11.1511,11.1511,11.1511,11.1511]}]]